[[{"header":{"parameterUnit":"m.s-1","parameterCategory":1,"la1":30.6,"la2":29.2853,"lo1":-89.7004,"lo2":-87.6739,"dy":0.0162,"dx":0.0183,"nx":112,"ny":82,"refTime":"2023-08-01T00:00:00:Z","depth":0,"parameterNumber":2,"parameterNumberName":"U-component_of_WINDS"},"data":[0.0,0.0,0.0,0.0,0.0,0.0,0.0,0.0,0.0,0.0,0.0,0.0,0.0,0.0,0.0,0.0,0.0,0.0,0.0,0.0,0.0,0.0,0.0,0.0,0.0,0.0,0.0,0.0,0.0,0.0,0.0,0.0,0.0,0.0,0.0,0.0,0.0,0.0,0.0,0.0,0.0,0.0,0.0,0.0,0.0,0.0,0.0,0.0,0.0,0.0,0.0,0.0,0.0,0.0,0.0,0.0,0.0,0.0,0.0,0.0,0.0,0.0,0.0,0.0,0.0,0.0,0.0,0.0,0.0,0.0,0.0,0.0,0.0,0.0,0.0,0.0,0.0,0.0,0.0,0.0,0.0,0.0,0.0,0.0,0.0,0.0,0.0,0.0,0.0,0.0,-4.042,-3.9721,-4.0056,-4.0615,-4.1294,-4.1933,-4.2045,-4.1525,0.0,0.0,0.0,0.0,0.0,0.0,0.0,0.0,0.0,0.0,0.0,0.0,0.0,0.0,0.0,0.0,0.0,0.0,0.0,0.0,0.0,0.0,0.0,0.0,0.0,0.0,0.0,0.0,0.0,0.0,0.0,0.0,0.0,0.0,0.0,0.0,0.0,0.0,0.0,0.0,0.0,0.0,0.0,0.0,0.0,0.0,0.0,0.0,0.0,0.0,0.0,0.0,0.0,0.0,0.0,0.0,0.0,0.0,0.0,0.0,0.0,0.0,0.0,0.0,0.0,0.0,0.0,0.0,0.0,0.0,0.0,0.0,0.0,0.0,0.0,0.0,0.0,0.0,0.0,0.0,0.0,0.0,0.0,0.0,0.0,0.0,0.0,0.0,0.0,0.0,0.0,0.0,0.0,0.0,0.0,0.0,0.0,0.0,0.0,0.0,0.0,0.0,0.0,0.0,-4.0383,-3.952,-3.9517,-3.9844,-4.0581,-4.0737,-4.1008,-4.1459,0.0,0.0,0.0,0.0,0.0,0.0,0.0,0.0,0.0,0.0,0.0,0.0,0.0,0.0,0.0,0.0,0.0,0.0,0.0,0.0,0.0,0.0,0.0,0.0,0.0,0.0,0.0,0.0,0.0,0.0,0.0,0.0,0.0,0.0,0.0,0.0,0.0,0.0,0.0,0.0,0.0,0.0,0.0,0.0,0.0,0.0,0.0,0.0,0.0,0.0,0.0,0.0,0.0,0.0,0.0,0.0,0.0,0.0,0.0,0.0,0.0,0.0,0.0,0.0,0.0,0.0,0.0,0.0,0.0,0.0,0.0,0.0,0.0,0.0,0.0,0.0,0.0,0.0,0.0,0.0,0.0,0.0,0.0,0.0,0.0,0.0,0.0,0.0,0.0,0.0,0.0,0.0,0.0,0.0,0.0,0.0,0.0,0.0,0.0,0.0,0.0,0.0,0.0,-4.0004,-3.9862,-3.9454,-3.9388,-3.9553,-3.9879,-4.0285,-4.0443,-4.0374,-4.1689,0.0,0.0,0.0,0.0,0.0,0.0,0.0,0.0,0.0,0.0,0.0,0.0,0.0,0.0,0.0,0.0,0.0,0.0,0.0,0.0,0.0,0.0,0.0,0.0,0.0,0.0,0.0,0.0,0.0,0.0,0.0,0.0,0.0,0.0,0.0,0.0,0.0,0.0,0.0,0.0,0.0,0.0,0.0,0.0,0.0,0.0,0.0,0.0,0.0,0.0,0.0,0.0,0.0,0.0,0.0,0.0,0.0,0.0,0.0,0.0,0.0,0.0,0.0,0.0,0.0,0.0,0.0,0.0,0.0,0.0,0.0,0.0,0.0,0.0,0.0,0.0,0.0,0.0,0.0,0.0,0.0,0.0,0.0,0.0,0.0,0.0,0.0,0.0,0.0,0.0,0.0,0.0,0.0,0.0,0.0,0.0,0.0,0.0,0.0,0.0,0.0,0.0,-3.9388,-3.9388,-3.9388,-3.9388,-3.9388,-3.9388,-3.9915,-4.0021,-3.946,-4.0409,0.0,0.0,0.0,0.0,0.0,0.0,0.0,0.0,0.0,0.0,0.0,0.0,0.0,0.0,0.0,0.0,0.0,0.0,0.0,0.0,0.0,0.0,0.0,0.0,0.0,0.0,0.0,0.0,0.0,0.0,0.0,0.0,0.0,0.0,0.0,0.0,0.0,0.0,0.0,0.0,0.0,0.0,0.0,0.0,0.0,0.0,0.0,0.0,0.0,0.0,0.0,0.0,0.0,0.0,0.0,0.0,0.0,0.0,0.0,0.0,0.0,0.0,0.0,0.0,0.0,0.0,0.0,0.0,0.0,0.0,0.0,0.0,0.0,0.0,0.0,0.0,0.0,0.0,0.0,0.0,0.0,0.0,0.0,0.0,0.0,0.0,0.0,0.0,0.0,0.0,0.0,0.0,0.0,0.0,0.0,0.0,0.0,0.0,0.0,0.0,0.0,0.0,-3.9388,-3.9388,-3.9388,-3.9388,-3.9388,-3.9388,-3.946,-3.9445,-3.9388,-3.9481,0.0,0.0,0.0,0.0,0.0,0.0,0.0,0.0,0.0,0.0,0.0,0.0,0.0,0.0,0.0,0.0,0.0,0.0,0.0,0.0,0.0,0.0,0.0,0.0,0.0,0.0,0.0,0.0,0.0,0.0,0.0,0.0,0.0,0.0,0.0,0.0,0.0,0.0,0.0,0.0,0.0,0.0,0.0,0.0,0.0,0.0,0.0,0.0,0.0,0.0,0.0,0.0,0.0,0.0,0.0,0.0,0.0,0.0,0.0,0.0,0.0,0.0,0.0,0.0,0.0,0.0,0.0,0.0,0.0,0.0,0.0,0.0,0.0,0.0,0.0,0.0,0.0,0.0,0.0,0.0,0.0,0.0,0.0,0.0,0.0,0.0,0.0,0.0,0.0,0.0,0.0,0.0,0.0,0.0,0.0,0.0,0.0,0.0,0.0,0.0,0.0,0.0,-3.9388,-3.9388,-3.9388,-3.9388,-3.9388,-3.9388,-3.9388,-3.9388,-3.9388,0.0,0.0,0.0,0.0,0.0,0.0,0.0,0.0,0.0,0.0,0.0,0.0,0.0,0.0,0.0,0.0,0.0,0.0,0.0,0.0,0.0,0.0,0.0,0.0,0.0,0.0,0.0,0.0,0.0,0.0,0.0,0.0,0.0,0.0,0.0,0.0,0.0,0.0,0.0,0.0,0.0,0.0,0.0,0.0,0.0,0.0,0.0,0.0,0.0,0.0,0.0,0.0,0.0,0.0,0.0,0.0,0.0,0.0,0.0,0.0,0.0,0.0,0.0,0.0,0.0,0.0,0.0,0.0,0.0,0.0,0.0,0.0,0.0,0.0,0.0,0.0,0.0,0.0,0.0,0.0,0.0,0.0,0.0,0.0,0.0,0.0,0.0,0.0,0.0,0.0,0.0,0.0,0.0,0.0,0.0,0.0,0.0,0.0,0.0,0.0,0.0,0.0,-3.9388,-3.9388,-3.9388,0.0,-3.9388,-3.9388,-3.9388,-3.9388,-3.9388,-3.9388,0.0,0.0,0.0,0.0,0.0,0.0,0.0,0.0,0.0,0.0,0.0,0.0,0.0,0.0,0.0,0.0,0.0,0.0,0.0,0.0,0.0,0.0,0.0,0.0,0.0,0.0,0.0,0.0,0.0,0.0,0.0,0.0,0.0,0.0,0.0,0.0,0.0,0.0,0.0,0.0,0.0,0.0,0.0,0.0,0.0,0.0,0.0,0.0,0.0,0.0,0.0,0.0,0.0,0.0,0.0,0.0,0.0,0.0,0.0,0.0,0.0,0.0,0.0,0.0,0.0,0.0,0.0,0.0,0.0,0.0,0.0,0.0,0.0,0.0,0.0,0.0,0.0,0.0,0.0,0.0,0.0,0.0,0.0,0.0,0.0,0.0,0.0,0.0,0.0,0.0,0.0,0.0,0.0,0.0,0.0,0.0,0.0,0.0,0.0,0.0,0.0,0.0,-3.9388,-3.9388,-3.9388,-3.9388,-3.9388,-3.9388,-3.9388,-3.9388,-3.9388,0.0,0.0,0.0,0.0,0.0,0.0,0.0,0.0,0.0,0.0,0.0,0.0,0.0,0.0,0.0,0.0,0.0,0.0,0.0,0.0,0.0,0.0,0.0,0.0,0.0,0.0,0.0,0.0,0.0,0.0,0.0,0.0,0.0,0.0,0.0,0.0,0.0,0.0,0.0,0.0,0.0,0.0,0.0,0.0,0.0,0.0,0.0,0.0,0.0,0.0,0.0,0.0,0.0,0.0,0.0,0.0,0.0,0.0,0.0,0.0,0.0,0.0,0.0,0.0,0.0,0.0,0.0,0.0,0.0,0.0,0.0,0.0,0.0,0.0,0.0,0.0,0.0,0.0,0.0,0.0,0.0,0.0,0.0,0.0,0.0,0.0,0.0,0.0,0.0,0.0,0.0,0.0,0.0,0.0,0.0,0.0,0.0,0.0,0.0,0.0,0.0,0.0,0.0,-3.9388,-3.9388,-3.9388,-3.9388,-3.9388,-3.9388,-3.9388,-3.9388,-3.9388,-3.9388,0.0,0.0,0.0,0.0,0.0,0.0,0.0,0.0,0.0,0.0,0.0,0.0,0.0,0.0,0.0,0.0,0.0,0.0,0.0,0.0,0.0,0.0,0.0,0.0,0.0,0.0,0.0,0.0,0.0,0.0,0.0,0.0,0.0,0.0,0.0,0.0,0.0,0.0,0.0,0.0,0.0,0.0,0.0,0.0,0.0,0.0,0.0,0.0,0.0,0.0,0.0,0.0,0.0,0.0,0.0,0.0,0.0,0.0,0.0,0.0,0.0,0.0,0.0,0.0,0.0,0.0,0.0,0.0,0.0,0.0,0.0,0.0,0.0,0.0,0.0,0.0,0.0,0.0,0.0,0.0,0.0,0.0,0.0,0.0,0.0,0.0,0.0,0.0,0.0,0.0,0.0,0.0,0.0,0.0,0.0,0.0,0.0,0.0,0.0,0.0,0.0,0.0,-3.9388,-3.9388,-3.9388,-3.9388,-3.9388,-3.9388,-3.9388,-3.9388,-3.9388,-3.9388,0.0,0.0,0.0,0.0,0.0,0.0,0.0,0.0,0.0,0.0,0.0,0.0,0.0,0.0,0.0,0.0,0.0,0.0,0.0,0.0,0.0,0.0,0.0,0.0,0.0,0.0,0.0,0.0,0.0,0.0,0.0,0.0,0.0,0.0,0.0,0.0,0.0,0.0,0.0,0.0,0.0,0.0,0.0,0.0,0.0,0.0,0.0,0.0,0.0,0.0,0.0,0.0,0.0,0.0,0.0,0.0,0.0,0.0,0.0,0.0,0.0,0.0,0.0,0.0,0.0,0.0,0.0,0.0,0.0,0.0,0.0,0.0,0.0,0.0,0.0,0.0,0.0,0.0,0.0,0.0,0.0,0.0,0.0,0.0,0.0,0.0,0.0,0.0,0.0,0.0,0.0,0.0,0.0,0.0,0.0,0.0,0.0,0.0,0.0,0.0,0.0,0.0,-3.9388,-3.9388,-3.9388,-3.9388,-3.9388,-3.9388,-3.9388,-3.9388,-3.9388,-3.9388,0.0,0.0,0.0,0.0,0.0,0.0,0.0,0.0,0.0,0.0,0.0,0.0,0.0,0.0,0.0,0.0,0.0,0.0,0.0,0.0,0.0,0.0,0.0,0.0,0.0,0.0,0.0,0.0,0.0,0.0,0.0,0.0,0.0,0.0,0.0,0.0,0.0,0.0,0.0,0.0,0.0,0.0,0.0,0.0,0.0,0.0,0.0,0.0,0.0,0.0,0.0,0.0,0.0,0.0,0.0,0.0,0.0,0.0,0.0,0.0,-4.811,0.0,0.0,0.0,0.0,0.0,0.0,0.0,0.0,0.0,0.0,0.0,0.0,0.0,0.0,0.0,0.0,0.0,0.0,0.0,0.0,0.0,0.0,0.0,0.0,0.0,0.0,0.0,0.0,0.0,0.0,0.0,0.0,0.0,0.0,0.0,0.0,0.0,0.0,0.0,0.0,0.0,-3.9388,-3.9388,-3.9388,-3.9388,-3.9388,-3.9388,-3.9388,-3.9388,-3.9388,-3.9388,-3.9388,0.0,0.0,0.0,0.0,0.0,0.0,0.0,0.0,0.0,0.0,0.0,0.0,0.0,0.0,0.0,0.0,0.0,0.0,0.0,0.0,0.0,0.0,0.0,0.0,0.0,0.0,0.0,0.0,0.0,0.0,0.0,0.0,0.0,0.0,0.0,0.0,0.0,0.0,0.0,0.0,0.0,0.0,0.0,0.0,0.0,0.0,0.0,0.0,0.0,0.0,0.0,0.0,0.0,0.0,0.0,0.0,0.0,0.0,0.0,0.0,-4.7687,0.0,0.0,0.0,0.0,0.0,0.0,0.0,0.0,0.0,0.0,0.0,0.0,0.0,0.0,0.0,0.0,0.0,0.0,0.0,0.0,0.0,0.0,0.0,0.0,0.0,0.0,0.0,0.0,0.0,0.0,0.0,0.0,0.0,0.0,0.0,0.0,0.0,0.0,0.0,0.0,-3.9388,-3.9388,-3.9388,-3.9388,-3.9388,-3.9388,-3.9388,-3.9388,-3.9388,-3.9388,-3.9301,0.0,0.0,0.0,0.0,0.0,0.0,0.0,0.0,0.0,0.0,0.0,0.0,0.0,0.0,0.0,0.0,0.0,0.0,0.0,0.0,0.0,0.0,0.0,0.0,0.0,0.0,0.0,0.0,0.0,0.0,0.0,0.0,0.0,0.0,0.0,0.0,0.0,0.0,0.0,0.0,0.0,0.0,0.0,0.0,0.0,0.0,0.0,0.0,0.0,0.0,0.0,0.0,0.0,-4.918,-4.8799,-4.8168,-4.803,-4.7947,-4.7902,-4.7929,-4.7439,-4.6613,-4.6501,0.0,0.0,0.0,0.0,0.0,0.0,0.0,0.0,0.0,0.0,0.0,0.0,0.0,0.0,0.0,0.0,0.0,0.0,0.0,0.0,0.0,0.0,0.0,0.0,-4.0489,-4.047,0.0,0.0,0.0,0.0,0.0,0.0,0.0,0.0,0.0,0.0,0.0,0.0,-3.9388,-3.9388,-3.9388,-3.9388,-3.9388,-3.9388,-3.9388,-3.9388,-3.9388,-3.9337,-3.9177,-3.9068,0.0,0.0,0.0,0.0,0.0,0.0,0.0,0.0,0.0,0.0,0.0,0.0,0.0,0.0,0.0,0.0,0.0,0.0,0.0,0.0,0.0,0.0,0.0,0.0,0.0,0.0,0.0,0.0,0.0,0.0,0.0,0.0,-5.1127,-5.114,0.0,0.0,0.0,0.0,0.0,0.0,0.0,0.0,0.0,0.0,0.0,0.0,0.0,-5.0654,-4.9965,-4.9946,-4.9646,-4.9038,-4.9021,-4.8695,-4.8012,-4.7945,-4.7902,-4.7881,-4.778,0.0,-4.6976,-4.6525,0.0,0.0,0.0,0.0,0.0,0.0,0.0,0.0,0.0,0.0,0.0,0.0,0.0,0.0,0.0,0.0,0.0,0.0,0.0,0.0,0.0,0.0,-4.0489,-4.0489,-4.0401,-4.0347,0.0,-4.0296,-4.0242,-4.0101,-3.9874,0.0,0.0,0.0,0.0,0.0,0.0,0.0,-3.9388,-3.9388,-3.9388,-3.9388,-3.9388,-3.9388,-3.9388,-3.9388,-3.9337,-3.9141,-3.9104,-3.9017,-3.887,-3.8664,0.0,0.0,0.0,0.0,0.0,0.0,0.0,0.0,0.0,0.0,0.0,0.0,0.0,0.0,0.0,0.0,0.0,0.0,0.0,0.0,0.0,0.0,0.0,0.0,0.0,0.0,0.0,0.0,0.0,-5.1107,-5.1101,-5.1101,-5.1095,-5.1101,0.0,0.0,0.0,0.0,0.0,0.0,0.0,0.0,0.0,-5.1817,-5.1836,-5.1661,-5.13,-5.0827,-5.027,-4.9677,-4.9144,-4.8569,-4.7927,-4.7842,-4.778,-4.778,-4.7738,-4.7428,-4.6954,-4.6406,-4.5918,-4.5407,0.0,0.0,0.0,0.0,-4.4615,-4.4542,-4.4236,-4.4105,0.0,-4.3768,0.0,0.0,0.0,0.0,0.0,0.0,0.0,0.0,0.0,0.0,-4.1458,-4.1125,-4.0972,-4.073,-4.0242,-4.0137,-4.0101,0.0,-3.9747,-3.9553,-3.9696,0.0,0.0,0.0,0.0,-3.9388,-3.9388,-3.9388,-3.9388,-3.9388,-3.9388,-3.9388,-3.9388,-3.9301,-3.9177,-3.9104,-3.8885,-3.8738,-3.8664,-3.8441,-3.8329,0.0,0.0,0.0,0.0,0.0,0.0,0.0,0.0,0.0,0.0,0.0,0.0,0.0,0.0,0.0,0.0,0.0,0.0,0.0,0.0,0.0,0.0,0.0,0.0,0.0,0.0,0.0,0.0,-5.1383,-5.146,-5.1693,-5.1656,-5.1622,0.0,0.0,0.0,0.0,0.0,0.0,-5.2794,-5.2717,-5.2635,-5.2624,-5.259,-5.2496,-5.2269,-5.1548,-5.0933,-5.0393,-4.962,-4.8952,-4.8439,-4.8137,-4.8004,-4.8007,-4.7787,-4.7472,-4.7062,-4.6382,-4.5775,-4.5267,-4.4786,-4.4615,-4.4615,-4.4615,-4.4615,-4.4615,-4.4615,-4.4615,-4.4615,-4.4615,0.0,-4.3453,-4.3453,0.0,0.0,0.0,0.0,-4.2458,-4.2458,-4.2364,-4.2158,-4.1787,-4.1409,-4.1039,-4.0597,-4.0141,-3.9854,0.0,-3.9604,-3.946,-3.9589,0.0,0.0,0.0,0.0,-3.9388,-3.9388,-3.9388,-3.9388,-3.9388,-3.9388,-3.9388,-3.9388,-3.9228,-3.9068,-3.9017,-3.8701,-3.8478,-3.8441,-3.8277,-3.8202,-3.8202,0.0,0.0,0.0,0.0,0.0,0.0,0.0,0.0,0.0,0.0,0.0,0.0,0.0,0.0,0.0,0.0,0.0,0.0,0.0,0.0,0.0,0.0,0.0,0.0,0.0,0.0,0.0,0.0,0.0,-5.3274,-5.3145,0.0,0.0,0.0,0.0,-5.2565,-5.2597,-5.2819,-5.3327,-5.3352,-5.3292,-5.3163,-5.3146,-5.2752,-5.1928,-5.1568,-5.1249,-5.0951,-5.06,-5.0271,-4.9967,-4.9184,-4.8837,-4.88,-4.8022,-4.7678,-4.7593,-4.6525,-4.5775,-4.5267,-4.4786,-4.4615,-4.4615,-4.4615,-4.4615,-4.4615,-4.4615,-4.4615,-4.4615,-4.4615,-4.4006,-4.3306,-4.3306,-4.2833,0.0,0.0,-4.2411,-4.2317,-4.2317,-4.2206,-4.2142,-4.2221,-4.1492,-4.0959,-4.1739,-4.0619,-3.9424,0.0,-3.9409,-3.9388,-3.9409,0.0,-3.9388,-3.9388,-3.9388,-3.9388,-3.9388,-3.9388,-3.9388,-3.9388,-3.9388,-3.9388,-3.9388,-3.9228,-3.9017,-3.8819,-3.8627,-3.8404,-3.8202,-3.8202,-3.8202,-3.8202,-3.8202,0.0,0.0,0.0,0.0,0.0,0.0,0.0,0.0,0.0,0.0,0.0,0.0,0.0,0.0,0.0,0.0,0.0,0.0,0.0,0.0,0.0,0.0,0.0,0.0,0.0,0.0,0.0,0.0,-5.2952,-5.2904,0.0,-5.2851,-5.308,-5.3232,-5.3167,-5.3543,-5.3846,-5.4039,-5.4042,-5.4025,-5.3958,-5.3958,-5.3808,-5.3508,-5.2881,-5.2303,-5.1745,-5.113,-5.0568,-5.0093,-4.98,-4.9673,-4.9655,-4.9365,-4.9238,-4.9141,-4.7895,-4.6962,-4.6238,-4.5372,-4.5062,-4.5008,-4.4564,-4.4412,-4.4395,-4.4298,-4.4286,-4.4286,-4.4286,-4.4138,-4.396,-4.396,-4.3785,-4.3591,-4.3634,-4.3562,-4.3459,-4.3459,-4.3355,-4.319,-4.2881,-4.2476,-4.1948,-4.1311,-4.0703,-4.02,-4.0111,-3.9717,-3.9388,-3.9388,-3.9388,-3.9388,-3.9388,-3.9388,-3.9388,-3.9388,-3.9388,-3.9388,-3.9388,-3.9388,-3.9337,-3.9228,-3.9017,-3.8833,-3.8612,-3.8441,-3.8277,-3.8202,-3.8202,-3.8202,-3.8202,-3.8202,-3.8202,0.0,0.0,0.0,0.0,0.0,0.0,0.0,0.0,0.0,0.0,0.0,0.0,0.0,0.0,0.0,0.0,0.0,0.0,0.0,0.0,0.0,0.0,0.0,0.0,0.0,0.0,-5.3207,-5.3506,-5.3454,-5.3408,-5.3408,-5.3636,-5.3795,-5.3795,-5.4169,-5.4521,-5.4803,-5.4803,-5.4953,-5.5235,-5.5235,-5.5235,-5.5235,-5.448,-5.3907,-5.3445,-5.241,-5.1706,-5.1285,-5.0764,-5.051,-5.0492,-5.022,-5.0112,-5.0035,-4.914,-4.8447,-4.7818,-4.6127,-4.5372,-4.5188,-4.4625,-4.435,-4.4224,-4.4126,-4.4097,-4.4097,-4.4056,-4.4097,-4.4184,-4.4184,-4.4184,-4.4167,-4.4224,-4.4126,-4.4027,-4.4027,-4.391,-4.3734,-4.3432,-4.3068,-4.2618,-4.1933,-4.136,-4.1003,-4.1134,-4.0193,-3.9481,-3.9717,-3.9553,-3.9388,-3.9388,-3.9388,-3.9388,-3.9388,-3.9388,-3.9388,-3.9388,-3.9337,-3.9228,-3.9104,-3.9077,-3.8884,-3.853,-3.8533,-3.8434,-3.8217,-3.8202,-3.8318,-3.8536,-3.8536,-3.8434,-3.8202,0.0,0.0,0.0,0.0,0.0,0.0,0.0,0.0,0.0,0.0,0.0,0.0,0.0,0.0,0.0,0.0,0.0,0.0,0.0,0.0,0.0,0.0,0.0,-5.3894,-5.3919,-5.4225,-5.5071,-5.4962,-5.4776,-5.4776,-5.4552,-5.4409,-5.4446,-5.4446,-5.4803,-5.5593,-5.563,-5.6025,-5.6868,-5.6887,-5.6887,-5.6887,-5.6247,-5.5902,-5.5881,-5.4428,-5.3748,-5.3675,-5.2118,-5.1393,-5.1321,-5.0565,-5.0202,-5.0184,-5.0126,-5.0108,-4.9834,-4.7009,-4.5615,-4.5177,-4.4869,-4.4502,-4.4135,-4.4135,-4.4135,-4.4135,-4.3994,-4.3964,-4.3964,-4.3964,-4.3964,-4.3994,-4.4123,-4.4065,-4.3964,-4.3964,-4.38,-4.3724,-4.3889,-4.33,-4.2916,-4.3741,-4.2713,-4.1794,-4.2457,-4.0916,-3.9742,-4.0436,-3.9975,-3.952,-3.952,-3.9484,0.0,-3.9448,-3.9448,-3.9448,-3.9448,-3.9288,-3.9149,-3.9134,-3.9341,-3.9203,-3.8522,-3.8926,-3.8884,-3.8231,-3.8202,-3.8507,-3.916,-3.9175,-3.8855,-3.8202,0.0,0.0,0.0,0.0,0.0,0.0,0.0,0.0,0.0,0.0,0.0,0.0,0.0,0.0,0.0,0.0,0.0,0.0,0.0,0.0,0.0,-5.4213,-5.4242,-5.452,-5.4394,-5.4349,-5.4591,-5.4552,-5.4522,-5.4522,-5.4441,-5.4634,-5.5218,-5.5255,-5.563,-5.6512,-5.6549,-5.6643,-5.6887,-5.6887,-5.6887,-5.6887,-5.6443,-5.6071,-5.5902,-5.5206,-5.4745,-5.4562,-5.411,-5.3585,-5.3023,-5.2806,-5.2371,-5.1792,-5.0994,-5.0667,-5.0512,-4.8748,-4.7776,-4.7264,-4.6493,-4.5833,-4.5308,-4.5308,-4.5308,-4.5324,-4.5294,-4.5338,-4.543,-4.543,-4.543,-4.543,-4.5474,-4.5369,-4.5263,-4.5263,-4.5232,-4.5202,-4.5263,-4.5092,-4.4858,-4.4622,-4.4205,-4.3959,-4.412,-4.3271,-4.2404,-4.2016,-4.1766,-4.1637,-4.1637,-4.1209,0.0,-4.0846,-4.0846,-4.0846,-4.0846,-4.0658,-4.0277,-3.9638,-3.953,-3.9165,-3.8321,-3.8414,-3.8391,-3.8217,-3.8202,-3.8289,-3.8463,-3.8478,-3.8391,0.0,0.0,0.0,0.0,0.0,0.0,0.0,0.0,0.0,0.0,0.0,0.0,0.0,0.0,0.0,0.0,0.0,0.0,0.0,0.0,0.0,0.0,-5.4409,-5.4439,-5.4613,-5.4505,-5.4409,-5.4409,-5.4409,-5.454,-5.4878,-5.4916,-5.5254,-5.608,-5.6155,-5.6512,-5.7356,-5.7394,-5.7563,-5.7882,-5.7901,-5.7901,-5.7901,-5.7392,-5.7068,-5.6897,-5.5999,-5.5498,-5.5341,-5.5051,-5.4653,-5.42,-5.42,-5.3947,-5.3452,-5.2666,-5.2372,0.0,0.0,0.0,0.0,0.0,-4.6287,-4.5798,-4.5798,-4.5798,-4.5798,-4.5798,-4.5844,-4.5937,-4.5937,-4.5937,-4.5937,-4.5937,-4.5875,-4.5798,-4.5798,-4.5798,-4.5798,-4.5798,-4.5798,-4.5687,-4.5307,-4.5243,-4.5212,-4.5177,-4.511,0.0,-4.4385,-4.3287,-4.2484,-4.2484,-4.1886,-4.1422,-4.1422,-4.1308,-4.127,-4.127,-4.1003,-4.0507,-3.973,-3.9715,0.0,0.0,0.0,-3.8492,-3.8217,-3.8463,0.0,0.0,0.0,-3.8478,-3.8202,0.0,0.0,0.0,-3.8202,-3.8202,0.0,0.0,0.0,0.0,0.0,0.0,0.0,0.0,0.0,0.0,0.0,0.0,0.0,0.0,0.0,0.0,-5.4409,-5.4409,-5.4409,-5.4409,-5.4409,-5.4409,-5.4484,-5.4822,-5.5537,-5.5687,-5.61,-5.6962,-5.7037,-5.7394,-5.8201,0.0,0.0,0.0,0.0,-5.929,-5.929,-5.8642,-5.8301,-5.8279,-5.6835,-5.6138,-5.6102,-5.5468,-5.5106,-5.5033,-5.5033,-5.4955,-5.4816,-5.4496,-5.4327,-5.3939,-5.0533,-4.8914,-4.8363,-4.7172,-4.6491,-4.6124,-4.6078,0.0,0.0,-4.6046,-4.6046,-4.6046,-4.6046,-4.6046,-4.6046,-4.6046,-4.6046,-4.6046,-4.6046,-4.6046,-4.6046,-4.6046,-4.6046,-4.6046,-4.6046,-4.6046,-4.6022,-4.5977,-4.6553,-4.7012,-4.697,-4.4658,-4.286,-4.286,-4.2151,-4.1594,-4.1594,-4.1456,-4.1302,-4.1302,0.0,0.0,-3.9783,-4.0003,-3.9668,-3.8391,-3.8797,-3.8826,-3.8217,-3.8768,-3.8812,-3.8217,-3.8783,-3.8797,-3.8202,-3.8202,-3.8202,-3.8202,-3.8202,-3.8165,0.0,0.0,0.0,0.0,0.0,0.0,0.0,0.0,0.0,0.0,0.0,0.0,0.0,0.0,0.0,-5.4409,-5.4409,-5.4409,-5.4409,-5.4409,-5.4409,-5.4409,-5.4972,-5.5424,-5.5574,-5.6249,-5.7,-5.7807,-5.7882,-5.822,-5.9027,-5.9065,-5.914,-5.929,-5.929,-5.929,-5.929,-5.8642,-5.8301,-5.8279,0.0,0.0,-5.6953,-5.6826,-5.6391,-5.5776,-5.5776,-5.5291,-5.4471,-5.42,-5.3807,-5.3284,-5.1768,-5.0589,-4.9641,-4.8646,-4.8219,-4.8094,-4.7699,-4.757,-4.757,-4.757,-4.757,-4.757,-4.757,-4.757,0.0,-4.757,-4.757,-4.757,-4.757,-4.757,-4.757,-4.757,-4.757,-4.757,-4.757,-4.757,-4.7587,-4.7539,-4.7687,-4.7786,-4.7754,-4.629,-4.507,-4.507,-4.3876,-4.2916,-4.2916,-4.2743,-4.2624,-4.2624,-4.2239,-4.1748,-4.1075,-4.0949,-4.0365,-3.9088,-3.8623,-3.8333,-3.8202,-3.8318,-3.8333,-3.8202,-3.8333,-3.8333,-3.8202,-3.8202,-3.8202,-3.8202,-3.8202,-3.781,0.0,0.0,0.0,0.0,0.0,0.0,0.0,0.0,0.0,0.0,0.0,-5.2926,-5.4165,0.0,-5.4409,-5.4409,-5.4409,-5.4409,-5.4409,-5.4409,-5.4559,-5.4953,-5.5349,-5.5931,-5.6757,-5.7244,-5.7826,-5.8652,-5.8708,-5.8877,-5.9271,-5.929,-5.929,-5.929,-5.929,-5.9215,-5.9044,-5.8558,-5.8231,-5.8051,-5.7486,-5.7188,-5.7188,-5.7188,-5.6971,-5.6591,-5.6591,-5.6223,-5.5582,-5.5143,-5.4492,-5.3699,-5.3193,-5.2305,-5.117,-5.0046,-4.9494,-4.9177,-4.8312,-4.8001,-4.8001,-4.8001,-4.8001,-4.8001,-4.8001,-4.8001,-4.8001,-4.8001,-4.8001,-4.8001,-4.8001,-4.8001,-4.8001,-4.8001,-4.8001,-4.8001,-4.8001,-4.8001,-4.8001,-4.8001,-4.8001,-4.8001,-4.8001,-4.7015,-4.6127,-4.5769,-4.4586,-4.3615,-4.3195,-4.289,-4.2688,-4.2688,-4.2433,-4.198,-4.1295,-4.0866,-4.0191,-3.9262,-3.8884,-3.8551,-3.8217,-3.8202,-3.8202,-3.8202,-3.8202,-3.8202,-3.8202,-3.8202,-3.8202,-3.8202,-3.8202,-3.7962,0.0,0.0,0.0,0.0,0.0,0.0,0.0,-5.0109,-5.0917,-5.1724,-5.2588,-5.3449,-5.424,-5.4409,-5.4409,-5.4409,-5.4409,-5.4409,-5.4409,-5.454,-5.4953,-5.5762,-5.5837,-5.6438,-5.7939,-5.8239,-5.8614,-5.9253,-5.929,-5.929,-5.929,-5.929,-5.929,-5.929,-5.929,-5.9178,-5.8888,-5.8495,-5.8164,-5.7909,-5.7412,-5.7188,-5.7188,-5.7188,-5.7188,-5.7188,-5.7105,-5.6899,-5.6564,-5.6032,-5.529,-5.4542,-5.4542,-5.3952,-5.2907,-5.1494,-5.068,-5.0109,-4.8975,-4.8431,-4.8216,-4.8216,-4.8117,-4.8001,-4.8001,-4.8001,-4.8001,-4.8001,-4.8001,-4.8001,-4.8001,-4.8001,-4.8001,-4.8001,-4.8001,-4.8001,-4.8001,-4.8001,-4.8001,-4.8001,-4.8001,-4.8001,-4.8001,-4.7454,-4.6793,-4.602,-4.4962,-4.395,-4.3339,-4.2729,-4.2392,-4.2392,-4.2201,-4.1874,-4.1337,-4.067,-4.0089,-3.9596,-3.9334,-3.8957,-3.842,-3.8275,-3.8202,-3.8202,-3.8202,-3.8202,-3.8202,-3.8202,-3.8202,-3.8202,-3.8202,-3.8127,-4.9509,-4.9509,-4.9509,-4.9509,-4.9509,-4.9509,0.0,-5.0109,-5.0917,-5.1724,-5.2588,-5.3449,-5.424,-5.4409,-5.4409,-5.4409,-5.4409,-5.4409,-5.4409,-5.5011,-5.5798,-5.6643,-5.6756,-5.7112,-5.7995,-5.8746,-5.9196,-5.929,-5.929,-5.929,-5.929,-5.929,-5.929,-5.929,-5.929,-5.9272,-5.9234,-5.8621,-5.8279,-5.8253,-5.754,-5.7188,-5.7188,-5.7188,-5.7188,-5.7163,-5.6707,-5.6282,-5.5975,-5.5666,-5.5484,-5.5385,-5.5385,-5.5285,-5.4921,-5.3006,-5.1941,-5.1429,-5.0867,-4.9925,-4.8978,-4.8978,-4.8531,-4.8001,-4.8001,-4.8001,-4.8001,-4.8001,-4.8001,-4.8001,-4.8001,-4.8001,-4.8001,-4.8001,-4.8001,-4.8001,-4.8001,-4.8001,-4.8001,-4.8001,-4.8001,-4.8001,-4.8001,-4.7935,-4.7605,-4.6793,-4.5264,-4.4182,-4.4066,-4.3076,-4.2392,-4.2392,-4.2201,-4.2063,-4.199,-4.1366,-4.096,-4.0887,-3.9828,-3.9175,-3.9088,-3.8522,-3.8202,-3.8202,-3.8202,-3.8202,-3.8202,-3.8202,-3.8202,-3.8202,-3.8202,-3.781,-4.9509,-4.9509,-4.9509,-4.9509,-4.9509,-4.9509,-4.9509,-5.0485,-5.148,-5.1837,-5.2963,-5.3996,-5.4334,-5.4409,-5.4409,0.0,-5.4409,-5.4409,-5.4409,-5.5086,-5.5912,-5.6793,-5.7319,-5.792,-5.8727,-5.9102,-5.929,-5.929,-5.929,-5.929,-5.929,-5.929,-5.929,-5.929,-5.929,-5.9102,-5.8725,-5.8431,-5.8078,-5.766,-5.7338,-5.7188,-5.7188,-5.7188,-5.7112,-5.6951,-5.6573,-5.6217,-5.589,-5.5607,-5.5507,-5.5507,-5.5507,-5.5507,-5.5308,-5.3726,-5.2991,-5.2647,-5.1432,-5.064,-5.0075,-4.9343,-4.8895,-4.8564,-4.8133,-4.8001,-4.8001,-4.8001,-4.8001,-4.8001,-4.8001,-4.8001,-4.8001,-4.8001,-4.8001,-4.8001,-4.8001,-4.8001,-4.8001,-4.8001,-4.8001,-4.8001,-4.8001,-4.782,-4.7521,-4.7186,-4.5742,-4.4426,-4.3741,-4.2809,-4.2242,-4.2242,-4.2133,-4.2092,-4.2092,-4.1845,-4.1512,-4.112,-4.0234,-3.9567,-3.9218,-3.8565,-3.8202,-3.8202,-3.8202,-3.8202,-3.8202,-3.8202,-3.8202,-3.8202,-3.8202,-3.8,-4.9509,-4.9509,-4.9509,-4.9509,-4.9509,-4.9509,-4.9509,-5.0748,-5.1912,-5.1912,-5.3226,-5.4409,-5.4409,-5.4409,-5.4409,-5.4409,-5.4409,-5.4409,-5.4409,-5.531,-5.6192,-5.6812,-5.7807,-5.8671,-5.9234,-5.929,-5.929,-5.929,-5.929,-5.929,-5.929,-5.929,-5.929,-5.929,-5.9215,-5.8926,-5.8452,-5.8257,-5.7895,-5.7363,-5.7239,-5.7188,-5.7188,-5.7188,-5.7036,-5.6794,-5.6519,-5.6217,-5.589,-5.5607,-5.5507,-5.5507,-5.5507,-5.5507,-5.5378,-5.4468,-5.4031,-5.37,-5.2303,-5.1559,-5.1109,-5.0059,-4.9442,-4.9011,-4.8481,-4.8166,-4.8001,-4.8001,-4.8001,-4.8001,-4.8001,-4.8001,-4.8001,-4.8001,-4.8001,-4.8001,-4.8001,-4.8001,-4.8001,-4.8001,-4.8001,-4.8001,-4.8001,-4.7671,-4.7371,-4.7286,-4.6044,-4.4734,-4.3765,-4.2729,-4.2092,-4.2092,-4.2092,-4.2092,-4.2092,-4.2092,-4.1889,-4.141,-4.0742,-4.0104,-3.9465,-3.8826,-3.8391,-3.8202,-3.8202,-3.8202,-3.8202,-3.8202,-3.8202,-3.8202,-3.8202,-3.8202,-4.9509,-4.9509,-4.9509,-4.9509,-4.9509,-4.9509,-4.9509,-5.0748,-5.1912,-5.1912,-5.3226,-5.4409,-5.4409,-5.4409,-5.4409,-5.4409,-5.4409,-5.4409,-5.4409,-5.5817,-5.6868,-5.6887,-5.8295,-5.9271,0.0,-5.929,-5.929,-5.929,-5.929,-5.929,-5.929,-5.929,-5.929,-5.929,-5.8985,-5.8808,-5.8788,-5.8146,-5.7792,-5.7768,-5.7406,-5.7188,-5.7188,-5.7188,-5.7036,-5.6794,-5.6519,-5.6217,-5.589,-5.5607,-5.5507,-5.5507,-5.5507,-5.5507,-5.5507,-5.546,-5.5109,-5.4565,-5.4023,-5.299,-5.19,-5.1389,-5.0253,-4.911,-4.9077,-4.858,-4.8001,-4.8001,-4.8001,-4.8001,-4.8001,-4.8001,-4.8001,-4.8001,-4.8001,-4.8001,-4.8001,-4.8001,-4.8001,-4.8001,-4.8001,-4.8001,-4.8001,-4.7671,-4.7286,-4.6945,-4.6036,-4.5169,-4.454,-4.3101,-4.2092,-4.2092,-4.2092,-4.2092,-4.2092,-4.2092,-4.2092,-4.2063,-4.1439,-4.0771,-4.0104,-3.9494,-3.887,-3.8217,-3.8202,-3.8202,-3.8202,-3.8202,-3.8202,-3.8202,-3.8202,-3.8202,-4.9443,-4.9509,-4.9509,-4.9509,-4.9509,-4.964,-5.0166,-5.1123,-5.2062,-5.2625,-5.3639,-5.4409,-5.4409,-5.4409,-5.4409,-5.4409,-5.4409,-5.4409,-5.4409,-5.5836,-5.6887,-5.6887,-5.8314,0.0,0.0,0.0,0.0,-5.929,-5.929,-5.929,-5.929,-5.929,-5.9197,-5.8985,-5.8848,-5.8582,-5.8146,-5.7914,-5.7673,-5.7388,-5.7264,-5.7188,-5.7188,-5.7188,-5.6951,-5.6519,-5.6455,-5.6106,-5.5637,-5.5537,-5.5507,-5.5507,-5.5507,-5.5507,-5.5507,-5.5507,-5.5389,-5.5144,-5.4617,-5.3903,-5.3091,-5.2102,-5.0893,-4.9756,-4.926,-4.858,-4.8001,-4.8001,-4.8001,-4.8001,-4.8001,-4.8001,-4.8001,-4.8001,-4.8001,-4.8001,-4.8001,-4.8001,-4.8001,-4.8001,-4.8001,-4.7935,-4.7638,-4.732,-4.6705,-4.566,-4.4887,-4.4167,-4.3585,-4.2688,-4.2092,-4.2092,-4.2092,-4.2092,-4.2092,-4.2092,-4.2092,-4.2092,-4.1468,-4.08,-4.0118,-3.9523,-3.8884,-3.8217,-3.8202,-3.8202,-3.8202,-3.8202,-3.8202,-3.8202,-3.8202,-3.8202,-4.9113,-4.9181,-4.9197,-4.9313,-4.9311,-4.9567,-5.0488,-5.1311,-5.2156,-5.3017,-5.3827,-5.4409,-5.4409,-5.4285,-5.4251,-5.4373,-5.4304,-5.4251,-5.4373,-5.5836,-5.6887,-5.6887,-5.8314,-5.929,0.0,0.0,0.0,-5.929,-5.929,-5.929,-5.929,-5.929,-5.9159,-5.8808,-5.8686,-5.8366,-5.7792,-5.7649,-5.7455,-5.7188,-5.7188,-5.7188,-5.7206,-5.7105,-5.6873,-5.6519,-5.6328,-5.5993,-5.5637,-5.5537,-5.5507,-5.5507,-5.5507,-5.5507,-5.5507,-5.5507,-5.5507,-5.5419,-5.4679,-5.4188,-5.3696,-5.2539,-5.1276,-5.0121,-4.9657,-4.8796,-4.8001,-4.8001,-4.8001,-4.8001,-4.8001,-4.8001,-4.8001,-4.8001,-4.8001,-4.8001,-4.8001,-4.8001,-4.8001,-4.8001,-4.7886,-4.7704,-4.7438,-4.6997,-4.6337,-4.5326,-4.4601,-4.3912,-4.3101,-4.2648,-4.2366,-4.2133,-4.2092,-4.2092,-4.2092,-4.2092,-4.2092,-4.2092,-4.1468,-4.08,-4.0118,-3.9523,-3.8884,-3.8217,-3.8202,-3.8202,-3.8202,-3.8202,-3.8202,-3.8202,-3.8202,-3.8202,-4.8587,-4.8605,-4.866,-4.8906,-4.8974,-4.9266,-5.0445,-5.1316,-5.2107,-5.3024,-5.383,-5.4356,0.0,0.0,-5.3981,-5.4321,-5.409,-5.3981,-5.4339,-5.5801,-5.6851,0.0,0.0,0.0,0.0,0.0,0.0,-5.9272,0.0,-5.929,-5.929,-5.9272,-5.9121,-5.8788,-5.8452,-5.8119,-5.7768,-5.7388,-5.7188,-5.7188,-5.7188,-5.7188,-5.7188,-5.6951,-5.6821,-5.6768,-5.6182,-5.5918,-5.589,-5.5607,-5.5507,-5.5507,-5.5507,-5.5507,-5.5507,-5.5507,-5.5507,-5.5341,-5.4299,-5.3912,-5.3748,-5.2799,-5.1431,-5.022,-5.022,-4.9177,-4.8001,-4.8001,-4.8001,-4.8001,-4.8001,-4.8001,-4.8001,-4.8001,-4.8001,-4.8001,-4.8001,-4.8001,-4.8001,-4.8001,-4.7671,-4.7371,-4.7371,-4.674,-4.6175,-4.5844,-4.5231,-4.4396,-4.322,-4.3036,-4.2769,-4.2175,-4.2092,-4.2092,-4.2092,-4.2092,-4.2092,-4.2092,-4.1468,-4.08,-4.0118,-3.9523,-3.8884,-3.8217,-3.8202,-3.8202,-3.8202,-3.8202,-3.8202,-3.8202,-3.8202,-3.8202,-4.8532,-4.8605,-4.8623,-4.8678,-4.8695,-4.9084,-5.0583,-5.1083,-5.164,-5.3049,-5.3513,-5.3643,-5.3643,0.0,0.0,-5.3963,-5.3757,0.0,-5.3981,-5.5265,0.0,-5.65,0.0,-5.9024,-5.9272,-5.929,0.0,0.0,-5.9159,-5.929,-5.929,-5.9063,-5.8767,-5.8452,-5.8119,-5.7726,-5.7356,-5.7239,-5.7188,-5.7188,-5.7188,-5.7188,-5.7206,-5.713,-5.7003,-5.6768,-5.6437,-5.6116,-5.589,-5.5607,-5.5507,-5.5507,-5.5507,-5.5507,-5.5507,-5.5507,-5.5507,-5.5401,-5.4741,-5.4235,-5.3847,-5.36,-5.2017,-5.022,-5.022,-4.9177,-4.8001,-4.8001,-4.8001,-4.8001,-4.8001,-4.8001,-4.8001,-4.8001,-4.8001,-4.8001,-4.8001,-4.8001,-4.8001,-4.8001,-4.7471,-4.7014,-4.7014,-4.6404,-4.59,-4.5807,-4.5231,-4.451,-4.3771,-4.326,-4.2769,-4.2175,-4.2092,-4.2092,-4.2092,-4.2092,-4.2092,-4.2092,-4.1468,-4.08,-4.0118,-3.9523,-3.8884,-3.8217,-3.8202,-3.8202,-3.8202,-3.8202,-3.8202,-3.8202,-3.8202,-3.8202,-4.8571,-4.8466,-4.8321,-4.8786,-4.864,-4.8825,-5.0599,-5.0987,-5.1468,-5.3074,-5.3407,-5.3407,-5.3407,-5.3304,0.0,0.0,0.0,0.0,-5.3642,-5.497,-5.5965,0.0,-5.7598,0.0,-5.8847,-5.8867,-5.8767,0.0,-5.8888,-5.9024,-5.8867,-5.8665,-5.8431,-5.8097,-5.7909,-5.7601,-5.7188,-5.7188,-5.7188,-5.7188,-5.7188,-5.7188,-5.7206,-5.7079,-5.6873,-5.66,0.0,-5.6021,-5.5706,-5.5549,-5.5507,-5.5507,-5.5507,-5.5507,-5.5507,-5.5507,-5.5507,-5.5448,-5.5144,-5.471,-5.4171,-5.3715,-5.2017,-5.022,-5.022,-4.9177,-4.8001,-4.8001,-4.8001,-4.8001,-4.8001,-4.8001,-4.8001,-4.8001,-4.8001,-4.8001,-4.8001,-4.8001,-4.7902,-4.7588,-4.7201,-4.6789,-4.6474,-4.608,-4.5807,-4.5807,-4.5231,-4.4586,-4.3966,-4.3379,-4.2769,-4.2175,-4.2092,-4.2092,-4.2092,-4.2092,-4.1976,-4.1671,-4.1033,-4.0365,-3.9726,-3.9102,-3.858,-3.8217,-3.8202,-3.8202,-3.8202,-3.8202,-3.8202,-3.8202,-3.8202,-3.8202,-4.871,-4.8384,-4.8088,-4.8995,-4.8638,-4.8535,-5.0444,-5.0871,-5.1331,-5.2933,-5.3265,-5.3265,-5.3265,-5.3091,-5.3023,-5.3304,0.0,-5.3045,-5.3304,-5.4744,-5.5776,-5.5818,-5.7257,-5.8235,-5.8297,-5.8301,-5.8279,-5.8253,-5.8498,-5.8561,-5.8301,-5.8275,-5.8074,-5.7721,-5.7721,-5.7553,-5.7188,-5.7188,-5.7188,-5.7188,-5.7188,-5.7188,-5.7188,-5.6925,-5.6662,-5.6437,-5.606,0.0,-5.5566,-5.5507,-5.5507,-5.5507,-5.5507,-5.5507,-5.5507,-5.5507,-5.5437,-5.5349,-5.5349,-5.4917,-5.4261,-5.3363,-5.1798,-5.0289,-5.0104,-4.9094,-4.8001,-4.8001,-4.8001,-4.8001,-4.8001,-4.8001,-4.8001,-4.8001,-4.8001,-4.8001,-4.8001,-4.8001,-4.7803,-4.7082,-4.6911,-4.6684,-4.5972,-4.5844,-4.5807,-4.5807,-4.5231,-4.4586,-4.3966,-4.3379,-4.2769,-4.2175,-4.2092,-4.2092,-4.2092,-4.202,-4.1715,-4.1134,-4.0394,-3.9755,-3.9218,-3.8565,-3.8202,-3.8202,-3.8202,-3.8202,-3.8202,-3.8202,-3.8202,-3.8202,-3.8202,-3.8202,-4.8855,-4.88,-4.8731,-4.8922,-4.8363,-4.8221,-4.9883,-5.0268,0.0,-5.2318,-5.2667,-5.2667,-5.2667,-5.2618,-5.2708,-5.3023,-5.2802,-5.2708,-5.3023,-5.4232,-5.5184,0.0,-5.6919,-5.7983,-5.8257,-5.8301,0.0,0.0,0.0,-5.8074,-5.8279,-5.8029,-5.7721,-5.7332,-5.7289,-5.7264,-5.7188,-5.7188,-5.7188,-5.7188,-5.7188,-5.7188,-5.7188,-5.6925,-5.6768,-5.6689,-5.6126,0.0,-5.5804,-5.5578,-5.5507,-5.5507,-5.5507,-5.5507,-5.5507,-5.5507,-5.5086,-5.4507,-5.4507,-5.3748,-5.2818,-5.2831,-5.1942,-5.0675,-4.9609,-4.8696,-4.8001,-4.8001,-4.8001,-4.8001,-4.8001,-4.8001,-4.8001,-4.8001,-4.8001,-4.8001,-4.8001,-4.8001,-4.7853,-4.7387,-4.7082,-4.6738,-4.6301,-4.5992,-4.5807,-4.5807,-4.5231,-4.4586,-4.3966,-4.3379,-4.2769,-4.2175,-4.2092,-4.2092,-4.2092,-4.1584,-4.1221,-4.1105,-4.0002,-3.9305,-3.9204,-3.8565,-3.8202,-3.8202,-3.8202,-3.8202,-3.8202,-3.8202,-3.8202,-3.8202,-3.8202,-3.8202,-4.9293,-4.8912,-4.8475,-4.9329,-4.8605,-4.8134,-4.9749,0.0,0.0,-5.2172,-5.2498,-5.2498,-5.2498,-5.2498,0.0,-5.2708,-5.2595,-5.2567,-5.2731,-5.3629,0.0,-5.506,-5.6157,-5.7103,0.0,-5.7732,-5.766,0.0,0.0,-5.7559,-5.7708,-5.7583,-5.7388,-5.7206,-5.7188,-5.7188,-5.7188,-5.7188,-5.7188,-5.7188,-5.7188,-5.7188,-5.7188,-5.6925,-5.6715,-5.6573,-5.6116,0.0,-5.5695,-5.5566,-5.5507,-5.5507,-5.5507,-5.5507,-5.5455,-5.5033,-5.4647,-5.4261,-5.3857,-5.3328,-5.2736,-5.2192,-5.1259,-5.0204,-4.936,-4.858,-4.8001,-4.8001,-4.8001,-4.8001,-4.8001,-4.8001,-4.8001,-4.8001,-4.8001,-4.8001,-4.8001,-4.8001,-4.782,-4.7252,-4.7014,-4.6719,-4.6156,-4.59,-4.5807,-4.5807,-4.4971,-4.422,-4.3927,-4.3076,-4.2433,-4.2133,-4.2092,-4.1961,-4.1613,-4.1279,-4.0815,-4.0147,-3.9538,-3.9044,-3.8696,-3.8376,-3.8202,-3.8202,-3.8202,-3.8202,-3.8202,-3.8202,-3.8202,-3.8202,-3.8202,-3.8202,-4.9492,-4.8931,-4.8261,-4.9528,-4.8768,-4.8134,-4.9749,-5.0112,0.0,-5.2172,-5.2498,-5.2498,-5.2498,0.0,-5.2498,0.0,-5.2498,-5.2498,-5.2498,-5.3186,-5.4001,0.0,-5.554,0.0,-5.7116,-5.7188,0.0,0.0,0.0,0.0,-5.7188,-5.7188,-5.7188,-5.7188,-5.7188,-5.7188,-5.7188,-5.7188,-5.7188,-5.7188,-5.7188,-5.7188,-5.7206,-5.6873,-5.66,-5.6373,-5.5975,0.0,0.0,-5.5244,-5.5156,-5.5016,-5.5016,-5.5016,-5.4928,-5.4296,-5.3963,-5.3734,-5.3138,-5.2822,-5.2509,-5.1304,-5.0458,-4.986,-4.9226,-4.8547,-4.8001,-4.8001,-4.8001,-4.8001,-4.8001,-4.8001,-4.8001,-4.8001,-4.8001,-4.8001,-4.8001,-4.7935,-4.7688,-4.703,-4.6842,-4.658,-4.59,-4.5807,-4.5807,-4.5807,-4.4713,-4.3868,-4.3714,-4.2644,-4.1834,-4.1671,-4.1802,-4.1613,-4.0945,-4.0771,-4.0263,-3.9262,-3.9073,-3.8754,-3.8217,-3.8202,-3.8202,-3.8202,-3.8202,-3.8202,-3.8202,-3.8202,-3.8202,-3.8202,-3.8202,-3.8202,-4.8963,-4.8891,-4.8818,-4.8963,-4.8348,-4.8134,-4.9749,0.0,-5.0565,-5.2172,-5.2498,-5.2498,-5.2498,-5.2498,-5.2498,-5.2498,0.0,-5.2498,0.0,0.0,-5.4001,-5.4798,0.0,0.0,0.0,0.0,0.0,0.0,0.0,0.0,-5.7188,-5.7188,-5.7188,-5.7188,-5.7188,-5.7188,-5.7188,-5.7188,-5.7188,-5.7188,-5.7188,-5.7188,-5.7163,-5.6662,-5.641,-5.6373,-5.5782,0.0,0.0,-5.4419,-5.4015,-5.3429,-5.3429,-5.3429,-5.3383,-5.3341,-5.2839,-5.2179,-5.2137,-5.1681,-5.093,-4.9911,-5.0,-5.0291,-4.9116,-4.8374,-4.8001,-4.8001,-4.8001,-4.8001,-4.8001,-4.8001,-4.8001,-4.8001,-4.8001,-4.8001,-4.8001,-4.7704,-4.7354,-4.6979,-4.6617,-4.6246,-4.5864,-4.5807,-4.5807,-4.5807,-4.4731,-4.3685,-4.3145,-4.1985,-4.0958,-4.0357,-4.0829,-4.0916,-4.0249,-3.9697,-3.932,-3.9218,-3.8638,-3.826,-3.8202,-3.8202,-3.8202,-3.8202,-3.8202,-3.8202,-3.8202,-3.8202,-3.8202,-3.8202,-3.8202,-3.8202,-4.8764,-4.8547,-4.8275,-4.8764,-4.8294,-4.8134,-4.9749,0.0,-5.0565,-5.2172,-5.2498,-5.2498,-5.2498,-5.2498,-5.2498,0.0,0.0,0.0,-5.2498,0.0,0.0,0.0,0.0,0.0,0.0,0.0,0.0,0.0,0.0,0.0,-5.7188,-5.7188,-5.7188,-5.7188,-5.7188,-5.6971,-5.6482,-5.6482,-5.6247,-5.583,-5.583,-5.5738,-5.5545,-5.5141,-5.4875,-5.4703,-5.4303,0.0,0.0,-5.3629,-5.3454,-5.3201,-5.3201,-5.3201,-5.3148,-5.2646,-5.2277,-5.1934,-5.1487,-5.1136,-5.0792,-5.0062,-4.9862,-4.9678,-4.8599,-4.8147,-4.8001,-4.8001,-4.8001,-4.8001,-4.8001,-4.8001,-4.8001,-4.8001,-4.8001,-4.8001,-4.8001,-4.7671,-4.7303,-4.6961,-4.6582,-4.6195,-4.588,-4.5444,-4.5144,-4.5144,-4.3759,-4.2615,-4.2377,-4.1245,-4.0271,-3.9634,-4.0118,-4.0234,-3.961,-3.9334,-3.903,-3.8623,-3.8347,-3.8202,-3.8202,-3.8202,-3.8202,-3.8202,-3.8202,-3.8202,-3.8202,-3.8202,-3.8202,-3.8202,-3.8202,-3.8202,-4.8384,-4.8113,-4.7823,-4.8384,-4.8134,-4.8061,0.0,0.0,-5.0492,-5.1846,-5.2317,-5.2498,-5.2498,-5.2498,-5.2498,0.0,0.0,-5.2498,-5.2498,0.0,0.0,0.0,0.0,-5.4925,0.0,0.0,0.0,0.0,0.0,0.0,-5.6844,-5.6645,-5.6609,-5.6826,-5.6627,-5.6247,-5.5667,-5.5667,-5.5414,-5.4907,-5.4834,-5.4668,-5.4493,-5.4062,-5.3771,-5.3572,-5.3313,0.0,0.0,-5.2839,-5.2699,-5.2534,-5.2534,-5.2534,-5.2435,-5.1891,-5.1681,-5.161,-5.1066,-5.0891,-5.0819,-5.0261,-4.9786,-4.9269,-4.8452,-4.8115,-4.8001,-4.8001,-4.8001,-4.8001,-4.8001,-4.8001,-4.8001,-4.8001,-4.8001,-4.8001,-4.8001,-4.7605,-4.7184,-4.6961,-4.6317,-4.575,-4.5512,-4.4891,-4.4417,-4.4401,-4.2957,-4.1824,-4.1641,-4.0545,-3.9571,-3.8995,-3.9276,-3.9363,-3.8942,-3.8899,-3.8696,-3.8231,-3.8202,-3.8202,-3.8202,-3.8202,-3.8202,-3.8202,-3.8202,-3.8202,-3.8202,-3.8202,-3.8202,-3.8202,-3.8202,-3.8202,-4.7717,-4.7717,-4.7717,-4.7717,-4.7717,-4.7895,0.0,0.0,-5.0347,-5.114,-5.1937,-5.2498,-5.2498,-5.2498,-5.2498,-5.2498,0.0,0.0,-5.2498,0.0,0.0,0.0,0.0,0.0,0.0,0.0,0.0,0.0,0.0,0.0,-5.6011,-5.5323,-5.5269,-5.5975,-5.5305,-5.4925,-5.4907,-5.4907,-5.4907,-5.4907,-5.4618,-5.4518,-5.4493,-5.3887,-5.3599,0.0,0.0,0.0,0.0,-5.2004,-5.1593,-5.0908,-5.0908,-5.0908,-5.0908,-5.0908,-5.0908,-5.0908,-5.0891,-5.0891,-5.0819,-5.0261,-4.9786,-4.9312,-4.8827,-4.8356,-4.8001,-4.8001,-4.8001,-4.8001,-4.8001,-4.8001,-4.8001,-4.8001,-4.8001,-4.8001,-4.8001,-4.7404,-4.6911,-4.6876,-4.5722,-4.4717,-4.4717,-4.4129,-4.3722,-4.3725,-4.261,-4.1599,-4.106,-3.9886,-3.89,-3.8292,-3.8217,-3.8217,-3.8217,-3.8217,-3.8217,-3.8202,-3.8202,-3.8202,-3.8202,-3.8202,-3.8202,-3.8202,-3.8202,-3.8202,-3.8202,-3.8202,-3.8202,-3.8202,-3.8202,-3.8202,-4.7717,-4.7717,-4.7717,-4.7717,-4.7717,-4.7895,-4.871,0.0,0.0,-5.1013,-5.1484,-5.1846,-5.2389,-5.2498,-5.2498,-5.2498,0.0,0.0,0.0,0.0,0.0,0.0,0.0,0.0,0.0,0.0,0.0,0.0,0.0,0.0,-5.5287,-5.4508,-5.4436,-5.5214,-5.5015,-5.4653,-5.4092,-5.4092,-5.3707,-5.2979,-5.2906,-5.2684,-5.2311,-5.2129,-5.1918,0.0,0.0,0.0,0.0,-5.1242,-5.1101,-5.0891,-5.0891,-5.0891,-5.0891,-5.0891,-5.0891,-5.0891,-5.0891,-5.0891,-5.0764,-4.989,-4.9521,-4.9252,-4.8467,-4.8115,-4.8001,-4.8001,-4.8001,-4.8001,-4.8001,-4.8001,-4.8001,-4.8001,-4.8001,-4.8001,-4.8001,-4.721,-4.6435,-4.6181,-4.5158,-4.4283,-4.4072,-4.3469,-4.3011,-4.3045,-4.1596,-4.0436,-4.0259,-3.923,-3.8427,-3.8202,-3.8202,-3.8202,-3.8202,-3.8202,-3.8202,-3.8202,-3.8202,-3.8202,-3.8202,-3.8202,-3.8202,-3.8202,-3.8202,-3.8202,-3.8202,-3.8202,-3.8202,-3.8202,-3.8202,-3.8202,0.0,-4.7717,-4.7717,-4.7717,-4.7717,0.0,0.0,0.0,0.0,0.0,0.0,0.0,-5.1937,-5.2299,-5.2498,-5.2498,0.0,0.0,0.0,0.0,0.0,-5.2498,0.0,0.0,0.0,0.0,0.0,0.0,0.0,0.0,-5.449,-5.3675,-5.3476,-5.3983,-5.4001,-5.3748,-5.3241,-5.3146,-5.2756,-5.2102,-5.1889,-5.1615,-5.1298,-5.1193,-5.1061,0.0,0.0,0.0,0.0,-5.0891,-5.0891,-5.0891,-5.0891,-5.0891,-5.0891,-5.0891,-5.0891,-5.0891,-5.0891,-5.0891,-5.0764,-4.9919,-4.9432,-4.8995,-4.8244,-4.8001,-4.8001,-4.8001,-4.8001,-4.8001,-4.8001,-4.8001,-4.8001,-4.8001,-4.7785,-4.7587,-4.7587,-4.6602,-4.5668,-4.5452,-4.4452,-4.3584,-4.3361,-4.2742,-4.2268,-4.2268,-4.1115,-4.015,-3.994,-3.9096,-3.8464,-3.824,-3.8202,-3.8202,-3.8202,-3.8202,-3.8202,-3.8202,-3.8202,-3.8202,-3.8202,-3.8202,-3.8202,-3.8202,-3.8202,-3.8202,-3.8202,-3.8202,-3.8202,-3.8202,-3.8202,-3.8202,0.0,-4.7657,-4.7717,0.0,0.0,0.0,0.0,0.0,0.0,0.0,0.0,0.0,0.0,0.0,0.0,0.0,0.0,0.0,0.0,-5.2498,0.0,0.0,-5.382,0.0,0.0,0.0,0.0,0.0,0.0,0.0,-5.3657,-5.2915,-5.2498,-5.2498,-5.2498,-5.2498,-5.2498,-5.2246,-5.2126,-5.2078,-5.1589,-5.1324,-5.1255,-5.1034,-5.0918,0.0,0.0,0.0,0.0,-5.1031,-5.1013,-5.0978,-5.0978,-5.0943,-5.0891,-5.0891,-5.0891,-5.0891,-5.0891,-5.0891,-5.0819,-5.025,-4.9432,-4.8608,-4.8147,-4.8001,-4.8001,-4.8001,-4.8001,-4.8001,-4.8001,-4.7968,-4.7918,-4.7918,-4.7355,-4.6825,-4.6825,-4.5766,-4.4772,-4.4739,-4.3613,-4.2683,-4.2649,-4.2047,-4.1588,-4.1588,-4.1122,-4.0528,-3.9975,-3.94,-3.8797,-3.8277,-3.8202,-3.8202,-3.8202,-3.8202,-3.8202,-3.8202,-3.8202,-3.8202,-3.8202,-3.8202,-3.8202,-3.8202,-3.8202,-3.8202,-3.8202,-3.8202,-3.8202,-3.8202,-3.8202,-3.8202,-4.6994,0.0,-4.7717,-4.7717,-4.7717,-4.7717,0.0,0.0,0.0,0.0,0.0,0.0,0.0,0.0,0.0,0.0,0.0,0.0,-5.2408,0.0,0.0,-5.2498,-5.2824,0.0,0.0,0.0,0.0,0.0,0.0,-5.4291,-5.286,-5.2589,-5.2498,-5.2498,-5.2498,-5.2498,-5.2498,-5.2452,-5.2198,-5.179,-5.1864,-5.1589,-5.0998,-5.1141,-5.1088,0.0,0.0,0.0,-5.1803,-5.24,-5.2295,-5.1751,-5.1751,-5.14,-5.0891,-5.0891,-5.0891,-5.0891,-5.0891,-5.0891,-5.0764,-4.9861,-4.9178,-4.8608,-4.8147,-4.8001,-4.8001,-4.8001,-4.8001,-4.8001,-4.8001,-4.7587,-4.7156,-4.7156,-4.6593,-4.6046,-4.6046,-4.5342,-4.4565,-4.4058,-4.325,-4.2478,-4.1941,-4.1699,-4.1588,-4.1588,-4.0752,-4.0045,-3.994,-3.9023,-3.8352,-3.8202,-3.8202,-3.8202,-3.8202,-3.8202,-3.8202,-3.8202,-3.8202,-3.8202,-3.8202,-3.8202,-3.8202,-3.8202,-3.8202,-3.8202,-3.8202,-3.8202,-3.8202,-3.8202,-3.8202,-3.8202,-4.6454,-4.6931,-4.7385,-4.7636,-4.7511,-4.7323,-4.7323,0.0,0.0,0.0,0.0,0.0,0.0,0.0,0.0,0.0,-5.045,0.0,0.0,0.0,-5.2186,-5.2475,0.0,0.0,0.0,0.0,0.0,0.0,0.0,-5.4363,-5.3114,-5.2697,-5.2498,-5.2498,-5.2498,-5.2452,-5.2317,-5.2198,-5.1914,-5.1513,-5.1538,-5.1501,-5.14,-5.1563,-5.1756,0.0,0.0,0.0,-5.2049,-5.247,-5.219,-5.1505,-5.1505,-5.1242,-5.0891,-5.0891,-5.0891,-5.0891,-5.0891,-5.0719,-5.0436,-4.989,-4.9269,-4.8589,-4.8002,-4.7664,-4.757,-4.7901,-4.7752,-4.7504,-4.7504,-4.6941,-4.6394,-4.6394,-4.5814,-4.5284,-4.5284,-4.4474,-4.367,-4.3468,-4.2734,-4.2077,-4.1883,-4.1687,-4.1522,-4.1256,-4.0478,-3.9799,-3.9565,-3.8745,-3.8202,-3.8202,-3.8202,-3.8202,-3.8202,-3.8202,-3.8202,-3.8202,-3.8202,-3.8202,-3.8202,-3.8202,-3.8202,-3.8202,-3.8202,-3.8202,-3.8202,-3.8202,-3.8202,-3.8202,-3.8202,-3.8202,-4.5968,-4.631,-4.6776,-4.7302,-4.7107,-4.6776,-4.6776,0.0,0.0,0.0,0.0,0.0,0.0,-4.7668,0.0,0.0,0.0,0.0,-5.13,-5.1457,-5.1651,-5.2162,0.0,0.0,0.0,0.0,0.0,0.0,0.0,-5.4265,-5.3471,-5.2786,-5.2354,-5.2228,-5.2233,-5.2138,-5.1945,-5.1864,-5.169,-5.141,-5.1246,-5.1396,-5.1894,-5.1948,-5.2273,-5.2867,0.0,0.0,-5.2032,-5.2137,-5.1751,-5.1066,-5.1066,-5.0996,-5.0891,-5.0891,-5.0891,-5.0891,-5.0891,-5.0564,-5.0056,-4.9878,-4.9231,-4.8399,-4.7581,-4.7039,-4.6858,-4.7487,-4.7206,-4.6725,-4.6725,-4.6179,-4.5616,-4.5616,-4.5052,-4.4522,-4.4522,-4.3584,-4.282,-4.2974,-4.2349,-4.1818,-4.198,-4.1785,-4.1423,-4.0901,-4.027,-3.9707,-3.9177,-3.8575,-3.8202,-3.8202,-3.8202,-3.8202,-3.8202,-3.8202,-3.8202,-3.8202,-3.8202,-3.8202,-3.8202,-3.8202,-3.8202,-3.8202,-3.8202,-3.8202,-3.8202,-3.8202,-3.8202,-3.8202,-3.8202,-3.8202,-4.532,-4.5468,-4.5673,-4.6213,-4.6286,-4.622,-4.622,0.0,0.0,0.0,0.0,0.0,0.0,-4.6379,-4.6727,0.0,0.0,-4.989,0.0,0.0,-5.0858,0.0,0.0,0.0,0.0,0.0,0.0,0.0,0.0,-5.2966,-5.2225,-5.2067,-5.1679,-5.0999,-5.0964,-5.1105,-5.1357,-5.2018,-5.2246,-5.1963,-5.2174,-5.1961,-5.1423,-5.1639,-5.1555,-5.1277,0.0,-5.2119,-5.2067,-5.2734,-5.2541,-5.1839,-5.1839,-5.1452,-5.0891,-5.0891,-5.0891,-5.0891,-5.0891,-5.0564,-4.9941,-4.8913,-4.8209,-4.7564,-4.6412,-4.6026,-4.598,-4.6096,-4.6046,-4.5963,-4.5963,-4.5417,-4.4854,-4.4854,-4.4307,-4.3764,-4.3764,-4.3605,-4.3295,-4.2772,-4.2539,-4.227,-4.1753,-4.1621,-4.1423,-4.0901,-4.027,-3.9707,-3.9177,-3.8575,-3.8202,-3.8202,-3.8202,-3.8202,-3.8202,-3.8202,-3.8202,-3.8202,-3.8202,-3.8202,-3.8202,-3.8202,-3.8202,-3.8202,-3.8202,-3.8202,-3.8202,-3.8202,-3.8202,-3.8202,-3.8202,-3.8202,-4.4852,-4.4917,-4.4971,-4.5222,-4.5477,-4.5673,-4.5673,0.0,0.0,0.0,0.0,0.0,0.0,0.0,-4.5681,-4.6852,0.0,-4.8943,-5.0091,-5.0265,0.0,0.0,0.0,0.0,0.0,0.0,0.0,0.0,0.0,0.0,-5.1322,-5.0531,-4.9899,-4.9513,-4.9495,-4.9565,-4.9617,-5.0383,-5.0916,-5.122,-5.0766,-5.0588,-5.0661,-5.0643,-5.0717,-5.0908,0.0,-5.1154,-5.0785,-5.1154,-5.1084,-5.075,-5.075,-5.082,-5.0891,-5.0891,-5.061,-5.0241,-5.0241,-4.9657,-4.8827,-4.8269,-4.759,-4.6834,-4.5855,-4.5413,-4.5119,-4.4721,-4.4903,-4.5202,-4.5202,-4.4655,-4.4125,-4.4125,-4.386,-4.3598,-4.3598,-4.3462,-4.3295,-4.3174,-4.2851,-4.2507,-4.219,-4.1997,-4.1621,-4.0901,-4.0562,-4.0076,-3.9213,-3.8848,-3.8575,-3.824,-3.8202,-3.8202,-3.8202,-3.8202,-3.8202,-3.8202,-3.8202,-3.8202,-3.8202,-3.8202,-3.8202,-3.8202,-3.8202,-3.8202,-3.8202,-3.8202,-3.8202,-3.8202,-3.8202,-3.8202,-4.4615,-4.4615,-4.4615,-4.4615,0.0,-4.5152,-4.5152,-4.4852,0.0,0.0,0.0,0.0,0.0,-4.4615,0.0,-4.6549,-4.713,0.0,0.0,0.0,0.0,0.0,0.0,0.0,0.0,0.0,0.0,0.0,0.0,0.0,-5.0115,-4.9017,-4.8285,-4.8111,-4.8111,-4.8093,-4.8085,-4.84,-4.9079,-5.0069,-4.9408,-4.9345,-4.9847,-4.9624,-4.9829,-5.0329,-5.0329,-4.9978,-4.9416,-4.9416,-4.9416,-4.9416,-4.9416,-4.9785,-5.0329,-5.0329,-4.9943,-4.9416,-4.946,-4.8686,-4.7713,-4.7541,-4.6851,-4.5958,-4.5203,-4.4736,-4.4324,-4.3747,-4.4026,-4.444,-4.444,-4.4026,-4.3598,-4.3598,-4.3598,-4.3598,-4.3598,-4.3402,-4.3265,-4.3462,-4.3066,-4.2679,-4.2617,-4.2381,-4.1964,-4.114,-4.0885,-4.0424,-3.9415,-3.9104,-3.8811,-3.8389,-3.8277,-3.8202,-3.8202,-3.8202,-3.8202,-3.8202,-3.8202,-3.8202,-3.8202,-3.8202,-3.8202,-3.8202,-3.8202,-3.8202,-3.8202,-3.8202,-3.8202,-3.8202,-3.8202,-3.8202,-4.4615,-4.4615,-4.4615,-4.4615,-4.4626,0.0,-4.4654,-4.4626,0.0,-4.4615,0.0,0.0,0.0,-4.4615,0.0,0.0,0.0,0.0,0.0,0.0,0.0,0.0,0.0,0.0,0.0,0.0,0.0,0.0,0.0,0.0,-4.8107,-4.8005,-4.7615,-4.6932,-4.6915,-4.7113,-4.7451,-4.6773,-4.7221,-4.8844,-4.9389,-4.9424,-4.9093,-4.9068,-4.8917,-4.8653,-4.8653,-4.8635,-4.8583,-4.8583,-4.8583,-4.8583,-4.8583,-4.86,-4.8653,-4.8653,-4.8635,-4.8583,-4.8661,-4.8062,-4.7125,-4.6452,-4.56,-4.4683,-4.3939,-4.3694,-4.3664,-4.3615,-4.3631,-4.3664,-4.3664,-4.3631,-4.3598,-4.3598,-4.3598,-4.3598,-4.3598,-4.3598,-4.3462,-4.3204,-4.3113,-4.2959,-4.2649,-4.257,-4.2349,-4.1787,-4.1145,-4.05,-3.994,-3.9075,-3.859,-3.8745,-3.8427,-3.8202,-3.8202,-3.8202,-3.8202,-3.8202,-3.8202,-3.8202,-3.8202,-3.8202,-3.8202,-3.8202,-3.8202,-3.8202,-3.8202,-3.8202,-3.8202,-3.8202,-3.8202,-3.8202,-4.4615,-4.4615,-4.4615,-4.4615,-4.4615,0.0,0.0,-4.4615,-4.4615,-4.4615,-4.4615,0.0,0.0,0.0,0.0,0.0,0.0,0.0,0.0,0.0,0.0,0.0,0.0,0.0,0.0,0.0,0.0,0.0,0.0,0.0,-4.6549,-4.6092,-4.5703,-4.5461,-4.5444,-4.5382,-4.5348,-4.5456,-4.5674,-4.5966,-4.6953,-4.7311,-4.7131,-4.7223,-4.7174,-4.7074,-4.7074,-4.7074,-4.7074,-4.7074,-4.7354,-4.7871,-4.8302,-4.8495,-4.8495,-4.8556,-4.8257,-4.7819,-4.7836,-4.6942,-4.573,-4.5439,-4.4754,-4.3976,-4.3681,-4.3598,-4.3598,-4.3598,-4.3598,-4.3598,-4.3598,-4.3598,-4.3598,-4.3598,-4.3598,-4.3598,-4.3598,-4.3598,-4.3552,-4.3432,-4.3402,-4.3295,-4.2959,-4.2586,-4.2158,-4.1737,-4.1057,-4.0374,-3.9829,-3.9451,-3.909,-3.8664,-3.8352,-3.8202,-3.8202,-3.8202,-3.8202,-3.8202,-3.8202,-3.8202,-3.8202,-3.8202,-3.8202,-3.8202,-3.8202,-3.8202,-3.8202,-3.8202,-3.8202,-3.8202,-3.8202,-3.8202,-4.4615,-4.4615,-4.4615,0.0,0.0,0.0,-4.4615,-4.4615,-4.4615,-4.4615,-4.4615,-4.4615,-4.4615,0.0,0.0,0.0,0.0,0.0,0.0,0.0,0.0,0.0,0.0,0.0,0.0,0.0,0.0,0.0,0.0,0.0,0.0,-4.4886,-4.4615,-4.4615,-4.4542,-4.4355,-4.4097,-4.4502,-4.4502,-4.408,-4.5035,-4.5615,-4.5887,-4.598,-4.6073,-4.6196,-4.6196,-4.6196,-4.6196,-4.6196,-4.6512,-4.7081,-4.7565,-4.7758,-4.7776,-4.7836,-4.7503,-4.7029,-4.7029,-4.6092,-4.491,-4.491,-4.4316,-4.3598,-4.3598,-4.3598,-4.3598,-4.3598,-4.3598,-4.3598,-4.3598,-4.3598,-4.3598,-4.3598,-4.3598,-4.3598,-4.3598,-4.3598,-4.3598,-4.3598,-4.3598,-4.3539,-4.3295,-4.2867,-4.2412,-4.1997,-4.1307,-4.0597,-4.0021,-3.9681,-3.925,-3.8553,-3.8427,-3.8352,-3.8202,-3.8202,-3.8202,-3.8202,-3.8202,-3.8202,-3.8202,-3.8202,-3.8202,-3.8202,-3.8202,-3.8202,-3.8202,-3.8202,-3.8202,-3.8202,-3.8202,-3.8202,-4.4615,-4.4615,-4.4615,0.0,0.0,0.0,-4.4615,-4.4615,-4.4615,-4.4615,0.0,-4.4615,-4.4615,0.0,0.0,-4.5585,0.0,0.0,0.0,0.0,0.0,0.0,0.0,0.0,0.0,0.0,0.0,0.0,0.0,0.0,0.0,-4.4615,-4.4615,-4.4615,-4.4395,-4.4224,-4.4097,-4.3985,-4.3793,-4.3598,-4.408,-4.4752,-4.558,-4.558,-4.5829,-4.6196,-4.6196,-4.6196,-4.6196,-4.6196,-4.6196,-4.6196,-4.6196,-4.6196,-4.6196,-4.6196,-4.6196,-4.6196,-4.6214,-4.5632,-4.491,-4.491,-4.4316,-4.3598,-4.3598,-4.3598,-4.3598,-4.3598,-4.3598,-4.3598,-4.3598,-4.3598,-4.3598,-4.3598,-4.3598,-4.3598,-4.3598,-4.3598,-4.3598,-4.3598,-4.3598,-4.3598,-4.3598,-4.3598,-4.3355,-4.2679,-4.1965,-4.1227,-4.0566,-3.9687,-3.8958,-3.8553,-3.8686,-3.8634,-3.824,-3.8202,-3.8202,-3.8202,-3.8202,-3.8202,-3.8202,-3.8202,-3.8202,-3.8202,-3.8202,-3.8202,-3.8202,-3.8202,-3.8202,-3.8202,-3.8202,-3.8202,-4.4615,-4.4615,0.0,-4.4615,0.0,0.0,0.0,0.0,0.0,0.0,0.0,-4.4615,-4.4615,0.0,0.0,-4.5585,0.0,0.0,0.0,0.0,0.0,0.0,0.0,0.0,0.0,0.0,0.0,0.0,0.0,0.0,0.0,-4.4468,-4.4395,-4.4395,-4.4241,-4.4097,-4.3956,-4.3927,-4.3793,-4.3598,-4.373,-4.4121,-4.4714,-4.5319,-4.5675,-4.5786,-4.6073,-4.6196,-4.6196,-4.6196,-4.6196,-4.6196,-4.6196,-4.6196,-4.6196,-4.6196,-4.6196,-4.6147,-4.5879,-4.5381,-4.4855,-4.4586,-4.4093,-4.3598,-4.3598,-4.3598,-4.3598,-4.3598,-4.3598,-4.3598,-4.3598,-4.3598,-4.3598,-4.3598,-4.3598,-4.3598,-4.3598,-4.3598,-4.3598,-4.3598,-4.3598,-4.3598,-4.3598,-4.2772,-4.2045,-4.1852,-4.0805,-3.995,-3.9753,-3.9358,-3.9068,-3.8922,-3.887,-3.8745,-3.8634,-3.8598,-3.8598,-3.8598,-3.8598,-3.8501,-3.8202,-3.8202,-3.8202,-3.8202,-3.8202,-3.8202,-3.8202,-3.8202,-3.8202,-3.8202,-3.8202,-3.8202,-4.4615,-4.4615,0.0,-4.4615,-4.4615,-4.4615,-4.4615,0.0,0.0,0.0,0.0,-4.4615,-4.4615,-4.4615,0.0,0.0,0.0,0.0,0.0,0.0,0.0,0.0,0.0,0.0,0.0,0.0,0.0,0.0,0.0,0.0,0.0,-4.4468,-4.4412,-4.4412,-4.4253,-4.4126,-4.3969,-4.3927,-4.3793,-4.3598,-4.3598,-4.3747,-4.4051,-4.4752,-4.5266,-4.5606,-4.6023,-4.6196,-4.6196,-4.6196,-4.6196,-4.6196,-4.6196,-4.6196,-4.6196,-4.6196,-4.6097,-4.593,-4.5684,-4.5196,-4.4625,-4.4378,-4.3993,-4.3598,-4.3598,-4.3598,-4.3598,-4.3598,-4.3598,-4.3598,-4.3598,-4.3598,-4.3598,-4.3598,-4.3598,-4.3598,-4.3598,-4.3598,-4.3598,-4.3598,-4.3598,-4.3539,-4.3235,-4.2506,-4.1754,-4.1194,-4.0146,-3.9388,-3.9388,-3.9301,-3.9177,-3.9104,-3.898,-3.8907,-3.8819,-3.8782,-3.8782,-3.8782,-3.8782,-3.8671,-3.8464,-3.8352,-3.8277,-3.8202,-3.8202,-3.8202,-3.8202,-3.8202,-3.8202,-3.8202,-3.8202,-3.8202,-4.4615,0.0,0.0,-4.4615,-4.4615,0.0,-4.4615,-4.4615,-4.4615,-4.4615,0.0,-4.4615,0.0,0.0,0.0,0.0,0.0,0.0,0.0,0.0,0.0,0.0,0.0,0.0,0.0,0.0,0.0,0.0,0.0,0.0,0.0,-4.457,-4.457,-4.4542,-4.4384,-4.4212,-4.4068,-4.3939,-4.3763,-4.3598,-4.3598,-4.3598,-4.3628,-4.408,-4.478,-4.5606,-4.5998,-4.6172,-4.6196,-4.6196,-4.6196,-4.6196,-4.6196,-4.6196,-4.6196,-4.6196,-4.5947,-4.558,-4.5555,-4.4998,-4.4293,-4.4253,-4.3964,-4.3598,-4.3598,-4.3598,-4.3598,-4.3598,-4.3598,-4.3598,-4.3598,-4.3598,-4.3598,-4.3598,-4.3598,-4.3598,-4.3598,-4.3598,-4.3598,-4.3598,-4.3598,-4.3402,-4.2789,-4.2585,-4.2029,-4.0615,-3.9809,-3.9388,-3.9388,-3.9388,-3.9337,-3.9141,-3.9141,-3.9068,-3.887,-3.887,-3.887,-3.887,-3.887,-3.8819,-3.8782,-3.8627,-3.8404,-3.824,-3.8202,-3.8202,-3.8202,-3.8202,-3.8202,-3.8202,-3.8202,-3.8202,0.0,-4.4615,0.0,0.0,-4.4615,-4.4615,-4.4615,-4.4615,-4.4615,-4.4615,-4.4615,-4.4615,0.0,0.0,0.0,0.0,0.0,0.0,0.0,0.0,0.0,0.0,0.0,0.0,0.0,0.0,0.0,0.0,0.0,0.0,-4.4367,-4.4367,-4.4327,-4.4212,-4.4056,-4.3969,-4.3939,-4.3763,-4.3628,0.0,-4.3598,-4.3598,-4.3628,-4.408,-4.478,-4.5606,-4.5684,-4.5905,-4.6196,-4.6196,-4.6196,-4.6196,-4.6196,-4.6196,-4.6196,-4.6196,-4.5947,-4.5555,-4.5178,-4.4708,-4.4253,-4.3877,-4.3671,-4.3598,-4.3598,-4.3598,-4.3598,-4.3598,-4.3598,-4.3598,-4.3598,-4.3598,-4.3598,-4.3598,-4.3598,-4.3598,-4.3598,-4.3598,-4.3598,-4.3598,-4.3598,-4.3552,-4.3402,-4.2475,-4.126,-3.9844,-3.9517,-3.9388,-3.9388,-3.9388,-3.9388,-3.9337,-3.9337,-3.9301,-3.9265,-3.9265,-3.9265,-3.9265,-3.9265,-3.9141,-3.8819,-3.8627,-3.8478,-3.8441,-3.8277,-3.8202,-3.8202,-3.8202,-3.8202,-3.8202,-3.8202,-3.8202,0.0,0.0,0.0,0.0,0.0,0.0,-4.4615,-4.4615,-4.4615,-4.4615,-4.4615,0.0,0.0,0.0,0.0,0.0,0.0,0.0,0.0,0.0,0.0,0.0,0.0,0.0,0.0,0.0,0.0,0.0,0.0,-4.4384,-4.4196,-4.4196,-4.4184,-4.4097,-4.4027,-4.3969,-4.3898,-4.3793,-4.3704,-4.3598,-4.3598,-4.3598,-4.3628,-4.408,-4.4547,-4.4998,-4.5424,-4.5727,-4.593,-4.6122,-4.6196,-4.6196,-4.6196,-4.6196,-4.6196,-4.6196,-4.5786,-4.5249,-4.4991,-4.4485,-4.3935,-4.3671,-4.3598,-4.3598,-4.3598,-4.3598,-4.3598,-4.3598,-4.3598,-4.3598,-4.3598,-4.3598,-4.3598,-4.3598,-4.3598,-4.3598,-4.3598,-4.3598,-4.3598,-4.3598,-4.3598,-4.3402,-4.271,-4.1426,-4.0235,-3.9517,-3.9388,-3.9388,-3.9388,-3.9388,-3.9388,-3.9388,-3.9388,-3.9388,-3.9388,-3.9388,-3.9388,-3.9388,-3.9388,-3.9301,-3.9104,-3.8885,-3.8664,-3.8366,-3.824,-3.8202,-3.8202,-3.8202,-3.8202,-3.8202,-3.8202,-3.8202,0.0,0.0,0.0,0.0,0.0,0.0,0.0,-4.4615,0.0,0.0,0.0,0.0,0.0,0.0,0.0,0.0,0.0,0.0,0.0,0.0,0.0,0.0,0.0,0.0,0.0,0.0,0.0,0.0,0.0,-4.427,-4.4085,-4.4097,-4.4126,-4.4085,-4.4173,-4.4181,-4.4081,-4.4184,-4.4175,-4.4039,-4.4039,-4.3943,-4.381,-4.4206,-4.4342,-4.4321,-4.5052,-4.545,-4.5632,-4.5955,-4.6147,-4.6196,-4.6196,-4.6196,-4.6196,-4.6196,-4.5658,-4.491,-4.491,-4.4316,-4.3598,-4.3598,-4.3598,-4.3598,-4.3598,-4.3598,-4.3598,-4.3598,-4.3598,-4.3598,-4.3598,-4.3598,-4.3598,-4.3598,-4.3598,-4.3598,-4.3598,-4.3598,-4.3598,-4.3598,-4.3492,-4.2974,-4.1558,-4.0374,-3.9553,-3.9409,-3.9388,-3.9388,-3.9388,-3.9388,-3.9388,-3.9388,-3.9388,-3.9388,-3.9388,-3.9388,-3.9388,-3.9388,-3.9388,-3.9388,-3.9337,-3.9177,-3.8848,-3.8315,-3.8277,-3.8277,-3.8315,-3.8277,-3.824,-3.824,-3.824,-3.824,0.0,0.0,0.0,0.0,0.0,0.0,0.0,0.0,0.0,0.0,0.0,0.0,0.0,0.0,0.0,0.0,0.0,0.0,0.0,0.0,0.0,0.0,0.0,0.0,0.0,0.0,0.0,0.0,-4.4468,-4.4372,-4.3956,-4.4155,-4.4184,-4.3927,-4.448,-4.4797,-4.4767,-4.5277,-4.5609,-4.5779,-4.5779,-4.5338,-4.4556,-4.463,-4.4519,-4.431,-4.4435,-4.4889,-4.5606,-4.5658,-4.5879,-4.6196,-4.6196,-4.6196,-4.6196,-4.6196,-4.5658,-4.491,-4.491,-4.4316,-4.3598,-4.3598,-4.3598,-4.3598,-4.3598,-4.3598,-4.3598,-4.3598,-4.3598,-4.3598,-4.3598,-4.3598,-4.3598,-4.3598,-4.3598,-4.3598,-4.3598,-4.3598,-4.3598,-4.3598,-4.3143,-4.2285,-4.0873,-4.0478,-4.0161,-3.9481,-3.9388,-3.9388,-3.9388,-3.9388,-3.9388,-3.9388,-3.9388,-3.9388,-3.9388,-3.9388,-3.9388,-3.9388,-3.9388,-3.9301,-3.9141,-3.9104,-3.898,-3.8708,-3.8538,-3.8553,-3.8708,-3.8538,-3.8441,-3.8441,-3.8441,-3.8366,-4.4615,0.0,0.0,0.0,0.0,0.0,0.0,0.0,0.0,0.0,0.0,0.0,0.0,0.0,0.0,0.0,0.0,0.0,0.0,0.0,0.0,0.0,0.0,0.0,0.0,0.0,0.0,0.0,-4.4367,-4.4298,-4.4027,-4.4126,-4.431,-4.4612,-4.4929,-4.5267,-4.5668,-4.594,-4.6107,-4.6216,-4.6141,-4.5865,-4.5471,-4.5379,-4.4809,-4.3906,-4.4196,-4.4642,-4.5222,-4.5503,-4.5829,-4.6196,-4.6196,-4.6196,-4.6172,-4.5955,-4.5459,-4.4882,-4.4625,-4.415,-4.3598,-4.3598,-4.3598,-4.3598,-4.3598,-4.3598,-4.3598,-4.3598,-4.3598,-4.3598,-4.3598,-4.3598,-4.3598,-4.3598,-4.3598,-4.3598,-4.3598,-4.3598,-4.3598,-4.3598,-4.2741,-4.1787,-4.1176,-4.0409,-3.9788,-3.9445,-3.9388,-3.9388,-3.9388,-3.9388,-3.9388,-3.9388,-3.9388,-3.9388,-3.9388,-3.9388,-3.9388,-3.9388,-3.9388,-3.9337,-3.9265,-3.9265,-3.9228,-3.9141,-3.8833,-3.8723,-3.8782,-3.859,-3.8478,-3.8478,-3.8366,-3.8,0.0,0.0,0.0,0.0,0.0,0.0,0.0,0.0,0.0,0.0,0.0,0.0,0.0,0.0,0.0,0.0,0.0,0.0,0.0,0.0,0.0,0.0,0.0,0.0,0.0,0.0,0.0,0.0,-4.4338,-4.4298,-4.4097,-4.4126,-4.4473,-4.5181,-4.5382,-4.5852,-4.6558,-4.6759,-4.6829,-4.6736,-4.6691,-4.6529,-4.6283,-4.6142,-4.5384,-4.4175,-4.4515,-4.4935,-4.5324,-4.5682,-4.6064,-4.6429,-4.6429,-4.6429,-4.6377,-4.6073,-4.5682,-4.5269,-4.4963,-4.4428,-4.3893,-4.3893,-4.3731,-4.3598,-4.3598,-4.3598,-4.3598,-4.3598,-4.3598,-4.3598,-4.3598,-4.3598,-4.3598,-4.3598,-4.3598,-4.3598,-4.3598,-4.3598,-4.3568,-4.3372,-4.2506,-4.1656,-4.1294,-4.0374,-3.9625,-3.9424,-3.9388,-3.9388,-3.9388,-3.9388,-3.9388,-3.9388,-3.9388,-3.9388,-3.9388,-3.9388,-3.9388,-3.9388,-3.9388,-3.9388,-3.9388,-3.9388,-3.9388,-3.9388,-3.9104,-3.8943,-3.887,-3.8649,-3.8553,-3.8478,-3.8366,-3.7886,0.0,0.0,0.0,0.0,0.0,0.0,0.0,0.0,0.0,0.0,0.0,0.0,0.0,0.0,0.0,0.0,0.0,0.0,0.0,0.0,0.0,0.0,0.0,0.0,0.0,0.0,0.0,0.0,-4.4468,-4.4429,-4.4126,-4.4224,-4.456,-4.5181,-4.5885,-4.6592,-4.7345,-4.8031,-4.8224,-4.7917,-4.8031,-4.7665,-4.6873,-4.6841,-4.6411,-4.5682,-4.5713,-4.6004,-4.641,-4.6439,-4.6704,-4.7062,-4.7062,-4.7062,-4.7062,-4.7033,-4.6763,-4.641,-4.638,-4.5628,-4.4622,-4.4622,-4.4175,-4.3598,-4.3598,-4.3598,-4.3598,-4.3598,-4.3598,-4.3598,-4.3598,-4.3598,-4.3598,-4.3598,-4.3598,-4.3598,-4.3598,-4.3598,-4.3402,-4.2772,-4.2585,-4.2126,-4.0771,-4.0478,-4.0216,-3.9517,-3.9388,-3.9388,-3.9388,-3.9388,-3.9388,-3.9388,-3.9388,-3.9388,-3.9388,-3.9388,-3.9388,-3.9388,-3.9388,-3.9388,-3.9388,-3.9388,-3.9388,-3.9388,-3.9388,-3.9265,-3.9068,-3.887,-3.8686,-3.8478,-3.8478,-3.8366,0.0,0.0,0.0,0.0,0.0,0.0,0.0,0.0,0.0,0.0,0.0,0.0,0.0,0.0,0.0,0.0,0.0,0.0,0.0,0.0,0.0,0.0,0.0,0.0,0.0,0.0,0.0,0.0,0.0,-4.524,-4.5125,-4.5166,-4.5503,-4.6216,-4.6928,-4.7669,-4.8411,-4.868,-4.8721,-4.8517,-4.8436,-4.8158,-4.7748,-4.7636,-4.7454,-4.7206,-4.7206,-4.6943,-4.6498,-4.6498,-4.6735,-4.7096,-4.7096,-4.7096,-4.7067,-4.6806,-4.6617,-4.6438,-4.6152,-4.577,-4.54,-4.54,-4.5218,-4.492,-4.4456,-4.4307,-4.4208,-4.3714,-4.3598,-4.3598,-4.3598,-4.3598,-4.3598,-4.3598,-4.3598,-4.3598,-4.3598,-4.3598,-4.3539,-4.3295,-4.2881,-4.2285,-4.1294,-4.0771,-4.025,-3.9517,-3.9388,-3.9388,-3.9388,-3.9388,-3.9388,-3.9388,-3.9388,-3.9388,-3.9388,-3.9388,-3.9568,-4.0023,-4.0053,-4.0053,-4.0053,-4.0053,-3.9843,-3.9388,-3.9388,-3.9337,-3.9301,-3.9104,-3.8958,-3.8885,-3.876,-3.7971,-4.4542,0.0,0.0,0.0,0.0,0.0,0.0,0.0,0.0,0.0,0.0,0.0,0.0,0.0,0.0,0.0,0.0,0.0,0.0,0.0,0.0,0.0,0.0,0.0,0.0,0.0,0.0,0.0,0.0,0.0,-4.5971,-4.5971,-4.6338,-4.7141,-4.7885,-4.848,-4.8909,-4.8877,-4.8753,-4.8612,-4.8436,-4.8276,-4.8147,-4.8033,-4.8001,-4.8001,-4.8001,-4.7631,-4.701,-4.701,-4.7164,-4.7389,-4.7389,-4.7389,-4.7359,-4.7102,-4.701,-4.6965,-4.6653,-4.6378,-4.6162,-4.6162,-4.5997,-4.5698,-4.5202,-4.5052,-4.4953,-4.4489,-4.4357,-4.4357,-4.4357,-4.4357,-4.4357,-4.4357,-4.4357,-4.4357,-4.4357,-4.3946,-4.3522,-4.3295,-4.2912,-4.2366,-4.1592,-4.1096,-4.0648,-4.0147,-4.0083,-4.0083,-4.0083,-4.0083,-4.0083,-4.0083,-3.9888,-3.9753,-3.9753,-3.9544,-3.9604,-4.0053,-4.0068,-4.0068,-4.0068,-4.0068,-3.9858,-3.9388,-3.9388,-3.9388,-3.9388,-3.9177,-3.9031,-3.8885,-3.8472,-3.7242,0.0,0.0,0.0,0.0,0.0,0.0,0.0,0.0,0.0,0.0,0.0,0.0,0.0,0.0,0.0,0.0,0.0,0.0,0.0,0.0,0.0,0.0,0.0,0.0,0.0,0.0,0.0,0.0,-4.6481,-4.6481,-4.6481,-4.6498,-4.6928,-4.7906,-4.8629,-4.8956,-4.8818,-4.8627,-4.842,-4.8195,-4.8099,-4.8001,-4.8001,-4.8001,-4.8001,-4.8001,-4.8001,-4.8001,-4.8001,-4.8001,-4.8001,-4.8001,-4.8001,-4.8001,-4.8001,-4.8001,-4.8001,-4.8001,-4.8001,-4.7537,-4.6924,-4.6924,-4.6444,-4.5847,-4.5831,-4.5814,-4.5814,-4.5798,-4.5798,-4.5798,-4.5798,-4.5798,-4.5798,-4.5798,-4.5798,-4.5798,-4.5798,-4.4688,-4.3468,-4.2806,-4.2681,-4.2382,-4.1585,-4.1463,-4.1423,-4.14,-4.1354,-4.1339,-4.1324,-4.1324,-4.1324,-4.1324,-4.0756,-4.0367,-4.0367,-3.9783,-3.9388,-3.9454,-3.9454,-3.9454,-3.9454,-3.9454,-3.9403,-3.9388,-3.9388,-3.9388,-3.9388,-3.9177,-3.8922,-3.8516,-3.7601,-3.6188,-4.3735,0.0,0.0,0.0,0.0,0.0,0.0,0.0,0.0,0.0,0.0,0.0,0.0,0.0,0.0,0.0,0.0,0.0,0.0,0.0,0.0,0.0,0.0,0.0,0.0,0.0,0.0,0.0,-4.6237,-4.5903,-4.5903,-4.6439,-4.7288,-4.8495,-4.8838,-4.8956,-4.8818,-4.8846,-4.8704,-4.842,-4.8388,-4.8244,-4.8001,-4.8001,-4.8001,-4.8001,-4.8001,-4.8001,-4.8001,-4.8001,-4.8001,-4.8001,-4.8001,-4.8001,-4.8001,-4.8001,-4.8001,-4.8001,-4.8001,-4.7868,-4.7703,-4.7703,-4.7554,-4.7289,-4.6758,-4.6593,-4.6477,-4.5947,-4.5798,-4.5798,-4.5798,-4.5798,-4.5798,-4.5798,-4.5798,-4.5798,-4.5798,-4.5483,-4.5123,-4.4952,-4.4429,-4.3812,-4.3091,-4.2508,-4.1784,-4.0808,-4.0666,-4.0502,-4.0023,-3.9963,-3.9963,-3.9963,-3.9798,-3.9694,-3.9694,-3.9493,-3.9634,-4.0098,-4.0127,-4.0127,-4.0127,-4.0127,-3.9903,-3.9388,-3.9388,-3.9388,-3.9388,-3.9337,-3.9265,-3.9119,-3.7291,-3.6186,-4.3406,-4.4047,0.0,0.0,0.0,0.0,-4.4615,-4.4615,0.0,0.0,0.0,0.0,0.0,0.0,0.0,0.0,0.0,0.0,0.0,0.0,0.0,0.0,0.0,0.0,0.0,-4.668,-4.668,-4.668,-4.6292,-4.6026,-4.6026,-4.6444,-4.7055,-4.795,-4.8058,-4.8179,-4.8408,-4.8422,-4.8481,-4.8627,-4.8547,-4.8388,-4.8212,-4.8212,-4.8147,-4.8082,-4.8082,-4.8066,-4.8001,-4.8001,-4.8001,-4.8001,-4.8001,-4.8001,-4.8001,-4.8001,-4.8001,-4.8001,-4.8001,-4.8001,-4.8001,-4.8001,-4.8001,-4.7918,-4.7487,-4.7355,-4.7272,-4.6841,-4.6709,-4.6709,-4.6709,-4.6493,-4.6245,-4.6245,-4.6013,-4.5798,-4.5798,-4.5593,-4.5291,-4.4952,-4.4509,-4.3854,-4.2838,-4.2276,-4.1728,-4.0935,-4.0816,-4.0666,-4.0292,-4.0232,-4.0232,-4.0232,-3.9993,-3.9828,-3.9828,-3.9574,-3.9589,-3.9963,-3.9993,-3.9993,-3.9993,-3.9993,-3.9679,-3.9005,-3.899,-3.8856,-3.8586,-3.9155,-3.8883,-3.7826,-3.5784,-3.4658,-4.3227,-4.3972,-4.4615,-4.4615,-4.4615,0.0,-4.4615,-4.4615,-4.4615,0.0,0.0,0.0,0.0,0.0,0.0,0.0,0.0,0.0,0.0,0.0,0.0,0.0,0.0,0.0,-4.6241,-4.6292,-4.6292,-4.6292,-4.6292,-4.6325,-4.6426,-4.6426,-4.652,-4.6756,-4.6786,-4.7107,-4.7753,-4.7585,-4.7844,-4.8534,-4.8459,-4.8381,-4.8398,-4.8482,-4.842,-4.8227,-4.8227,-4.8179,-4.8066,-4.8033,-4.8001,-4.8001,-4.8001,-4.8001,-4.8001,-4.8001,-4.8001,-4.8001,-4.8001,-4.8001,-4.8001,-4.8001,-4.8001,-4.8001,-4.8001,-4.8001,-4.7984,-4.7901,-4.7885,-4.7868,-4.7785,-4.7272,-4.6775,-4.6775,-4.6278,-4.5798,-4.5704,-4.5243,-4.4524,-4.3646,-4.3472,-4.3051,-4.1768,-4.1445,-4.1354,-4.128,-4.1265,-4.125,-4.1175,-4.116,-4.113,-4.1055,-4.0531,-4.0157,-4.0068,-3.9529,-3.92,-3.92,-3.92,-3.92,-3.92,-3.92,-3.8916,-3.8287,-3.8287,-3.7953,-3.7267,-3.8581,-3.7996,-3.5689,-3.3979,-3.2673,-4.2676,-4.3634,-4.4615,-4.4615,-4.4615,0.0,-4.4615,-4.4615,-4.4615,0.0,0.0,0.0,0.0,0.0,0.0,0.0,0.0,0.0,0.0,0.0,0.0,0.0,0.0,0.0,-4.4964,-4.4964,-4.4964,-4.4964,-4.4964,-4.5235,-4.5814,-4.5848,-4.6072,-4.6557,-4.6727,-4.6794,-4.6763,-4.69,-4.6937,-4.6952,-4.7527,-4.772,-4.763,-4.8216,-4.8483,-4.8452,-4.8452,-4.842,-4.8388,-4.8244,-4.8082,-4.8001,-4.8001,-4.8001,-4.8001,-4.8001,-4.8001,-4.8001,-4.8001,-4.8001,-4.8001,-4.8001,-4.8001,-4.8001,-4.8001,-4.8001,-4.7885,-4.7272,-4.7106,-4.6974,-4.6378,-4.6113,-4.6013,-4.6013,-4.5897,-4.5656,-4.5098,-4.487,-4.4391,-4.2985,-4.27,-4.2628,-4.2318,-4.179,-4.1205,-4.0666,-4.0591,-4.0397,-3.9873,-3.9798,-3.9589,-3.9035,-3.8856,-3.8571,-3.8033,-3.7883,-3.7793,-3.7793,-3.7793,-3.7793,-3.7793,-3.7793,-3.7734,-3.7599,-3.7599,-3.7248,-3.6505,-3.7382,-3.7166,-3.5905,-3.4696,-3.3632,-4.252,-4.3545,0.0,-4.4615,-4.4615,0.0,0.0,-4.4615,-4.4615,0.0,0.0,0.0,0.0,0.0,0.0,0.0,0.0,0.0,0.0,0.0,0.0,0.0,0.0,0.0,-4.4615,-4.4615,-4.4615,-4.4615,-4.4615,-4.4767,-4.5128,-4.5145,-4.5269,-4.5537,-4.564,-4.5826,-4.611,-4.6215,-4.6401,-4.665,-4.7022,-4.7164,-4.7137,-4.7861,-4.8135,-4.8073,-4.8459,-4.8532,-4.8356,-4.8227,-4.8115,-4.8001,-4.8001,-4.8001,-4.8001,-4.8001,-4.8001,-4.8001,-4.8001,-4.8001,-4.8001,-4.8001,-4.8001,-4.7934,-4.7554,-4.7189,-4.6825,-4.646,-4.6344,-4.6262,-4.5897,-4.5516,-4.5235,-4.5235,-4.497,-4.4613,-4.4256,-4.3649,-4.2928,-4.2164,-4.1177,-4.0574,-4.0908,-4.0639,-4.0068,-3.9065,-3.8901,-3.8796,-3.8467,-3.8407,-3.8287,-3.7943,-3.7898,-3.7764,-3.7434,-3.7404,-3.7404,-3.7404,-3.7404,-3.7404,-3.7404,-3.7404,-3.727,-3.6956,-3.6245,-3.5663,-3.5285,-3.5285,-3.5045,-3.4517,-3.3179,-3.2319,0.0,0.0,0.0,0.0,0.0,-4.4615,0.0,0.0,0.0,0.0,0.0,0.0,0.0,0.0,0.0,0.0,0.0,0.0,0.0,0.0,0.0,0.0,0.0,0.0,0.0,-4.4542,-4.4542,-4.4542,-4.4542,-4.4542,-4.4542,-4.4542,-4.457,-4.4615,-4.4615,-4.4902,-4.5483,-4.55,-4.5788,-4.6363,-4.6515,-4.6583,-4.6599,-4.7361,-4.7592,-4.7487,-4.8141,-4.8322,-4.8155,-4.8107,-4.8111,-4.8131,-4.8033,-4.8001,-4.8001,-4.8001,-4.8001,-4.8001,-4.8001,-4.7918,-4.7785,-4.7785,-4.7686,-4.7471,-4.6874,-4.6262,-4.5765,-4.5616,-4.5582,-4.5549,-4.54,-4.492,-4.4473,-4.4473,-4.3926,-4.3353,-4.3218,-4.219,-4.1259,-4.1107,-3.9644,-3.8568,-3.9109,-3.9092,-3.8661,-3.7569,-3.7404,-3.7404,-3.7404,-3.7404,-3.736,-3.724,-3.724,-3.718,-3.706,-3.7045,-3.7045,-3.7045,-3.7045,-3.7045,-3.7045,-3.7045,-3.6806,-3.6312,-3.5137,-3.438,-3.4109,-3.3492,-3.309,-3.282,-3.1483,-3.0761,0.0,0.0,0.0,0.0,-4.4615,0.0,0.0,0.0,-4.4615,-4.4615,0.0,0.0,0.0,0.0,0.0,0.0,0.0,0.0,0.0,0.0,0.0,0.0,0.0,0.0,0.0,-4.4338,-4.4338,-4.4338,-4.4338,-4.4338,-4.4338,-4.4338,-4.4412,-4.4598,-4.4615,-4.4649,-4.4733,-4.4733,-4.4784,-4.4869,-4.55,-4.5821,-4.5855,-4.6583,-4.6921,-4.6891,-4.6976,-4.7368,-4.7916,-4.7729,-4.8071,-4.8644,-4.8196,-4.8001,-4.8001,-4.8001,-4.8001,-4.8001,-4.8001,-4.757,-4.7023,-4.7023,-4.6576,-4.603,-4.5947,-4.5864,-4.5649,-4.5003,-4.4804,-4.4671,-4.4042,-4.378,-4.3714,-4.3714,-4.3151,-4.2459,-4.189,-4.1093,-4.0319,-3.9675,-3.8932,-3.8427,-3.8496,-3.8024,-3.7584,-3.7434,-3.7404,-3.7404,-3.7404,-3.7404,-3.721,-3.6656,-3.6596,-3.6357,-3.5774,-3.5729,-3.5729,-3.5729,-3.5729,-3.5729,-3.5729,-3.5729,-3.5684,-3.5609,-3.5469,-3.4673,-3.3318,-3.3248,-3.2761,-3.1927,-3.1579,-3.0947,0.0,0.0,0.0,0.0,0.0,0.0,-4.4615,0.0,-4.4615,0.0,0.0,0.0,0.0,0.0,0.0,0.0,-4.4395,0.0,0.0,0.0,0.0,0.0,0.0,0.0,0.0,0.0,0.0,0.0,-4.4468,-4.4468,-4.4468,-4.4468,-4.4514,-4.4615,-4.4615,-4.4615,-4.4615,-4.4615,-4.4615,-4.4615,-4.4891,-4.5043,-4.5077,-4.5821,-4.616,-4.616,-4.616,-4.627,-4.6389,-4.5803,-4.5684,-4.5912,-4.6038,-4.6673,-4.75,-4.7404,-4.709,-4.6725,-4.6725,-4.651,-4.6245,-4.6245,-4.5748,-4.5152,-4.5152,-4.4854,-4.4473,-4.4158,-4.4075,-4.3992,-4.3664,-4.3267,-4.2953,-4.2953,-4.239,-4.1786,-4.151,-4.06,-3.9712,-3.9399,-3.82,-3.7245,-3.7245,-3.7046,-3.6746,-3.6372,-3.6312,-3.6312,-3.6312,-3.6312,-3.6207,-3.5953,-3.5923,-3.5804,-3.5534,-3.5504,-3.5504,-3.5504,-3.5504,-3.5504,-3.5504,-3.5504,-3.5279,-3.4791,-3.439,-3.3644,-3.2541,-3.2137,-3.1713,-3.132,-3.1147,-3.0748,-4.2269,0.0,0.0,0.0,0.0,0.0,0.0,0.0,0.0,0.0,0.0,0.0,0.0,0.0,0.0,0.0,0.0,-4.3927,0.0,0.0,0.0,0.0,0.0,0.0,0.0,0.0,0.0,-4.4514,-4.4328,-4.4209,-4.4209,-4.4209,-4.4237,-4.4265,-4.4496,-4.4496,-4.4265,-4.4265,-4.4164,-4.3972,-4.3972,-4.3972,-4.4005,-4.4519,-4.4773,-4.4773,-4.4773,-4.4789,-4.4793,-4.4186,-4.3954,-4.4056,-4.4401,-4.5166,-4.6107,-4.6472,-4.6245,-4.5798,-4.5798,-4.5665,-4.5467,-4.5251,-4.4821,-4.439,-4.439,-4.3893,-4.33,-4.33,-4.3151,-4.2986,-4.2986,-4.2589,-4.2191,-4.2191,-4.1657,-4.1127,-4.1127,-4.0196,-3.9316,-3.9129,-3.7807,-3.66,-3.643,-3.6319,-3.6058,-3.5579,-3.5504,-3.5504,-3.5504,-3.5504,-3.5504,-3.5504,-3.5504,-3.5504,-3.5504,-3.5504,-3.5504,-3.5504,-3.5504,-3.5504,-3.5504,-3.5504,-3.5246,-3.4643,-3.3871,-3.3143,-3.2398,-3.1676,-3.1161,-3.0911,-3.0773,-3.0571,0.0,0.0,0.0,-4.4253,0.0,0.0,0.0,0.0,-4.4615,0.0,0.0,0.0,0.0,0.0,-4.4124,-4.2608,0.0,0.0,0.0,0.0,0.0,0.0,0.0,0.0,0.0,0.0,0.0,-4.431,-4.3654,-4.3222,-4.3222,-4.3222,-4.3305,-4.3426,-4.4181,-4.4215,-4.3443,-4.3426,-4.3081,-4.2354,-4.2354,-4.2354,-4.2354,-4.2388,-4.2405,-4.2405,-4.2405,-4.2811,-4.346,-4.3443,-4.3866,-4.4542,-4.4246,-4.3729,-4.3349,-4.5175,-4.5814,-4.5798,-4.5798,-4.5317,-4.4605,-4.388,-4.3648,-4.3631,-4.3631,-4.3118,-4.2522,-4.2522,-4.2009,-4.1475,-4.1475,-4.1458,-4.1458,-4.1458,-4.0912,-4.0442,-4.0442,-3.9835,-3.911,-3.8467,-3.7809,-3.7161,-3.6508,-3.5925,-3.5534,-3.5504,-3.5504,-3.5504,-3.5504,-3.5504,-3.5504,-3.5504,-3.5504,-3.5504,-3.5504,-3.5504,-3.5504,-3.5504,-3.5504,-3.5504,-3.5504,-3.5504,-3.5504,-3.5472,-3.4677,-3.3891,-3.3143,-3.2434,-3.1603,-3.0698,-3.0698,-3.0571,0.0,0.0,-4.3393,-4.4355,0.0,0.0,0.0,0.0,0.0,0.0,0.0,0.0,0.0,0.0,-4.347,-4.2455,-4.2506,0.0,0.0,0.0,0.0,0.0,0.0,0.0,0.0,0.0,0.0,-4.3709,-4.3017,-4.2594,-4.2594,-4.2594,-4.2621,-4.2675,-4.342,-4.369,-4.3392,-4.3392,-4.3257,-4.3031,-4.2523,-4.2286,-4.2286,-4.2286,-4.2286,-4.2269,-4.1779,-4.1711,-4.1888,-4.1319,-4.1189,-4.1396,-4.1682,-4.1577,-4.1477,-4.3028,-4.3313,-4.2899,-4.2899,-4.2734,-4.2485,-4.2237,-4.2125,-4.2125,-4.2125,-4.196,-4.1761,-4.1761,-4.1579,-4.1409,-4.1409,-4.1077,-4.0729,-4.0729,-4.021,-3.968,-3.968,-3.8814,-3.7998,-3.7735,-3.6875,-3.6053,-3.5861,-3.5651,-3.5504,-3.5504,-3.5504,-3.5504,-3.5504,-3.5504,-3.5504,-3.5504,-3.5504,-3.5504,-3.5504,-3.5504,-3.5504,-3.5504,-3.5504,-3.5504,-3.5504,-3.5504,-3.5001,-3.4002,-3.3713,-3.2967,-3.175,-3.1505,-3.1222,-3.0911,-3.0911,-3.0647,-4.1949,-4.2645,0.0,-4.4047,-4.4412,0.0,-4.4615,0.0,-4.4615,0.0,0.0,0.0,0.0,0.0,0.0,-4.2066,-4.1914,-4.1644,0.0,-4.0417,0.0,0.0,0.0,0.0,0.0,0.0,-4.3014,-4.3014,-4.2337,-4.1914,0.0,0.0,-4.1914,-4.1914,-4.2625,-4.3014,-4.3014,-4.3014,-4.2895,-4.2625,-4.2134,-4.1762,-4.1534,-4.1534,-4.1534,-4.15,-4.1018,-4.0798,-4.0764,-4.0214,-3.9884,-3.9806,-4.0151,-4.0201,-4.0248,-4.1607,-4.1794,-4.1409,-4.1409,-4.1409,-4.1409,-4.1409,-4.1409,-4.1409,-4.1409,-4.1243,-4.1094,-4.1342,-4.1044,-4.0713,-4.0978,-4.0514,-4.0011,-4.0011,-3.9468,-3.8925,-3.8925,-3.8141,-3.734,-3.7101,-3.6368,-3.5733,-3.5537,-3.5504,-3.5504,-3.5504,-3.5504,-3.5504,-3.5504,-3.5504,-3.5504,-3.5504,-3.5504,-3.5504,-3.5504,-3.5504,-3.5504,-3.5504,-3.5504,-3.5504,-3.5504,-3.5504,-3.4887,-3.363,-3.3318,-3.2591,-3.1394,-3.1123,-3.0986,-3.0986,-3.0911,-3.0647]},{"header":{"parameterUnit":"m.s-1","parameterCategory":1,"la1":30.6,"la2":29.2853,"lo1":-89.7004,"lo2":-87.6739,"dy":0.0162,"dx":0.0183,"nx":112,"ny":82,"refTime":"2023-08-01T00:00:00:Z","depth":0,"parameterNumber":3,"parameterNumberName":"V-component_of_WINDS"},"data":[0.0,0.0,0.0,0.0,0.0,0.0,0.0,0.0,0.0,0.0,0.0,0.0,0.0,0.0,0.0,0.0,0.0,0.0,0.0,0.0,0.0,0.0,0.0,0.0,0.0,0.0,0.0,0.0,0.0,0.0,0.0,0.0,0.0,0.0,0.0,0.0,0.0,0.0,0.0,0.0,0.0,0.0,0.0,0.0,0.0,0.0,0.0,0.0,0.0,0.0,0.0,0.0,0.0,0.0,0.0,0.0,0.0,0.0,0.0,0.0,0.0,0.0,0.0,0.0,0.0,0.0,0.0,0.0,0.0,0.0,0.0,0.0,0.0,0.0,0.0,0.0,0.0,0.0,0.0,0.0,0.0,0.0,0.0,0.0,0.0,0.0,0.0,0.0,0.0,0.0,-3.3319,-3.2816,-3.222,-3.1448,-3.0486,-2.9635,-2.9441,-3.017,0.0,0.0,0.0,0.0,0.0,0.0,0.0,0.0,0.0,0.0,0.0,0.0,0.0,0.0,0.0,0.0,0.0,0.0,0.0,0.0,0.0,0.0,0.0,0.0,0.0,0.0,0.0,0.0,0.0,0.0,0.0,0.0,0.0,0.0,0.0,0.0,0.0,0.0,0.0,0.0,0.0,0.0,0.0,0.0,0.0,0.0,0.0,0.0,0.0,0.0,0.0,0.0,0.0,0.0,0.0,0.0,0.0,0.0,0.0,0.0,0.0,0.0,0.0,0.0,0.0,0.0,0.0,0.0,0.0,0.0,0.0,0.0,0.0,0.0,0.0,0.0,0.0,0.0,0.0,0.0,0.0,0.0,0.0,0.0,0.0,0.0,0.0,0.0,0.0,0.0,0.0,0.0,0.0,0.0,0.0,0.0,0.0,0.0,0.0,0.0,0.0,0.0,0.0,0.0,-3.3364,-3.3088,-3.2939,-3.2481,-3.1492,-3.1258,-3.0902,-3.026,0.0,0.0,0.0,0.0,0.0,0.0,0.0,0.0,0.0,0.0,0.0,0.0,0.0,0.0,0.0,0.0,0.0,0.0,0.0,0.0,0.0,0.0,0.0,0.0,0.0,0.0,0.0,0.0,0.0,0.0,0.0,0.0,0.0,0.0,0.0,0.0,0.0,0.0,0.0,0.0,0.0,0.0,0.0,0.0,0.0,0.0,0.0,0.0,0.0,0.0,0.0,0.0,0.0,0.0,0.0,0.0,0.0,0.0,0.0,0.0,0.0,0.0,0.0,0.0,0.0,0.0,0.0,0.0,0.0,0.0,0.0,0.0,0.0,0.0,0.0,0.0,0.0,0.0,0.0,0.0,0.0,0.0,0.0,0.0,0.0,0.0,0.0,0.0,0.0,0.0,0.0,0.0,0.0,0.0,0.0,0.0,0.0,0.0,0.0,0.0,0.0,0.0,0.0,-3.3271,-3.3227,-3.3106,-3.3124,-3.2896,-3.2438,-3.1901,-3.1669,-3.1757,-2.9943,0.0,0.0,0.0,0.0,0.0,0.0,0.0,0.0,0.0,0.0,0.0,0.0,0.0,0.0,0.0,0.0,0.0,0.0,0.0,0.0,0.0,0.0,0.0,0.0,0.0,0.0,0.0,0.0,0.0,0.0,0.0,0.0,0.0,0.0,0.0,0.0,0.0,0.0,0.0,0.0,0.0,0.0,0.0,0.0,0.0,0.0,0.0,0.0,0.0,0.0,0.0,0.0,0.0,0.0,0.0,0.0,0.0,0.0,0.0,0.0,0.0,0.0,0.0,0.0,0.0,0.0,0.0,0.0,0.0,0.0,0.0,0.0,0.0,0.0,0.0,0.0,0.0,0.0,0.0,0.0,0.0,0.0,0.0,0.0,0.0,0.0,0.0,0.0,0.0,0.0,0.0,0.0,0.0,0.0,0.0,0.0,0.0,0.0,0.0,0.0,0.0,0.0,-3.3124,-3.3124,-3.3124,-3.3124,-3.3124,-3.3124,-3.2394,-3.2264,-3.3038,-3.1713,0.0,0.0,0.0,0.0,0.0,0.0,0.0,0.0,0.0,0.0,0.0,0.0,0.0,0.0,0.0,0.0,0.0,0.0,0.0,0.0,0.0,0.0,0.0,0.0,0.0,0.0,0.0,0.0,0.0,0.0,0.0,0.0,0.0,0.0,0.0,0.0,0.0,0.0,0.0,0.0,0.0,0.0,0.0,0.0,0.0,0.0,0.0,0.0,0.0,0.0,0.0,0.0,0.0,0.0,0.0,0.0,0.0,0.0,0.0,0.0,0.0,0.0,0.0,0.0,0.0,0.0,0.0,0.0,0.0,0.0,0.0,0.0,0.0,0.0,0.0,0.0,0.0,0.0,0.0,0.0,0.0,0.0,0.0,0.0,0.0,0.0,0.0,0.0,0.0,0.0,0.0,0.0,0.0,0.0,0.0,0.0,0.0,0.0,0.0,0.0,0.0,0.0,-3.3124,-3.3124,-3.3124,-3.3124,-3.3124,-3.3124,-3.3038,-3.3025,-3.3124,-3.2982,0.0,0.0,0.0,0.0,0.0,0.0,0.0,0.0,0.0,0.0,0.0,0.0,0.0,0.0,0.0,0.0,0.0,0.0,0.0,0.0,0.0,0.0,0.0,0.0,0.0,0.0,0.0,0.0,0.0,0.0,0.0,0.0,0.0,0.0,0.0,0.0,0.0,0.0,0.0,0.0,0.0,0.0,0.0,0.0,0.0,0.0,0.0,0.0,0.0,0.0,0.0,0.0,0.0,0.0,0.0,0.0,0.0,0.0,0.0,0.0,0.0,0.0,0.0,0.0,0.0,0.0,0.0,0.0,0.0,0.0,0.0,0.0,0.0,0.0,0.0,0.0,0.0,0.0,0.0,0.0,0.0,0.0,0.0,0.0,0.0,0.0,0.0,0.0,0.0,0.0,0.0,0.0,0.0,0.0,0.0,0.0,0.0,0.0,0.0,0.0,0.0,0.0,-3.3124,-3.3124,-3.3124,-3.3124,-3.3124,-3.3124,-3.3124,-3.3124,-3.3124,0.0,0.0,0.0,0.0,0.0,0.0,0.0,0.0,0.0,0.0,0.0,0.0,0.0,0.0,0.0,0.0,0.0,0.0,0.0,0.0,0.0,0.0,0.0,0.0,0.0,0.0,0.0,0.0,0.0,0.0,0.0,0.0,0.0,0.0,0.0,0.0,0.0,0.0,0.0,0.0,0.0,0.0,0.0,0.0,0.0,0.0,0.0,0.0,0.0,0.0,0.0,0.0,0.0,0.0,0.0,0.0,0.0,0.0,0.0,0.0,0.0,0.0,0.0,0.0,0.0,0.0,0.0,0.0,0.0,0.0,0.0,0.0,0.0,0.0,0.0,0.0,0.0,0.0,0.0,0.0,0.0,0.0,0.0,0.0,0.0,0.0,0.0,0.0,0.0,0.0,0.0,0.0,0.0,0.0,0.0,0.0,0.0,0.0,0.0,0.0,0.0,0.0,-3.3124,-3.3124,-3.3124,0.0,-3.3124,-3.3124,-3.3124,-3.3124,-3.3124,-3.3124,0.0,0.0,0.0,0.0,0.0,0.0,0.0,0.0,0.0,0.0,0.0,0.0,0.0,0.0,0.0,0.0,0.0,0.0,0.0,0.0,0.0,0.0,0.0,0.0,0.0,0.0,0.0,0.0,0.0,0.0,0.0,0.0,0.0,0.0,0.0,0.0,0.0,0.0,0.0,0.0,0.0,0.0,0.0,0.0,0.0,0.0,0.0,0.0,0.0,0.0,0.0,0.0,0.0,0.0,0.0,0.0,0.0,0.0,0.0,0.0,0.0,0.0,0.0,0.0,0.0,0.0,0.0,0.0,0.0,0.0,0.0,0.0,0.0,0.0,0.0,0.0,0.0,0.0,0.0,0.0,0.0,0.0,0.0,0.0,0.0,0.0,0.0,0.0,0.0,0.0,0.0,0.0,0.0,0.0,0.0,0.0,0.0,0.0,0.0,0.0,0.0,0.0,-3.3124,-3.3124,-3.3124,-3.3124,-3.3124,-3.3124,-3.3124,-3.3124,-3.3124,0.0,0.0,0.0,0.0,0.0,0.0,0.0,0.0,0.0,0.0,0.0,0.0,0.0,0.0,0.0,0.0,0.0,0.0,0.0,0.0,0.0,0.0,0.0,0.0,0.0,0.0,0.0,0.0,0.0,0.0,0.0,0.0,0.0,0.0,0.0,0.0,0.0,0.0,0.0,0.0,0.0,0.0,0.0,0.0,0.0,0.0,0.0,0.0,0.0,0.0,0.0,0.0,0.0,0.0,0.0,0.0,0.0,0.0,0.0,0.0,0.0,0.0,0.0,0.0,0.0,0.0,0.0,0.0,0.0,0.0,0.0,0.0,0.0,0.0,0.0,0.0,0.0,0.0,0.0,0.0,0.0,0.0,0.0,0.0,0.0,0.0,0.0,0.0,0.0,0.0,0.0,0.0,0.0,0.0,0.0,0.0,0.0,0.0,0.0,0.0,0.0,0.0,0.0,-3.3124,-3.3124,-3.3124,-3.3124,-3.3124,-3.3124,-3.3124,-3.3124,-3.3124,-3.3124,0.0,0.0,0.0,0.0,0.0,0.0,0.0,0.0,0.0,0.0,0.0,0.0,0.0,0.0,0.0,0.0,0.0,0.0,0.0,0.0,0.0,0.0,0.0,0.0,0.0,0.0,0.0,0.0,0.0,0.0,0.0,0.0,0.0,0.0,0.0,0.0,0.0,0.0,0.0,0.0,0.0,0.0,0.0,0.0,0.0,0.0,0.0,0.0,0.0,0.0,0.0,0.0,0.0,0.0,0.0,0.0,0.0,0.0,0.0,0.0,0.0,0.0,0.0,0.0,0.0,0.0,0.0,0.0,0.0,0.0,0.0,0.0,0.0,0.0,0.0,0.0,0.0,0.0,0.0,0.0,0.0,0.0,0.0,0.0,0.0,0.0,0.0,0.0,0.0,0.0,0.0,0.0,0.0,0.0,0.0,0.0,0.0,0.0,0.0,0.0,0.0,0.0,-3.3124,-3.3124,-3.3124,-3.3124,-3.3124,-3.3124,-3.3124,-3.3124,-3.3124,-3.3124,0.0,0.0,0.0,0.0,0.0,0.0,0.0,0.0,0.0,0.0,0.0,0.0,0.0,0.0,0.0,0.0,0.0,0.0,0.0,0.0,0.0,0.0,0.0,0.0,0.0,0.0,0.0,0.0,0.0,0.0,0.0,0.0,0.0,0.0,0.0,0.0,0.0,0.0,0.0,0.0,0.0,0.0,0.0,0.0,0.0,0.0,0.0,0.0,0.0,0.0,0.0,0.0,0.0,0.0,0.0,0.0,0.0,0.0,0.0,0.0,0.0,0.0,0.0,0.0,0.0,0.0,0.0,0.0,0.0,0.0,0.0,0.0,0.0,0.0,0.0,0.0,0.0,0.0,0.0,0.0,0.0,0.0,0.0,0.0,0.0,0.0,0.0,0.0,0.0,0.0,0.0,0.0,0.0,0.0,0.0,0.0,0.0,0.0,0.0,0.0,0.0,0.0,-3.3124,-3.3124,-3.3124,-3.3124,-3.3124,-3.3124,-3.3124,-3.3124,-3.3124,-3.3124,0.0,0.0,0.0,0.0,0.0,0.0,0.0,0.0,0.0,0.0,0.0,0.0,0.0,0.0,0.0,0.0,0.0,0.0,0.0,0.0,0.0,0.0,0.0,0.0,0.0,0.0,0.0,0.0,0.0,0.0,0.0,0.0,0.0,0.0,0.0,0.0,0.0,0.0,0.0,0.0,0.0,0.0,0.0,0.0,0.0,0.0,0.0,0.0,0.0,0.0,0.0,0.0,0.0,0.0,0.0,0.0,0.0,0.0,0.0,0.0,-1.8167,0.0,0.0,0.0,0.0,0.0,0.0,0.0,0.0,0.0,0.0,0.0,0.0,0.0,0.0,0.0,0.0,0.0,0.0,0.0,0.0,0.0,0.0,0.0,0.0,0.0,0.0,0.0,0.0,0.0,0.0,0.0,0.0,0.0,0.0,0.0,0.0,0.0,0.0,0.0,0.0,0.0,-3.3124,-3.3124,-3.3124,-3.3124,-3.3124,-3.3124,-3.3124,-3.3124,-3.3124,-3.3124,-3.3124,0.0,0.0,0.0,0.0,0.0,0.0,0.0,0.0,0.0,0.0,0.0,0.0,0.0,0.0,0.0,0.0,0.0,0.0,0.0,0.0,0.0,0.0,0.0,0.0,0.0,0.0,0.0,0.0,0.0,0.0,0.0,0.0,0.0,0.0,0.0,0.0,0.0,0.0,0.0,0.0,0.0,0.0,0.0,0.0,0.0,0.0,0.0,0.0,0.0,0.0,0.0,0.0,0.0,0.0,0.0,0.0,0.0,0.0,0.0,0.0,-1.9146,0.0,0.0,0.0,0.0,0.0,0.0,0.0,0.0,0.0,0.0,0.0,0.0,0.0,0.0,0.0,0.0,0.0,0.0,0.0,0.0,0.0,0.0,0.0,0.0,0.0,0.0,0.0,0.0,0.0,0.0,0.0,0.0,0.0,0.0,0.0,0.0,0.0,0.0,0.0,0.0,-3.3124,-3.3124,-3.3124,-3.3124,-3.3124,-3.3124,-3.3124,-3.3124,-3.3124,-3.3124,-3.3197,0.0,0.0,0.0,0.0,0.0,0.0,0.0,0.0,0.0,0.0,0.0,0.0,0.0,0.0,0.0,0.0,0.0,0.0,0.0,0.0,0.0,0.0,0.0,0.0,0.0,0.0,0.0,0.0,0.0,0.0,0.0,0.0,0.0,0.0,0.0,0.0,0.0,0.0,0.0,0.0,0.0,0.0,0.0,0.0,0.0,0.0,0.0,0.0,0.0,0.0,0.0,0.0,0.0,-1.4626,-1.5914,-1.8069,-1.8377,-1.8646,-1.8869,-1.8639,-1.965,-2.1489,-2.1684,0.0,0.0,0.0,0.0,0.0,0.0,0.0,0.0,0.0,0.0,0.0,0.0,0.0,0.0,0.0,0.0,0.0,0.0,0.0,0.0,0.0,0.0,0.0,0.0,-3.1705,-3.1761,0.0,0.0,0.0,0.0,0.0,0.0,0.0,0.0,0.0,0.0,0.0,0.0,-3.3124,-3.3124,-3.3124,-3.3124,-3.3124,-3.3124,-3.3124,-3.3124,-3.3124,-3.3154,-3.3313,-3.3441,0.0,0.0,0.0,0.0,0.0,0.0,0.0,0.0,0.0,0.0,0.0,0.0,0.0,0.0,0.0,0.0,0.0,0.0,0.0,0.0,0.0,0.0,0.0,0.0,0.0,0.0,0.0,0.0,0.0,0.0,0.0,0.0,-0.6051,-0.594,0.0,0.0,0.0,0.0,0.0,0.0,0.0,0.0,0.0,0.0,0.0,0.0,0.0,-1.2395,-1.2169,-1.2164,-1.3186,-1.5227,-1.528,-1.6352,-1.837,-1.8705,-1.8869,-1.8921,-1.9123,0.0,-2.0731,-2.1633,0.0,0.0,0.0,0.0,0.0,0.0,0.0,0.0,0.0,0.0,0.0,0.0,0.0,0.0,0.0,0.0,0.0,0.0,0.0,0.0,0.0,0.0,-3.1705,-3.1705,-3.1849,-3.195,0.0,-3.1981,-3.2081,-3.2257,-3.2506,0.0,0.0,0.0,0.0,0.0,0.0,0.0,-3.3124,-3.3124,-3.3124,-3.3124,-3.3124,-3.3124,-3.3124,-3.3124,-3.3154,-3.3356,-3.3398,-3.3471,-3.3641,-3.3907,0.0,0.0,0.0,0.0,0.0,0.0,0.0,0.0,0.0,0.0,0.0,0.0,0.0,0.0,0.0,0.0,0.0,0.0,0.0,0.0,0.0,0.0,0.0,0.0,0.0,0.0,0.0,0.0,0.0,-0.6219,-0.6274,-0.6274,-0.6161,-0.6105,0.0,0.0,0.0,0.0,0.0,0.0,0.0,0.0,0.0,-1.2979,-1.2984,-1.288,-1.2791,-1.2673,-1.3646,-1.5604,-1.5672,-1.6723,-1.8698,-1.8966,-1.9123,-1.9123,-1.9227,-1.9828,-2.0783,-2.1887,-2.2894,-2.389,0.0,0.0,0.0,0.0,-2.5693,-2.5781,-2.6187,-2.637,0.0,-2.6887,0.0,0.0,0.0,0.0,0.0,0.0,0.0,0.0,0.0,0.0,-3.0329,-3.0779,-3.1015,-3.1395,-3.2081,-3.2213,-3.2257,0.0,-3.2692,-3.2896,-3.2723,0.0,0.0,0.0,0.0,-3.3124,-3.3124,-3.3124,-3.3124,-3.3124,-3.3124,-3.3124,-3.3124,-3.3197,-3.3313,-3.3398,-3.3654,-3.3823,-3.3907,-3.416,-3.4285,0.0,0.0,0.0,0.0,0.0,0.0,0.0,0.0,0.0,0.0,0.0,0.0,0.0,0.0,0.0,0.0,0.0,0.0,0.0,0.0,0.0,0.0,0.0,0.0,0.0,0.0,0.0,0.0,-0.6537,-0.6547,-0.6576,-0.6858,-0.6968,0.0,0.0,0.0,0.0,0.0,0.0,-1.2431,-1.3083,-1.349,-1.3609,-1.3662,-1.3637,-1.3578,-1.3632,-1.4545,-1.6252,-1.6542,-1.7576,-1.9264,-1.9387,-1.9456,-1.9396,-1.9368,-1.9724,-2.0585,-2.1937,-2.3135,-2.4196,-2.5274,-2.5693,-2.5693,-2.5693,-2.5693,-2.5693,-2.5693,-2.5693,-2.5693,-2.5693,0.0,-2.7284,-2.7284,0.0,0.0,0.0,0.0,-2.8773,-2.8773,-2.898,-2.9314,-2.9806,-3.0362,-3.0925,-3.1504,-3.2145,-3.2562,0.0,-3.2865,-3.3038,-3.2853,0.0,0.0,0.0,0.0,-3.3124,-3.3124,-3.3124,-3.3124,-3.3124,-3.3124,-3.3124,-3.3124,-3.3283,-3.3441,-3.3471,-3.3865,-3.4118,-3.416,-3.4314,-3.4397,-3.4397,0.0,0.0,0.0,0.0,0.0,0.0,0.0,0.0,0.0,0.0,0.0,0.0,0.0,0.0,0.0,0.0,0.0,0.0,0.0,0.0,0.0,0.0,0.0,0.0,0.0,0.0,0.0,0.0,0.0,-0.7428,-0.8299,0.0,0.0,0.0,0.0,-1.1593,-1.1721,-1.2498,-1.4164,-1.4296,-1.4592,-1.5056,-1.5114,-1.5002,-1.4829,-1.5704,-1.659,-1.7544,-1.8417,-1.9297,-2.0124,-1.9872,-1.9793,-1.9779,-1.9463,-1.9324,-1.9532,-2.1633,-2.3135,-2.4196,-2.5274,-2.5693,-2.5693,-2.5693,-2.5693,-2.5693,-2.5693,-2.5693,-2.5693,-2.5693,-2.6572,-2.7589,-2.7589,-2.8283,0.0,0.0,-2.8877,-2.9084,-2.9084,-2.9279,-2.9439,-2.9222,-3.0215,-3.0935,-2.9772,-3.138,-3.3081,0.0,-3.3068,-3.3124,-3.3068,0.0,-3.3124,-3.3124,-3.3124,-3.3124,-3.3124,-3.3124,-3.3124,-3.3124,-3.3124,-3.3124,-3.3124,-3.3283,-3.3471,-3.367,-3.3949,-3.4202,-3.4397,-3.4397,-3.4397,-3.4397,-3.4397,0.0,0.0,0.0,0.0,0.0,0.0,0.0,0.0,0.0,0.0,0.0,0.0,0.0,0.0,0.0,0.0,0.0,0.0,0.0,0.0,0.0,0.0,0.0,0.0,0.0,0.0,0.0,0.0,-0.9993,-1.0343,0.0,-1.0513,-1.1707,-1.2534,-1.2887,-1.3723,-1.4491,-1.5114,-1.5178,-1.5237,-1.5472,-1.5472,-1.5429,-1.5343,-1.5539,-1.6303,-1.7817,-1.7981,-1.8844,-2.0176,-2.012,-2.0069,-2.0062,-1.9945,-1.9894,-1.9979,-2.1262,-2.1899,-2.224,-2.3998,-2.4658,-2.4756,-2.5664,-2.5965,-2.5955,-2.6159,-2.6217,-2.6217,-2.6217,-2.639,-2.661,-2.661,-2.6897,-2.7173,-2.7067,-2.722,-2.7421,-2.7421,-2.762,-2.7914,-2.8315,-2.8921,-2.9646,-3.0429,-3.1303,-3.1977,-3.212,-3.2667,-3.3124,-3.3124,-3.3124,-3.3124,-3.3124,-3.3124,-3.3124,-3.3124,-3.3124,-3.3124,-3.3124,-3.3124,-3.3154,-3.3283,-3.3471,-3.3683,-3.3937,-3.416,-3.4314,-3.4397,-3.4397,-3.4397,-3.4397,-3.4397,-3.4397,0.0,0.0,0.0,0.0,0.0,0.0,0.0,0.0,0.0,0.0,0.0,0.0,0.0,0.0,0.0,0.0,0.0,0.0,0.0,0.0,0.0,0.0,0.0,0.0,0.0,0.0,-1.1492,-1.1495,-1.1912,-1.2207,-1.2207,-1.3435,-1.4226,-1.4226,-1.5086,-1.5634,-1.5715,-1.5715,-1.5758,-1.5838,-1.5838,-1.5838,-1.5838,-1.6332,-1.7126,-1.8338,-1.8753,-1.959,-2.072,-2.0446,-2.0343,-2.0336,-2.0227,-2.0183,-2.0216,-2.0796,-2.0877,-2.0854,-2.2998,-2.3998,-2.4344,-2.5441,-2.5994,-2.6245,-2.6448,-2.6496,-2.6496,-2.6602,-2.6496,-2.6352,-2.6352,-2.6352,-2.6342,-2.6245,-2.6448,-2.6651,-2.6651,-2.6842,-2.7129,-2.7536,-2.8102,-2.8746,-2.9635,-3.0396,-3.1038,-3.135,-3.233,-3.2982,-3.2667,-3.2896,-3.3124,-3.3124,-3.3124,-3.3124,-3.3124,-3.3124,-3.3124,-3.3124,-3.3154,-3.3283,-3.3398,-3.382,-3.41,-3.4089,-3.4468,-3.4607,-3.441,-3.4397,-3.4502,-3.4698,-3.4698,-3.4607,-3.4397,0.0,0.0,0.0,0.0,0.0,0.0,0.0,0.0,0.0,0.0,0.0,0.0,0.0,0.0,0.0,0.0,0.0,0.0,0.0,0.0,0.0,0.0,0.0,-1.1825,-1.1707,-1.1773,-1.1831,-1.2942,-1.3784,-1.3784,-1.4873,-1.5601,-1.5612,-1.5612,-1.5715,-1.6007,-1.6017,-1.6131,-1.6307,-1.6312,-1.6312,-1.6312,-1.8208,-1.9181,-1.9242,-2.0893,-2.1715,-2.1686,-2.1057,-2.0764,-2.0735,-2.0365,-2.0219,-2.0212,-2.0252,-2.0245,-2.0451,-2.2485,-2.3746,-2.4529,-2.5128,-2.5888,-2.6585,-2.6585,-2.6585,-2.6585,-2.6893,-2.6941,-2.6941,-2.6941,-2.6941,-2.6893,-2.6643,-2.6739,-2.6941,-2.6941,-2.717,-2.7256,-2.7027,-2.7852,-2.8405,-2.7266,-2.8675,-3.0365,-3.0847,-3.2111,-3.276,-3.1805,-3.2444,-3.3088,-3.3088,-3.3131,0.0,-3.3174,-3.3174,-3.3174,-3.3174,-3.3333,-3.3436,-3.3424,-3.435,-3.4684,-3.4157,-3.4819,-3.5012,-3.4424,-3.4397,-3.4672,-3.526,-3.5273,-3.4986,-3.4397,0.0,0.0,0.0,0.0,0.0,0.0,0.0,0.0,0.0,0.0,0.0,0.0,0.0,0.0,0.0,0.0,0.0,0.0,0.0,0.0,0.0,-1.478,-1.4597,-1.3278,-1.3941,-1.4499,-1.45,-1.4873,-1.5056,-1.5056,-1.5418,-1.5666,-1.5899,-1.5909,-1.6017,-1.6204,-1.6215,-1.6242,-1.6312,-1.6312,-1.6312,-1.6312,-1.7526,-1.8557,-1.9181,-2.0435,-2.1427,-2.2045,-2.1862,-2.165,-2.1423,-2.1335,-2.1159,-2.0925,-2.1122,-2.1246,-2.1311,-2.2409,-2.3366,-2.4342,-2.5904,-2.7132,-2.8037,-2.8037,-2.8037,-2.8048,-2.8097,-2.7988,-2.7839,-2.7839,-2.7839,-2.7839,-2.773,-2.7938,-2.8146,-2.8146,-2.8196,-2.8245,-2.8146,-2.8382,-2.8715,-2.9116,-2.9676,-3.0142,-3.0323,-3.1222,-3.2099,-3.2606,-3.2926,-3.312,-3.312,-3.3744,0.0,-3.4274,-3.4274,-3.4274,-3.4274,-3.4496,-3.4552,-3.4305,-3.4667,-3.4727,-3.4353,-3.4512,-3.4567,-3.441,-3.4397,-3.4476,-3.4633,-3.4646,-3.4567,0.0,0.0,0.0,0.0,0.0,0.0,0.0,0.0,0.0,0.0,0.0,0.0,0.0,0.0,0.0,0.0,0.0,0.0,0.0,0.0,0.0,0.0,-1.5601,-1.5353,-1.457,-1.5116,-1.5601,-1.5601,-1.5601,-1.5639,-1.5736,-1.5747,-1.5844,-1.6081,-1.6102,-1.6204,-1.6447,-1.6457,-1.6506,-1.6597,-1.6603,-1.6603,-1.6603,-1.8027,-1.9026,-1.9591,-2.0937,-2.1861,-2.2359,-2.2242,-2.2081,-2.1898,-2.1898,-2.1796,-2.1664,-2.2085,-2.223,0.0,0.0,0.0,0.0,0.0,-2.7743,-2.8618,-2.8618,-2.8618,-2.8618,-2.8618,-2.8507,-2.8357,-2.8357,-2.8357,-2.8357,-2.8357,-2.8457,-2.8618,-2.8618,-2.8618,-2.8618,-2.8618,-2.8618,-2.8757,-2.9353,-2.9451,-2.9642,-3.0329,-3.0499,0.0,-3.2248,-3.2842,-3.3118,-3.3118,-3.3995,-3.468,-3.468,-3.4816,-3.4861,-3.4861,-3.5175,-3.5212,-3.4765,-3.5137,0.0,0.0,0.0,-3.4659,-3.441,-3.4633,0.0,0.0,0.0,-3.4646,-3.4397,0.0,0.0,0.0,-3.4397,-3.4397,0.0,0.0,0.0,0.0,0.0,0.0,0.0,0.0,0.0,0.0,0.0,0.0,0.0,0.0,0.0,0.0,-1.5601,-1.5601,-1.5601,-1.5601,-1.5601,-1.5601,-1.5623,-1.572,-1.599,-1.6034,-1.6153,-1.6334,-1.6355,-1.6457,-1.6689,0.0,0.0,0.0,0.0,-1.7001,-1.7001,-1.9054,-2.0075,-2.0138,-2.1817,-2.2681,-2.2667,-2.241,-2.2264,-2.2235,-2.2235,-2.2273,-2.2356,-2.2922,-2.3271,-2.3383,-2.3296,-2.3659,-2.4509,-2.6689,-2.7935,-2.8612,-2.8723,0.0,0.0,-2.8773,-2.8773,-2.8773,-2.8773,-2.8773,-2.8773,-2.8773,-2.8773,-2.8773,-2.8773,-2.8773,-2.8773,-2.8773,-2.8773,-2.8773,-2.8773,-2.8773,-2.9178,-3.0504,-3.0016,-2.9806,-3.1162,-3.2371,-3.3111,-3.3111,-3.4133,-3.4901,-3.4901,-3.5095,-3.5276,-3.5276,0.0,0.0,-3.5119,-3.5783,-3.5717,-3.4567,-3.4933,-3.4959,-3.441,-3.4907,-3.4946,-3.441,-3.492,-3.4933,-3.4397,-3.4397,-3.4397,-3.4397,-3.4397,-3.4439,0.0,0.0,0.0,0.0,0.0,0.0,0.0,0.0,0.0,0.0,0.0,0.0,0.0,0.0,0.0,-1.5601,-1.5601,-1.5601,-1.5601,-1.5601,-1.5601,-1.5601,-1.5763,-1.5958,-1.6001,-1.6129,-1.6344,-1.6576,-1.6597,-1.6694,-1.6926,-1.6937,-1.6958,-1.7001,-1.7001,-1.7001,-1.7001,-1.9054,-2.0075,-2.0138,0.0,0.0,-2.301,-2.2959,-2.2784,-2.2535,-2.2535,-2.269,-2.2982,-2.3567,-2.445,-2.5344,-2.5249,-2.543,-2.591,-2.7733,-2.8545,-2.8755,-2.9517,-2.9725,-2.9725,-2.9725,-2.9725,-2.9725,-2.9725,-2.9725,0.0,-2.9725,-2.9725,-2.9725,-2.9725,-2.9725,-2.9725,-2.9725,-2.9725,-2.9725,-2.9725,-2.9725,-2.9808,-3.014,-3.0016,-2.9932,-3.0276,-3.1889,-3.3198,-3.3198,-3.4823,-3.6091,-3.6091,-3.6265,-3.6405,-3.6405,-3.688,-3.6936,-3.634,-3.6629,-3.6345,-3.5195,-3.4776,-3.4515,-3.4397,-3.4502,-3.4515,-3.4397,-3.4515,-3.4515,-3.4397,-3.4397,-3.4397,-3.4397,-3.4397,-3.4799,0.0,0.0,0.0,0.0,0.0,0.0,0.0,0.0,0.0,0.0,0.0,-1.5176,-1.5531,0.0,-1.5601,-1.5601,-1.5601,-1.5601,-1.5601,-1.5601,-1.5645,-1.5758,-1.5936,-1.6104,-1.6342,-1.6414,-1.6581,-1.6818,-1.6834,-1.6883,-1.6996,-1.7001,-1.7001,-1.7001,-1.7001,-1.726,-1.777,-1.931,-2.0335,-2.0843,-2.2355,-2.3106,-2.3106,-2.3106,-2.3018,-2.2864,-2.2864,-2.3145,-2.3665,-2.4623,-2.5483,-2.6191,-2.616,-2.6364,-2.6779,-2.7955,-2.8648,-2.9112,-2.9751,-2.9994,-2.9994,-2.9994,-2.9994,-2.9994,-2.9994,-2.9994,-2.9994,-2.9994,-2.9994,-2.9994,-2.9994,-2.9994,-2.9994,-2.9994,-2.9994,-2.9994,-2.9994,-2.9994,-2.9994,-2.9994,-2.9994,-2.9994,-2.9994,-3.1341,-3.26,-3.3101,-3.4678,-3.5953,-3.6487,-3.6875,-3.7108,-3.7108,-3.7459,-3.7469,-3.6858,-3.6635,-3.6188,-3.5351,-3.5012,-3.4711,-3.441,-3.4397,-3.4397,-3.4397,-3.4397,-3.4397,-3.4397,-3.4397,-3.4397,-3.4397,-3.4397,-3.4634,0.0,0.0,0.0,0.0,0.0,0.0,0.0,-1.4369,-1.46,-1.4832,-1.5079,-1.5263,-1.5553,-1.5601,-1.5601,-1.5601,-1.5601,-1.5601,-1.5601,-1.5639,-1.5758,-1.6055,-1.6077,-1.625,-1.6682,-1.6769,-1.6807,-1.699,-1.7001,-1.7001,-1.7001,-1.7001,-1.7001,-1.7001,-1.7001,-1.7389,-1.8215,-1.9501,-2.0526,-2.1292,-2.2543,-2.3106,-2.3106,-2.3106,-2.3106,-2.3106,-2.3362,-2.386,-2.4595,-2.5831,-2.6446,-2.6602,-2.6602,-2.6826,-2.7249,-2.7669,-2.8382,-2.9223,-2.9792,-3.0043,-3.0129,-3.0129,-3.0067,-2.9994,-2.9994,-2.9994,-2.9994,-2.9994,-2.9994,-2.9994,-2.9994,-2.9994,-2.9994,-2.9994,-2.9994,-2.9994,-2.9994,-2.9994,-2.9994,-2.9994,-2.9994,-2.9994,-2.9994,-3.0744,-3.1637,-3.275,-3.419,-3.5511,-3.6285,-3.7062,-3.7505,-3.7505,-3.7749,-3.7704,-3.722,-3.6619,-3.6096,-3.5652,-3.5417,-3.5077,-3.4593,-3.4463,-3.4397,-3.4397,-3.4397,-3.4397,-3.4397,-3.4397,-3.4397,-3.4397,-3.4397,-3.4481,-1.4196,-1.4196,-1.4196,-1.4196,-1.4196,-1.4196,0.0,-1.4369,-1.46,-1.4832,-1.5079,-1.5263,-1.5553,-1.5601,-1.5601,-1.5601,-1.5601,-1.5601,-1.5601,-1.5839,-1.6,-1.6242,-1.6274,-1.6377,-1.6698,-1.6845,-1.6974,-1.7001,-1.7001,-1.7001,-1.7001,-1.7001,-1.7001,-1.7001,-1.7001,-1.7066,-1.7195,-1.9118,-2.0138,-2.0272,-2.216,-2.3106,-2.3106,-2.3106,-2.3106,-2.3168,-2.4363,-2.528,-2.5953,-2.67,-2.6987,-2.7013,-2.7013,-2.7039,-2.7159,-2.7227,-2.7909,-2.8802,-2.959,-3.0221,-3.0605,-3.0605,-3.0325,-2.9994,-2.9994,-2.9994,-2.9994,-2.9994,-2.9994,-2.9994,-2.9994,-2.9994,-2.9994,-2.9994,-2.9994,-2.9994,-2.9994,-2.9994,-2.9994,-2.9994,-2.9994,-2.9994,-2.9994,-3.0099,-3.0547,-3.1637,-3.3723,-3.5223,-3.5367,-3.6628,-3.7505,-3.7505,-3.7749,-3.7874,-3.7808,-3.7246,-3.6881,-3.6815,-3.5861,-3.5273,-3.5195,-3.4685,-3.4397,-3.4397,-3.4397,-3.4397,-3.4397,-3.4397,-3.4397,-3.4397,-3.4397,-3.4799,-1.4196,-1.4196,-1.4196,-1.4196,-1.4196,-1.4196,-1.4196,-1.4476,-1.4762,-1.4864,-1.5187,-1.5483,-1.558,-1.5601,-1.5601,0.0,-1.5601,-1.5601,-1.5601,-1.5861,-1.6099,-1.6285,-1.6436,-1.6608,-1.684,-1.6947,-1.7001,-1.7001,-1.7001,-1.7001,-1.7001,-1.7001,-1.7001,-1.7001,-1.7001,-1.7577,-1.8798,-1.9693,-2.0709,-2.1846,-2.2731,-2.3106,-2.3106,-2.3106,-2.3293,-2.3736,-2.4672,-2.5472,-2.6136,-2.6822,-2.7073,-2.7073,-2.7073,-2.7073,-2.7125,-2.7449,-2.7806,-2.8288,-2.947,-3.0053,-3.0312,-3.0609,-3.0553,-3.0346,-3.0077,-2.9994,-2.9994,-2.9994,-2.9994,-2.9994,-2.9994,-2.9994,-2.9994,-2.9994,-2.9994,-2.9994,-2.9994,-2.9994,-2.9994,-2.9994,-2.9994,-2.9994,-2.9994,-3.0245,-3.064,-3.1084,-3.3005,-3.4788,-3.5738,-3.6968,-3.7703,-3.7703,-3.7854,-3.79,-3.79,-3.7678,-3.7377,-3.7024,-3.6227,-3.5626,-3.5312,-3.4724,-3.4397,-3.4397,-3.4397,-3.4397,-3.4397,-3.4397,-3.4397,-3.4397,-3.4397,-3.4592,-1.4196,-1.4196,-1.4196,-1.4196,-1.4196,-1.4196,-1.4196,-1.4552,-1.4885,-1.4885,-1.5262,-1.5601,-1.5601,-1.5601,-1.5601,-1.5601,-1.5601,-1.5601,-1.5601,-1.586,-1.6113,-1.6291,-1.6576,-1.6824,-1.6985,-1.7001,-1.7001,-1.7001,-1.7001,-1.7001,-1.7001,-1.7001,-1.7001,-1.7001,-1.726,-1.8156,-1.9629,-2.0202,-2.1215,-2.2668,-2.2981,-2.3106,-2.3106,-2.3106,-2.3479,-2.4108,-2.4795,-2.5472,-2.6136,-2.6822,-2.7073,-2.7073,-2.7073,-2.7073,-2.7159,-2.7454,-2.7753,-2.8178,-2.9441,-2.9993,-3.0181,-3.0826,-3.0895,-3.0626,-3.0294,-3.0098,-2.9994,-2.9994,-2.9994,-2.9994,-2.9994,-2.9994,-2.9994,-2.9994,-2.9994,-2.9994,-2.9994,-2.9994,-2.9994,-2.9994,-2.9994,-2.9994,-2.9994,-3.0443,-3.0836,-3.1002,-3.2616,-3.4326,-3.5678,-3.7062,-3.79,-3.79,-3.79,-3.79,-3.79,-3.79,-3.7717,-3.7286,-3.6684,-3.6109,-3.5534,-3.4959,-3.4567,-3.4397,-3.4397,-3.4397,-3.4397,-3.4397,-3.4397,-3.4397,-3.4397,-3.4397,-1.4196,-1.4196,-1.4196,-1.4196,-1.4196,-1.4196,-1.4196,-1.4552,-1.4885,-1.4885,-1.5262,-1.5601,-1.5601,-1.5601,-1.5601,-1.5601,-1.5601,-1.5601,-1.5601,-1.6005,-1.6307,-1.6312,-1.6716,-1.6996,0.0,-1.7001,-1.7001,-1.7001,-1.7001,-1.7001,-1.7001,-1.7001,-1.7001,-1.7001,-1.7963,-1.8472,-1.8536,-2.0519,-2.1607,-2.167,-2.2613,-2.3106,-2.3106,-2.3106,-2.3479,-2.4108,-2.4795,-2.5472,-2.6136,-2.6822,-2.7073,-2.7073,-2.7073,-2.7073,-2.7073,-2.7125,-2.7702,-2.8632,-2.9561,-3.0209,-3.0724,-3.1646,-3.1402,-3.0688,-3.0667,-3.0356,-2.9994,-2.9994,-2.9994,-2.9994,-2.9994,-2.9994,-2.9994,-2.9994,-2.9994,-2.9994,-2.9994,-2.9994,-2.9994,-2.9994,-2.9994,-2.9994,-2.9994,-3.0443,-3.1002,-3.1516,-3.2762,-3.3883,-3.4642,-3.6568,-3.79,-3.79,-3.79,-3.79,-3.79,-3.79,-3.79,-3.7874,-3.7312,-3.6711,-3.6109,-3.5561,-3.4999,-3.441,-3.4397,-3.4397,-3.4397,-3.4397,-3.4397,-3.4397,-3.4397,-3.4397,-1.4353,-1.4196,-1.4196,-1.4196,-1.4196,-1.4234,-1.4385,-1.4659,-1.4929,-1.509,-1.5381,-1.5601,-1.5601,-1.5601,-1.5601,-1.5601,-1.5601,-1.5601,-1.5601,-1.6011,-1.6312,-1.6312,-1.6721,0.0,0.0,0.0,0.0,-1.7001,-1.7001,-1.7001,-1.7001,-1.7001,-1.7324,-1.7963,-1.8343,-1.9176,-2.0519,-2.1222,-2.1922,-2.2606,-2.2918,-2.3106,-2.3106,-2.3106,-2.3736,-2.4795,-2.4988,-2.5717,-2.6761,-2.7012,-2.7073,-2.7073,-2.7073,-2.7073,-2.7073,-2.7073,-2.7315,-2.7719,-2.8659,-2.9496,-3.0267,-3.0844,-3.1111,-3.1091,-3.0781,-3.0356,-2.9994,-2.9994,-2.9994,-2.9994,-2.9994,-2.9994,-2.9994,-2.9994,-2.9994,-2.9994,-2.9994,-2.9994,-2.9994,-2.9994,-2.9994,-3.0099,-3.0495,-3.095,-3.1801,-3.325,-3.4288,-3.521,-3.5928,-3.7108,-3.79,-3.79,-3.79,-3.79,-3.79,-3.79,-3.79,-3.79,-3.7338,-3.6737,-3.6123,-3.5587,-3.5012,-3.441,-3.4397,-3.4397,-3.4397,-3.4397,-3.4397,-3.4397,-3.4397,-3.4397,-1.525,-1.5095,-1.5041,-1.4724,-1.4665,-1.4624,-1.4537,-1.4713,-1.4955,-1.514,-1.5435,-1.5601,-1.5601,-1.5887,-1.6005,-1.5655,-1.5893,-1.6005,-1.5655,-1.6011,-1.6312,-1.6312,-1.6721,-1.7001,0.0,0.0,0.0,-1.7001,-1.7001,-1.7001,-1.7001,-1.7001,-1.7453,-1.8472,-1.8856,-1.9884,-2.1607,-2.1985,-2.2487,-2.3106,-2.3106,-2.3106,-2.3113,-2.3362,-2.3922,-2.4795,-2.5226,-2.5961,-2.6761,-2.7012,-2.7073,-2.7073,-2.7073,-2.7073,-2.7073,-2.7073,-2.7073,-2.7254,-2.854,-2.9422,-3.0071,-3.1025,-3.1345,-3.1319,-3.1029,-3.0491,-2.9994,-2.9994,-2.9994,-2.9994,-2.9994,-2.9994,-2.9994,-2.9994,-2.9994,-2.9994,-2.9994,-2.9994,-2.9994,-2.9994,-3.0141,-3.0391,-3.0733,-3.1403,-3.237,-3.377,-3.469,-3.5559,-3.6568,-3.7155,-3.7564,-3.7854,-3.79,-3.79,-3.79,-3.79,-3.79,-3.79,-3.7338,-3.6737,-3.6123,-3.5587,-3.5012,-3.441,-3.4397,-3.4397,-3.4397,-3.4397,-3.4397,-3.4397,-3.4397,-3.4397,-1.673,-1.6677,-1.6518,-1.5773,-1.5559,-1.5415,-1.4823,-1.4836,-1.5126,-1.533,-1.5563,-1.5715,0.0,0.0,-1.6762,-1.5833,-1.6473,-1.6762,-1.5774,-1.6132,-1.6436,0.0,0.0,0.0,0.0,0.0,0.0,-1.7066,0.0,-1.7001,-1.7001,-1.7066,-1.7512,-1.8536,-1.9629,-2.0652,-2.167,-2.2606,-2.3106,-2.3106,-2.3106,-2.3106,-2.3106,-2.3736,-2.4046,-2.417,-2.5456,-2.6075,-2.6136,-2.6822,-2.7073,-2.7073,-2.7073,-2.7073,-2.7073,-2.7073,-2.7073,-2.7366,-2.9176,-2.9884,-3.0177,-3.196,-3.206,-3.1381,-3.1381,-3.0729,-2.9994,-2.9994,-2.9994,-2.9994,-2.9994,-2.9994,-2.9994,-2.9994,-2.9994,-2.9994,-2.9994,-2.9994,-2.9994,-2.9994,-3.0443,-3.0836,-3.0836,-3.175,-3.2633,-3.3231,-3.393,-3.4921,-3.6427,-3.6675,-3.7015,-3.7808,-3.79,-3.79,-3.79,-3.79,-3.79,-3.79,-3.7338,-3.6737,-3.6123,-3.5587,-3.5012,-3.441,-3.4397,-3.4397,-3.4397,-3.4397,-3.4397,-3.4397,-3.4397,-3.4397,-1.6889,-1.6677,-1.6624,-1.6465,-1.6411,-1.6483,-1.6741,-1.6845,-1.7028,-1.7493,-1.7646,-1.7689,-1.7689,0.0,0.0,-1.682,-1.7402,0.0,-1.6762,-1.769,0.0,-1.7409,0.0,-1.7835,-1.7066,-1.7001,0.0,0.0,-1.7453,-1.7001,-1.7001,-1.7706,-1.86,-1.9629,-2.0652,-2.1727,-2.2738,-2.2981,-2.3106,-2.3106,-2.3106,-2.3106,-2.3113,-2.33,-2.3611,-2.417,-2.498,-2.5647,-2.6136,-2.6822,-2.7073,-2.7073,-2.7073,-2.7073,-2.7073,-2.7073,-2.7073,-2.7246,-2.8421,-2.9294,-3.0001,-3.048,-3.0947,-3.1381,-3.1381,-3.0729,-2.9994,-2.9994,-2.9994,-2.9994,-2.9994,-2.9994,-2.9994,-2.9994,-2.9994,-2.9994,-2.9994,-2.9994,-2.9994,-2.9994,-3.0754,-3.1414,-3.1414,-3.2342,-3.3119,-3.3281,-3.393,-3.4775,-3.5763,-3.638,-3.7015,-3.7808,-3.79,-3.79,-3.79,-3.79,-3.79,-3.79,-3.7338,-3.6737,-3.6123,-3.5587,-3.5012,-3.441,-3.4397,-3.4397,-3.4397,-3.4397,-3.4397,-3.4397,-3.4397,-3.4397,-1.816,-1.794,-1.7767,-1.7576,-1.7404,-1.735,-1.7546,-1.7618,-1.7722,-1.8275,-1.8389,-1.8389,-1.8389,-1.8745,0.0,0.0,0.0,0.0,-1.7753,-1.8526,-1.8998,0.0,-1.8854,0.0,-1.8413,-1.8349,-1.86,0.0,-1.8215,-1.7835,-1.8349,-1.892,-1.9693,-2.0716,-2.1292,-2.2111,-2.3106,-2.3106,-2.3106,-2.3106,-2.3106,-2.3106,-2.3113,-2.3425,-2.3922,-2.461,0.0,-2.59,-2.6571,-2.6943,-2.7073,-2.7073,-2.7073,-2.7073,-2.7073,-2.7073,-2.7073,-2.7194,-2.7719,-2.848,-2.9412,-3.0236,-3.0947,-3.1381,-3.1381,-3.0729,-2.9994,-2.9994,-2.9994,-2.9994,-2.9994,-2.9994,-2.9994,-2.9994,-2.9994,-2.9994,-2.9994,-2.9994,-3.0151,-3.0609,-3.1167,-3.1783,-3.224,-3.2869,-3.3281,-3.3281,-3.393,-3.4678,-3.5523,-3.6238,-3.7015,-3.7808,-3.79,-3.79,-3.79,-3.79,-3.7795,-3.7521,-3.6946,-3.6345,-3.577,-3.5208,-3.4737,-3.441,-3.4397,-3.4397,-3.4397,-3.4397,-3.4397,-3.4397,-3.4397,-3.4397,-1.9742,-1.961,-1.9246,-1.8807,-1.8427,-1.8146,-1.7987,-1.7952,-1.8114,-1.868,-1.8797,-1.8797,-1.8797,-1.9455,-1.9693,-1.8745,0.0,-1.9635,-1.8745,-1.9184,-1.9546,-1.9424,-1.9925,-2.0265,-2.0144,-2.0075,-2.0138,-2.0272,-1.9431,-1.924,-2.0075,-2.0208,-2.0779,-2.1796,-2.1796,-2.2237,-2.3106,-2.3106,-2.3106,-2.3106,-2.3106,-2.3106,-2.3106,-2.3798,-2.4417,-2.498,-2.577,0.0,-2.6952,-2.7073,-2.7073,-2.7073,-2.7073,-2.7073,-2.7073,-2.7073,-2.7039,-2.6996,-2.6996,-2.7605,-2.8624,-3.0422,-3.1124,-3.1196,-3.1309,-3.0677,-2.9994,-2.9994,-2.9994,-2.9994,-2.9994,-2.9994,-2.9994,-2.9994,-2.9994,-2.9994,-2.9994,-2.9994,-3.0308,-3.1311,-3.1567,-3.1936,-3.3019,-3.3231,-3.3281,-3.3281,-3.393,-3.4678,-3.5523,-3.6238,-3.7015,-3.7808,-3.79,-3.79,-3.79,-3.7835,-3.756,-3.7037,-3.6371,-3.5796,-3.5312,-3.4724,-3.4397,-3.4397,-3.4397,-3.4397,-3.4397,-3.4397,-3.4397,-3.4397,-3.4397,-3.4397,-1.9801,-1.9779,-1.9689,-1.958,-1.9295,-1.9177,-1.9649,-1.9738,0.0,-2.0608,-2.068,-2.068,-2.068,-2.0859,-2.063,-1.9693,-2.0335,-2.063,-1.9693,-2.075,-2.1321,0.0,-2.0928,-2.1032,-2.0202,-2.0075,0.0,0.0,0.0,-2.0779,-2.0138,-2.0906,-2.1796,-2.2801,-2.2856,-2.2918,-2.3106,-2.3106,-2.3106,-2.3106,-2.3106,-2.3106,-2.3106,-2.3798,-2.417,-2.4355,-2.5578,0.0,-2.6319,-2.6882,-2.7073,-2.7073,-2.7073,-2.7073,-2.7073,-2.7073,-2.6867,-2.6585,-2.6585,-2.7018,-2.7716,-2.9134,-2.9838,-3.0224,-3.0699,-3.0429,-2.9994,-2.9994,-2.9994,-2.9994,-2.9994,-2.9994,-2.9994,-2.9994,-2.9994,-2.9994,-2.9994,-2.9994,-3.0193,-3.0847,-3.1311,-3.1823,-3.242,-3.2958,-3.3281,-3.3281,-3.393,-3.4678,-3.5523,-3.6238,-3.7015,-3.7808,-3.79,-3.79,-3.79,-3.7442,-3.7116,-3.7011,-3.6018,-3.5391,-3.5299,-3.4724,-3.4397,-3.4397,-3.4397,-3.4397,-3.4397,-3.4397,-3.4397,-3.4397,-3.4397,-3.4397,-1.9916,-1.9762,-1.9647,-1.993,-1.9638,-1.9447,-2.0037,0.0,0.0,-2.1079,-2.1211,-2.1211,-2.1211,-2.1211,0.0,-2.063,-2.0917,-2.1039,-2.0572,-2.1328,0.0,-2.1481,-2.1838,-2.1991,0.0,-2.1657,-2.1846,0.0,0.0,-2.2167,-2.172,-2.2104,-2.2606,-2.3113,-2.3106,-2.3106,-2.3106,-2.3106,-2.3106,-2.3106,-2.3106,-2.3106,-2.3106,-2.3798,-2.4293,-2.4672,-2.5647,0.0,-2.664,-2.6952,-2.7073,-2.7073,-2.7073,-2.7073,-2.7047,-2.6842,-2.6653,-2.6465,-2.6268,-2.6371,-2.6725,-2.7605,-2.8706,-2.9794,-3.0471,-3.0356,-2.9994,-2.9994,-2.9994,-2.9994,-2.9994,-2.9994,-2.9994,-2.9994,-2.9994,-2.9994,-2.9994,-2.9994,-3.0245,-3.1054,-3.1414,-3.1885,-3.2695,-3.3119,-3.3281,-3.3281,-3.4274,-3.5174,-3.5571,-3.6628,-3.7459,-3.7854,-3.79,-3.7782,-3.7469,-3.7168,-3.675,-3.6149,-3.56,-3.5155,-3.4842,-3.4554,-3.4397,-3.4397,-3.4397,-3.4397,-3.4397,-3.4397,-3.4397,-3.4397,-3.4397,-3.4397,-1.9996,-1.9769,-1.9499,-2.0011,-1.9703,-1.9447,-2.0037,-2.0183,0.0,-2.1079,-2.1211,-2.1211,-2.1211,0.0,-2.1211,0.0,-2.1211,-2.1211,-2.1211,-2.1489,-2.1818,0.0,-2.244,0.0,-2.3076,-2.3106,0.0,0.0,0.0,0.0,-2.3106,-2.3106,-2.3106,-2.3106,-2.3106,-2.3106,-2.3106,-2.3106,-2.3106,-2.3106,-2.3106,-2.3106,-2.3113,-2.3922,-2.461,-2.5173,-2.5953,0.0,0.0,-2.6944,-2.6902,-2.6833,-2.6833,-2.6833,-2.679,-2.6482,-2.6319,-2.6208,-2.5917,-2.5763,-2.5823,-2.6565,-2.7897,-2.9223,-3.0018,-3.0115,-2.9994,-2.9994,-2.9994,-2.9994,-2.9994,-2.9994,-2.9994,-2.9994,-2.9994,-2.9994,-2.9994,-3.0099,-3.0453,-3.1424,-3.1669,-3.2088,-3.3119,-3.3281,-3.3281,-3.3281,-3.4387,-3.5208,-3.5399,-3.6502,-3.7339,-3.7521,-3.7639,-3.7469,-3.6867,-3.6711,-3.6253,-3.5351,-3.5182,-3.4894,-3.441,-3.4397,-3.4397,-3.4397,-3.4397,-3.4397,-3.4397,-3.4397,-3.4397,-3.4397,-3.4397,-3.4397,-1.9845,-1.9815,-1.9786,-1.9845,-1.9595,-1.9447,-2.0037,0.0,-2.0365,-2.1079,-2.1211,-2.1211,-2.1211,-2.1211,-2.1211,-2.1211,0.0,-2.1211,0.0,0.0,-2.1818,-2.214,0.0,0.0,0.0,0.0,0.0,0.0,0.0,0.0,-2.3106,-2.3106,-2.3106,-2.3106,-2.3106,-2.3106,-2.3106,-2.3106,-2.3106,-2.3106,-2.3106,-2.3106,-2.3168,-2.4417,-2.5042,-2.5173,-2.6457,0.0,0.0,-2.6542,-2.6345,-2.5987,-2.5987,-2.5987,-2.6037,-2.5944,-2.5771,-2.552,-2.5429,-2.5206,-2.5185,-2.6818,-2.7716,-2.8236,-2.8716,-2.9426,-2.9994,-2.9994,-2.9994,-2.9994,-2.9994,-2.9994,-2.9994,-2.9994,-2.9994,-2.9994,-2.9994,-3.0391,-3.0899,-3.1465,-3.1964,-3.2533,-3.317,-3.3281,-3.3281,-3.3281,-3.3555,-3.4054,-3.4705,-3.5073,-3.5526,-3.6178,-3.6763,-3.6841,-3.624,-3.5744,-3.5404,-3.5312,-3.4789,-3.445,-3.4397,-3.4397,-3.4397,-3.4397,-3.4397,-3.4397,-3.4397,-3.4397,-3.4397,-3.4397,-3.4397,-3.4397,-1.9764,-1.9676,-1.9566,-1.9764,-1.9573,-1.9447,-2.0037,0.0,-2.0365,-2.1079,-2.1211,-2.1211,-2.1211,-2.1211,-2.1211,0.0,0.0,0.0,-2.1211,0.0,0.0,0.0,0.0,0.0,0.0,0.0,0.0,0.0,0.0,0.0,-2.3106,-2.3106,-2.3106,-2.3106,-2.3106,-2.3018,-2.282,-2.282,-2.2725,-2.2557,-2.2557,-2.2732,-2.3149,-2.4047,-2.4647,-2.5074,-2.5974,0.0,0.0,-2.6157,-2.6071,-2.5876,-2.5876,-2.5876,-2.585,-2.5677,-2.5497,-2.54,-2.5112,-2.4941,-2.4979,-2.62,-2.7073,-2.7892,-2.9129,-2.9722,-2.9994,-2.9994,-2.9994,-2.9994,-2.9994,-2.9994,-2.9994,-2.9994,-2.9994,-2.9994,-2.9994,-3.0443,-3.094,-3.1527,-3.2015,-3.2572,-3.3181,-3.3017,-3.2799,-3.2799,-3.3351,-3.3898,-3.4164,-3.5072,-3.5629,-3.5609,-3.6123,-3.6227,-3.5665,-3.5417,-3.5142,-3.4776,-3.4528,-3.4397,-3.4397,-3.4397,-3.4397,-3.4397,-3.4397,-3.4397,-3.4397,-3.4397,-3.4397,-3.4397,-3.4397,-3.4397,-1.961,-1.95,-1.9382,-1.961,-1.9447,-1.9418,0.0,0.0,-2.0336,-2.0947,-2.1137,-2.1211,-2.1211,-2.1211,-2.1211,0.0,0.0,-2.1211,-2.1211,0.0,0.0,0.0,0.0,-2.2191,0.0,0.0,0.0,0.0,0.0,0.0,-2.2967,-2.2886,-2.2871,-2.2959,-2.2879,-2.2725,-2.2491,-2.2491,-2.2389,-2.2184,-2.2363,-2.2714,-2.3131,-2.3929,-2.4576,-2.5052,-2.5644,0.0,0.0,-2.5771,-2.5703,-2.5551,-2.5551,-2.5551,-2.5574,-2.5309,-2.5206,-2.5172,-2.4907,-2.4821,-2.4923,-2.5817,-2.6681,-2.7663,-2.9185,-2.9774,-2.9994,-2.9994,-2.9994,-2.9994,-2.9994,-2.9994,-2.9994,-2.9994,-2.9994,-2.9994,-2.9994,-3.0547,-3.1157,-3.1527,-3.2056,-3.2558,-3.299,-3.2615,-3.2271,-3.2259,-3.2888,-3.3418,-3.3645,-3.4629,-3.5241,-3.5034,-3.5365,-3.5443,-3.5064,-3.5025,-3.4842,-3.4424,-3.4397,-3.4397,-3.4397,-3.4397,-3.4397,-3.4397,-3.4397,-3.4397,-3.4397,-3.4397,-3.4397,-3.4397,-3.4397,-3.4397,-1.9279,-1.9279,-1.9279,-1.9279,-1.9279,-1.9412,0.0,0.0,-2.0278,-2.0662,-2.0984,-2.1211,-2.1211,-2.1211,-2.1211,-2.1211,0.0,0.0,-2.1211,0.0,0.0,0.0,0.0,0.0,0.0,0.0,0.0,0.0,0.0,0.0,-2.263,-2.2352,-2.233,-2.2615,-2.2345,-2.2191,-2.2184,-2.2184,-2.2184,-2.2184,-2.2833,-2.3071,-2.3131,-2.4416,-2.4994,0.0,0.0,0.0,0.0,-2.5434,-2.5163,-2.483,-2.483,-2.483,-2.483,-2.483,-2.483,-2.483,-2.4821,-2.4821,-2.4923,-2.5817,-2.6681,-2.7546,-2.8475,-2.9343,-2.9994,-2.9994,-2.9994,-2.9994,-2.9994,-2.9994,-2.9994,-2.9994,-2.9994,-2.9994,-2.9994,-3.0858,-3.1567,-3.1618,-3.2089,-3.2489,-3.2489,-3.2135,-3.1766,-3.1695,-3.1891,-3.2282,-3.3028,-3.332,-3.3666,-3.4327,-3.441,-3.441,-3.441,-3.441,-3.441,-3.4397,-3.4397,-3.4397,-3.4397,-3.4397,-3.4397,-3.4397,-3.4397,-3.4397,-3.4397,-3.4397,-3.4397,-3.4397,-3.4397,-3.4397,-1.9279,-1.9279,-1.9279,-1.9279,-1.9279,-1.9412,-1.9742,0.0,0.0,-2.0611,-2.0801,-2.0947,-2.1167,-2.1211,-2.1211,-2.1211,0.0,0.0,0.0,0.0,0.0,0.0,0.0,0.0,0.0,0.0,0.0,0.0,0.0,0.0,-2.2337,-2.2023,-2.1993,-2.2308,-2.2228,-2.2081,-2.1854,-2.1854,-2.1972,-2.2148,-2.2321,-2.2839,-2.3633,-2.4032,-2.4486,0.0,0.0,0.0,0.0,-2.4992,-2.4924,-2.4821,-2.4821,-2.4821,-2.4821,-2.4821,-2.4821,-2.4821,-2.4821,-2.4821,-2.5034,-2.6527,-2.7168,-2.7653,-2.9122,-2.9774,-2.9994,-2.9994,-2.9994,-2.9994,-2.9994,-2.9994,-2.9994,-2.9994,-2.9994,-2.9994,-2.9994,-3.0294,-3.0662,-3.1077,-3.1327,-3.1587,-3.1947,-3.1582,-3.1249,-3.1202,-3.1774,-3.2308,-3.2528,-3.3432,-3.4147,-3.4397,-3.4397,-3.4397,-3.4397,-3.4397,-3.4397,-3.4397,-3.4397,-3.4397,-3.4397,-3.4397,-3.4397,-3.4397,-3.4397,-3.4397,-3.4397,-3.4397,-3.4397,-3.4397,-3.4397,-3.4397,0.0,-1.9279,-1.9279,-1.9279,-1.9279,0.0,0.0,0.0,0.0,0.0,0.0,0.0,-2.0984,-2.113,-2.1211,-2.1211,0.0,0.0,0.0,0.0,0.0,-2.1211,0.0,0.0,0.0,0.0,0.0,0.0,0.0,0.0,-2.2015,-2.1686,-2.1606,-2.1811,-2.1818,-2.1715,-2.1511,-2.1743,-2.192,-2.2116,-2.2562,-2.3183,-2.3921,-2.4144,-2.4423,0.0,0.0,0.0,0.0,-2.4821,-2.4821,-2.4821,-2.4821,-2.4821,-2.4821,-2.4821,-2.4821,-2.4821,-2.4821,-2.4821,-2.5034,-2.6472,-2.733,-2.8145,-2.9564,-2.9994,-2.9994,-2.9994,-2.9994,-2.9994,-2.9994,-2.9994,-2.9994,-2.9994,-2.986,-2.9735,-2.9735,-2.9975,-3.0227,-3.0586,-3.0838,-3.1088,-3.1431,-3.1054,-3.0709,-3.0709,-3.1407,-3.2008,-3.2271,-3.3318,-3.4105,-3.4356,-3.4397,-3.4397,-3.4397,-3.4397,-3.4397,-3.4397,-3.4397,-3.4397,-3.4397,-3.4397,-3.4397,-3.4397,-3.4397,-3.4397,-3.4397,-3.4397,-3.4397,-3.4397,-3.4397,-3.4397,0.0,-1.9376,-1.9279,0.0,0.0,0.0,0.0,0.0,0.0,0.0,0.0,0.0,0.0,0.0,0.0,0.0,0.0,0.0,0.0,-2.1211,0.0,0.0,-2.1745,0.0,0.0,0.0,0.0,0.0,0.0,0.0,-2.1679,-2.1379,-2.1211,-2.1211,-2.1211,-2.1211,-2.1211,-2.1774,-2.2059,-2.2173,-2.3239,-2.3865,-2.3968,-2.4479,-2.4765,0.0,0.0,0.0,0.0,-2.4889,-2.4881,-2.4864,-2.4864,-2.4847,-2.4821,-2.4821,-2.4821,-2.4821,-2.4821,-2.4821,-2.4923,-2.5881,-2.733,-2.8847,-2.9722,-2.9994,-2.9994,-2.9994,-2.9994,-2.9994,-2.9994,-2.9973,-2.9942,-2.9942,-2.9591,-2.9259,-2.9259,-2.965,-3.0057,-3.0106,-3.0538,-3.0869,-3.0915,-3.0549,-3.0216,-3.0216,-3.0847,-3.1593,-3.2227,-3.2988,-3.3725,-3.4314,-3.4397,-3.4397,-3.4397,-3.4397,-3.4397,-3.4397,-3.4397,-3.4397,-3.4397,-3.4397,-3.4397,-3.4397,-3.4397,-3.4397,-3.4397,-3.4397,-3.4397,-3.4397,-3.4397,-3.4397,-2.0739,0.0,-1.9279,-1.9279,-1.9279,-1.9279,0.0,0.0,0.0,0.0,0.0,0.0,0.0,0.0,0.0,0.0,0.0,0.0,-2.1174,0.0,0.0,-2.1211,-2.1342,0.0,0.0,0.0,0.0,0.0,0.0,-2.1935,-2.1357,-2.1247,-2.1211,-2.1211,-2.1211,-2.1211,-2.1211,-2.1325,-2.1888,-2.2788,-2.2619,-2.3239,-2.4599,-2.4256,-2.4368,0.0,0.0,0.0,-2.5266,-2.5557,-2.5506,-2.5241,-2.5241,-2.5069,-2.4821,-2.4821,-2.4821,-2.4821,-2.4821,-2.4821,-2.5034,-2.6581,-2.7824,-2.8847,-2.9722,-2.9994,-2.9994,-2.9994,-2.9994,-2.9994,-2.9994,-2.9735,-2.9466,-2.9466,-2.9114,-2.8773,-2.8773,-2.8609,-2.8665,-2.9439,-2.9379,-2.9468,-3.0262,-3.0296,-3.0216,-3.0216,-3.127,-3.214,-3.2271,-3.3403,-3.423,-3.4397,-3.4397,-3.4397,-3.4397,-3.4397,-3.4397,-3.4397,-3.4397,-3.4397,-3.4397,-3.4397,-3.4397,-3.4397,-3.4397,-3.4397,-3.4397,-3.4397,-3.4397,-3.4397,-3.4397,-3.4397,-2.1785,-2.0834,-1.9931,-1.9428,-1.968,-2.0027,-2.0027,0.0,0.0,0.0,0.0,0.0,0.0,0.0,0.0,0.0,-2.1806,0.0,0.0,0.0,-2.1816,-2.1268,0.0,0.0,0.0,0.0,0.0,0.0,0.0,-2.1964,-2.1459,-2.1291,-2.1211,-2.1211,-2.1211,-2.1325,-2.1603,-2.1888,-2.2505,-2.3408,-2.3352,-2.3947,-2.5069,-2.4732,-2.4825,0.0,0.0,0.0,-2.5386,-2.5592,-2.5455,-2.5121,-2.5121,-2.4992,-2.4821,-2.4821,-2.4821,-2.4821,-2.4821,-2.5081,-2.556,-2.6527,-2.7663,-2.8764,-2.8985,-2.9352,-2.9725,-2.9932,-2.9839,-2.9684,-2.9684,-2.9332,-2.899,-2.899,-2.8628,-2.8297,-2.8297,-2.8265,-2.8359,-2.8703,-2.9097,-2.9463,-2.9806,-3.008,-3.0306,-3.0668,-3.1625,-3.2444,-3.276,-3.3755,-3.4397,-3.4397,-3.4397,-3.4397,-3.4397,-3.4397,-3.4397,-3.4397,-3.4397,-3.4397,-3.4397,-3.4397,-3.4397,-3.4397,-3.4397,-3.4397,-3.4397,-3.4397,-3.4397,-3.4397,-3.4397,-3.4397,-2.2793,-2.2089,-2.1132,-2.0078,-2.0483,-2.1132,-2.1132,0.0,0.0,0.0,0.0,0.0,0.0,-2.3185,0.0,0.0,0.0,0.0,-2.3311,-2.3247,-2.2862,-2.1873,0.0,0.0,0.0,0.0,0.0,0.0,0.0,-2.2616,-2.2285,-2.2,-2.182,-2.1767,-2.1702,-2.193,-2.2384,-2.2619,-2.3014,-2.3632,-2.4033,-2.4583,-2.517,-2.5057,-2.5284,-2.5714,0.0,0.0,-2.5378,-2.5429,-2.5241,-2.4907,-2.4907,-2.4872,-2.4821,-2.4821,-2.4821,-2.4821,-2.4821,-2.5348,-2.6127,-2.6173,-2.7289,-2.8509,-2.8167,-2.8614,-2.928,-2.9673,-2.9497,-2.9197,-2.9197,-2.8856,-2.8504,-2.8504,-2.8152,-2.7821,-2.7821,-2.8169,-2.8409,-2.8175,-2.9106,-2.9897,-2.9669,-2.9943,-3.0442,-3.1172,-3.1889,-3.2587,-3.3313,-3.3979,-3.4397,-3.4397,-3.4397,-3.4397,-3.4397,-3.4397,-3.4397,-3.4397,-3.4397,-3.4397,-3.4397,-3.4397,-3.4397,-3.4397,-3.4397,-3.4397,-3.4397,-3.4397,-3.4397,-3.4397,-3.4397,-3.4397,-2.4097,-2.3732,-2.3335,-2.2291,-2.2139,-2.2232,-2.2232,0.0,0.0,0.0,0.0,0.0,0.0,-2.2621,-2.2664,0.0,0.0,-2.4198,0.0,0.0,-2.4394,0.0,0.0,0.0,0.0,0.0,0.0,0.0,0.0,-2.5193,-2.484,-2.4765,-2.458,-2.4189,-2.4172,-2.3966,-2.3608,-2.2214,-2.1774,-2.2392,-2.1945,-2.2593,-2.4116,-2.3601,-2.3972,-2.5009,0.0,-2.542,-2.5395,-2.572,-2.5626,-2.5283,-2.5283,-2.5095,-2.4821,-2.4821,-2.4821,-2.4821,-2.4821,-2.5348,-2.6136,-2.6489,-2.7276,-2.8157,-2.8441,-2.8621,-2.8731,-2.8804,-2.8773,-2.8721,-2.8721,-2.838,-2.8028,-2.8028,-2.7686,-2.7413,-2.7413,-2.7446,-2.7715,-2.8445,-2.8828,-2.9255,-2.9988,-3.017,-3.0442,-3.1172,-3.1889,-3.2587,-3.3313,-3.3979,-3.4397,-3.4397,-3.4397,-3.4397,-3.4397,-3.4397,-3.4397,-3.4397,-3.4397,-3.4397,-3.4397,-3.4397,-3.4397,-3.4397,-3.4397,-3.4397,-3.4397,-3.4397,-3.4397,-3.4397,-3.4397,-3.4397,-2.5118,-2.4962,-2.4864,-2.4362,-2.38,-2.3335,-2.3335,0.0,0.0,0.0,0.0,0.0,0.0,0.0,-2.4417,-2.5043,0.0,-2.5005,-2.5592,-2.568,0.0,0.0,0.0,0.0,0.0,0.0,0.0,0.0,0.0,0.0,-2.4962,-2.4578,-2.427,-2.4082,-2.4074,-2.3974,-2.3866,-2.23,-2.181,-2.2337,-2.2206,-2.2656,-2.3624,-2.3615,-2.4055,-2.483,0.0,-2.4949,-2.477,-2.4949,-2.4915,-2.4753,-2.4753,-2.4787,-2.4821,-2.4821,-2.4684,-2.4504,-2.4504,-2.4893,-2.5485,-2.5665,-2.6584,-2.7587,-2.7552,-2.7829,-2.8193,-2.7945,-2.8059,-2.8245,-2.8245,-2.7903,-2.7572,-2.7572,-2.7407,-2.7309,-2.7309,-2.7489,-2.7715,-2.7904,-2.8362,-2.8874,-2.9336,-2.9612,-3.017,-3.1172,-3.1548,-3.2164,-3.327,-3.3696,-3.3979,-3.4356,-3.4397,-3.4397,-3.4397,-3.4397,-3.4397,-3.4397,-3.4397,-3.4397,-3.4397,-3.4397,-3.4397,-3.4397,-3.4397,-3.4397,-3.4397,-3.4397,-3.4397,-3.4397,-3.4397,-3.4397,-2.5693,-2.5693,-2.5693,-2.5693,0.0,-2.4452,-2.4452,-2.5118,0.0,0.0,0.0,0.0,0.0,-2.5693,0.0,-2.6875,-2.6326,0.0,0.0,0.0,0.0,0.0,0.0,0.0,0.0,0.0,0.0,0.0,0.0,0.0,-2.5329,-2.4774,-2.4404,-2.4316,-2.4316,-2.4307,-2.4237,-2.3151,-2.2626,-2.262,-2.2516,-2.2748,-2.3244,-2.367,-2.4102,-2.4547,-2.4547,-2.4376,-2.4102,-2.4102,-2.4102,-2.4102,-2.4102,-2.4282,-2.4547,-2.4547,-2.4359,-2.4102,-2.4056,-2.4606,-2.517,-2.5079,-2.6104,-2.7342,-2.6893,-2.7213,-2.7696,-2.7403,-2.751,-2.7769,-2.7769,-2.751,-2.7309,-2.7309,-2.7309,-2.7309,-2.7309,-2.7584,-2.7762,-2.7489,-2.8034,-2.8585,-2.8678,-2.9059,-2.9658,-3.0791,-3.116,-3.1725,-3.3,-3.3398,-3.3738,-3.4189,-3.4314,-3.4397,-3.4397,-3.4397,-3.4397,-3.4397,-3.4397,-3.4397,-3.4397,-3.4397,-3.4397,-3.4397,-3.4397,-3.4397,-3.4397,-3.4397,-3.4397,-3.4397,-3.4397,-3.4397,-2.5693,-2.5693,-2.5693,-2.5693,-2.5635,0.0,-2.5586,-2.5635,0.0,-2.5693,0.0,0.0,0.0,-2.5693,0.0,0.0,0.0,0.0,0.0,0.0,0.0,0.0,0.0,0.0,0.0,0.0,0.0,0.0,0.0,0.0,-2.7495,-2.7437,-2.7214,-2.6756,-2.6746,-2.6317,-2.5496,-2.5066,-2.4255,-2.3036,-2.1796,-2.1812,-2.2827,-2.2881,-2.3201,-2.3795,-2.3795,-2.3787,-2.3761,-2.3761,-2.3761,-2.3761,-2.3761,-2.377,-2.3795,-2.3795,-2.3787,-2.3761,-2.3734,-2.4754,-2.6054,-2.5616,-2.6526,-2.7785,-2.739,-2.7303,-2.7351,-2.732,-2.733,-2.7351,-2.7351,-2.733,-2.7309,-2.7309,-2.7309,-2.7309,-2.7309,-2.7309,-2.7489,-2.7857,-2.7998,-2.8233,-2.8699,-2.8781,-2.9037,-2.9806,-3.0654,-3.15,-3.2271,-3.3373,-3.3992,-3.3755,-3.4147,-3.4397,-3.4397,-3.4397,-3.4397,-3.4397,-3.4397,-3.4397,-3.4397,-3.4397,-3.4397,-3.4397,-3.4397,-3.4397,-3.4397,-3.4397,-3.4397,-3.4397,-3.4397,-3.4397,-2.5693,-2.5693,-2.5693,-2.5693,-2.5693,0.0,0.0,-2.5693,-2.5693,-2.5693,-2.5693,0.0,0.0,0.0,0.0,0.0,0.0,0.0,0.0,0.0,0.0,0.0,0.0,0.0,0.0,0.0,0.0,0.0,0.0,0.0,-2.6875,-2.6611,-2.6387,-2.6181,-2.6171,-2.6201,-2.6182,-2.5197,-2.4799,-2.4958,-2.3091,-2.244,-2.286,-2.2714,-2.2817,-2.3023,-2.3023,-2.3023,-2.3023,-2.3023,-2.316,-2.3348,-2.3624,-2.3718,-2.3718,-2.3682,-2.3537,-2.3323,-2.3331,-2.4242,-2.5348,-2.5187,-2.6231,-2.7479,-2.7361,-2.7309,-2.7309,-2.7309,-2.7309,-2.7309,-2.7309,-2.7309,-2.7309,-2.7309,-2.7309,-2.7309,-2.7309,-2.7309,-2.7347,-2.7536,-2.7584,-2.7715,-2.8233,-2.8792,-2.9382,-2.9977,-3.0869,-3.1757,-3.2469,-3.2957,-3.3386,-3.3907,-3.423,-3.4397,-3.4397,-3.4397,-3.4397,-3.4397,-3.4397,-3.4397,-3.4397,-3.4397,-3.4397,-3.4397,-3.4397,-3.4397,-3.4397,-3.4397,-3.4397,-3.4397,-3.4397,-3.4397,-2.5693,-2.5693,-2.5693,0.0,0.0,0.0,-2.5693,-2.5693,-2.5693,-2.5693,-2.5693,-2.5693,-2.5693,0.0,0.0,0.0,0.0,0.0,0.0,0.0,0.0,0.0,0.0,0.0,0.0,0.0,0.0,0.0,0.0,0.0,0.0,-2.5849,-2.5693,-2.5693,-2.5781,-2.6062,-2.6496,-2.5693,-2.5693,-2.6486,-2.4707,-2.3619,-2.3129,-2.2987,-2.2846,-2.2594,-2.2594,-2.2594,-2.2594,-2.2594,-2.2748,-2.2963,-2.3263,-2.3358,-2.3366,-2.3331,-2.3169,-2.2937,-2.2937,-2.3802,-2.4894,-2.4894,-2.5974,-2.7309,-2.7309,-2.7309,-2.7309,-2.7309,-2.7309,-2.7309,-2.7309,-2.7309,-2.7309,-2.7309,-2.7309,-2.7309,-2.7309,-2.7309,-2.7309,-2.7309,-2.7309,-2.7404,-2.7715,-2.8373,-2.9013,-2.9612,-3.0566,-3.1504,-3.2264,-3.2711,-3.3227,-3.4034,-3.4147,-3.423,-3.4397,-3.4397,-3.4397,-3.4397,-3.4397,-3.4397,-3.4397,-3.4397,-3.4397,-3.4397,-3.4397,-3.4397,-3.4397,-3.4397,-3.4397,-3.4397,-3.4397,-3.4397,-2.5693,-2.5693,-2.5693,0.0,0.0,0.0,-2.5693,-2.5693,-2.5693,-2.5693,0.0,-2.5693,-2.5693,0.0,0.0,-2.6318,0.0,0.0,0.0,0.0,0.0,0.0,0.0,0.0,0.0,0.0,0.0,0.0,0.0,0.0,0.0,-2.5693,-2.5693,-2.5693,-2.5955,-2.6245,-2.6496,-2.6757,-2.7034,-2.7309,-2.6486,-2.5255,-2.3728,-2.3728,-2.3288,-2.2594,-2.2594,-2.2594,-2.2594,-2.2594,-2.2594,-2.2594,-2.2594,-2.2594,-2.2594,-2.2594,-2.2594,-2.2594,-2.2603,-2.3628,-2.4894,-2.4894,-2.5974,-2.7309,-2.7309,-2.7309,-2.7309,-2.7309,-2.7309,-2.7309,-2.7309,-2.7309,-2.7309,-2.7309,-2.7309,-2.7309,-2.7309,-2.7309,-2.7309,-2.7309,-2.7309,-2.7309,-2.7309,-2.7309,-2.762,-2.8585,-2.9589,-3.0576,-3.148,-3.2643,-3.3569,-3.4034,-3.3852,-3.3882,-3.4356,-3.4397,-3.4397,-3.4397,-3.4397,-3.4397,-3.4397,-3.4397,-3.4397,-3.4397,-3.4397,-3.4397,-3.4397,-3.4397,-3.4397,-3.4397,-3.4397,-3.4397,-2.5693,-2.5693,0.0,-2.5693,0.0,0.0,0.0,0.0,0.0,0.0,0.0,-2.5693,-2.5693,0.0,0.0,-2.6318,0.0,0.0,0.0,0.0,0.0,0.0,0.0,0.0,0.0,0.0,0.0,0.0,0.0,0.0,0.0,-2.5868,-2.5955,-2.5955,-2.6255,-2.6496,-2.6805,-2.6853,-2.7034,-2.7309,-2.7061,-2.638,-2.5362,-2.4223,-2.3587,-2.3329,-2.2846,-2.2594,-2.2594,-2.2594,-2.2594,-2.2594,-2.2594,-2.2594,-2.2594,-2.2594,-2.2594,-2.2695,-2.3188,-2.4066,-2.4992,-2.5548,-2.6428,-2.7309,-2.7309,-2.7309,-2.7309,-2.7309,-2.7309,-2.7309,-2.7309,-2.7309,-2.7309,-2.7309,-2.7309,-2.7309,-2.7309,-2.7309,-2.7309,-2.7309,-2.7309,-2.7309,-2.7309,-2.8445,-2.9441,-2.9715,-3.1169,-3.2351,-3.2624,-3.3099,-3.3441,-3.3611,-3.3641,-3.3755,-3.3882,-3.3924,-3.3924,-3.3924,-3.3924,-3.4063,-3.4397,-3.4397,-3.4397,-3.4397,-3.4397,-3.4397,-3.4397,-3.4397,-3.4397,-3.4397,-3.4397,-3.4397,-2.5693,-2.5693,0.0,-2.5693,-2.5693,-2.5693,-2.5693,0.0,0.0,0.0,0.0,-2.5693,-2.5693,-2.5693,0.0,0.0,0.0,0.0,0.0,0.0,0.0,0.0,0.0,0.0,0.0,0.0,0.0,0.0,0.0,0.0,0.0,-2.5868,-2.5965,-2.5965,-2.6197,-2.6448,-2.6747,-2.6853,-2.7034,-2.7309,-2.7309,-2.7071,-2.6534,-2.5255,-2.4322,-2.3678,-2.2946,-2.2594,-2.2594,-2.2594,-2.2594,-2.2594,-2.2594,-2.2594,-2.2594,-2.2594,-2.2795,-2.3088,-2.3529,-2.4412,-2.5441,-2.5945,-2.663,-2.7309,-2.7309,-2.7309,-2.7309,-2.7309,-2.7309,-2.7309,-2.7309,-2.7309,-2.7309,-2.7309,-2.7309,-2.7309,-2.7309,-2.7309,-2.7309,-2.7309,-2.7309,-2.7404,-2.7809,-2.8806,-2.9852,-3.0621,-3.2077,-3.3124,-3.3124,-3.3197,-3.3313,-3.3398,-3.3513,-3.3598,-3.367,-3.3713,-3.3713,-3.3713,-3.3713,-3.3839,-3.4105,-3.423,-3.4314,-3.4397,-3.4397,-3.4397,-3.4397,-3.4397,-3.4397,-3.4397,-3.4397,-3.4397,-2.5693,0.0,0.0,-2.5693,-2.5693,0.0,-2.5693,-2.5693,-2.5693,-2.5693,0.0,-2.5693,0.0,0.0,0.0,0.0,0.0,0.0,0.0,0.0,0.0,0.0,0.0,0.0,0.0,0.0,0.0,0.0,0.0,0.0,0.0,-2.5732,-2.5732,-2.5781,-2.6014,-2.6304,-2.6544,-2.6794,-2.7081,-2.7309,-2.7309,-2.7309,-2.7262,-2.6486,-2.5206,-2.3678,-2.2996,-2.2644,-2.2594,-2.2594,-2.2594,-2.2594,-2.2594,-2.2594,-2.2594,-2.2594,-2.3097,-2.3728,-2.3777,-2.4815,-2.6091,-2.6197,-2.6678,-2.7309,-2.7309,-2.7309,-2.7309,-2.7309,-2.7309,-2.7309,-2.7309,-2.7309,-2.7309,-2.7309,-2.7309,-2.7309,-2.7309,-2.7309,-2.7309,-2.7309,-2.7309,-2.7584,-2.8456,-2.8724,-2.9498,-3.1448,-3.2525,-3.3124,-3.3124,-3.3124,-3.3154,-3.3356,-3.3356,-3.3441,-3.3641,-3.3641,-3.3641,-3.3641,-3.3641,-3.367,-3.3713,-3.3949,-3.4202,-3.4356,-3.4397,-3.4397,-3.4397,-3.4397,-3.4397,-3.4397,-3.4397,-3.4397,0.0,-2.5693,0.0,0.0,-2.5693,-2.5693,-2.5693,-2.5693,-2.5693,-2.5693,-2.5693,-2.5693,0.0,0.0,0.0,0.0,0.0,0.0,0.0,0.0,0.0,0.0,0.0,0.0,0.0,0.0,0.0,0.0,0.0,0.0,-2.6004,-2.6004,-2.611,-2.6304,-2.6602,-2.6747,-2.6794,-2.7081,-2.7262,0.0,-2.7309,-2.7309,-2.7262,-2.6486,-2.5206,-2.3678,-2.3529,-2.3138,-2.2594,-2.2594,-2.2594,-2.2594,-2.2594,-2.2594,-2.2594,-2.2594,-2.3097,-2.3777,-2.4402,-2.5294,-2.6197,-2.6822,-2.7156,-2.7309,-2.7309,-2.7309,-2.7309,-2.7309,-2.7309,-2.7309,-2.7309,-2.7309,-2.7309,-2.7309,-2.7309,-2.7309,-2.7309,-2.7309,-2.7309,-2.7309,-2.7309,-2.7347,-2.7584,-2.8852,-3.0531,-3.2481,-3.2939,-3.3124,-3.3124,-3.3124,-3.3124,-3.3154,-3.3154,-3.3197,-3.324,-3.324,-3.324,-3.324,-3.324,-3.3356,-3.367,-3.3949,-3.4118,-3.416,-3.4314,-3.4397,-3.4397,-3.4397,-3.4397,-3.4397,-3.4397,-3.4397,0.0,0.0,0.0,0.0,0.0,0.0,-2.5693,-2.5693,-2.5693,-2.5693,-2.5693,0.0,0.0,0.0,0.0,0.0,0.0,0.0,0.0,0.0,0.0,0.0,0.0,0.0,0.0,0.0,0.0,0.0,0.0,-2.6014,-2.6294,-2.6294,-2.6352,-2.6496,-2.6651,-2.6747,-2.69,-2.7034,-2.7177,-2.7309,-2.7309,-2.7309,-2.7262,-2.6486,-2.5654,-2.4815,-2.4026,-2.3488,-2.3088,-2.2745,-2.2594,-2.2594,-2.2594,-2.2594,-2.2594,-2.2594,-2.3329,-2.4313,-2.4747,-2.5684,-2.6726,-2.7156,-2.7309,-2.7309,-2.7309,-2.7309,-2.7309,-2.7309,-2.7309,-2.7309,-2.7309,-2.7309,-2.7309,-2.7309,-2.7309,-2.7309,-2.7309,-2.7309,-2.7309,-2.7309,-2.7309,-2.7584,-2.8538,-3.0306,-3.1933,-3.2939,-3.3124,-3.3124,-3.3124,-3.3124,-3.3124,-3.3124,-3.3124,-3.3124,-3.3124,-3.3124,-3.3124,-3.3124,-3.3124,-3.3197,-3.3398,-3.3654,-3.3907,-3.4243,-3.4356,-3.4397,-3.4397,-3.4397,-3.4397,-3.4397,-3.4397,-3.4397,0.0,0.0,0.0,0.0,0.0,0.0,0.0,-2.5693,0.0,0.0,0.0,0.0,0.0,0.0,0.0,0.0,0.0,0.0,0.0,0.0,0.0,0.0,0.0,0.0,0.0,0.0,0.0,0.0,0.0,-2.6207,-2.6554,-2.6496,-2.6448,-2.6554,-2.6673,-2.681,-2.7013,-2.7143,-2.727,-2.7452,-2.7452,-2.7458,-2.7376,-2.6693,-2.6315,-2.6042,-2.4716,-2.3976,-2.3628,-2.3038,-2.2695,-2.2594,-2.2594,-2.2594,-2.2594,-2.2594,-2.3578,-2.4894,-2.4894,-2.5974,-2.7309,-2.7309,-2.7309,-2.7309,-2.7309,-2.7309,-2.7309,-2.7309,-2.7309,-2.7309,-2.7309,-2.7309,-2.7309,-2.7309,-2.7309,-2.7309,-2.7309,-2.7309,-2.7309,-2.7309,-2.7441,-2.8175,-3.0125,-3.1757,-3.2896,-3.3068,-3.3124,-3.3124,-3.3124,-3.3124,-3.3124,-3.3124,-3.3124,-3.3124,-3.3124,-3.3124,-3.3124,-3.3124,-3.3124,-3.3124,-3.3154,-3.3313,-3.3696,-3.4272,-3.4314,-3.4314,-3.4272,-3.4314,-3.4356,-3.4356,-3.4356,-3.4356,0.0,0.0,0.0,0.0,0.0,0.0,0.0,0.0,0.0,0.0,0.0,0.0,0.0,0.0,0.0,0.0,0.0,0.0,0.0,0.0,0.0,0.0,0.0,0.0,0.0,0.0,0.0,0.0,-2.5868,-2.6072,-2.6805,-2.64,-2.6352,-2.6853,-2.7258,-2.7452,-2.75,-2.8087,-2.8293,-2.8054,-2.8054,-2.7988,-2.7841,-2.7685,-2.7081,-2.61,-2.5849,-2.5011,-2.3678,-2.3578,-2.3188,-2.2594,-2.2594,-2.2594,-2.2594,-2.2594,-2.3578,-2.4894,-2.4894,-2.5974,-2.7309,-2.7309,-2.7309,-2.7309,-2.7309,-2.7309,-2.7309,-2.7309,-2.7309,-2.7309,-2.7309,-2.7309,-2.7309,-2.7309,-2.7309,-2.7309,-2.7309,-2.7309,-2.7309,-2.7309,-2.7951,-2.913,-3.108,-3.1625,-3.2089,-3.2982,-3.3124,-3.3124,-3.3124,-3.3124,-3.3124,-3.3124,-3.3124,-3.3124,-3.3124,-3.3124,-3.3124,-3.3124,-3.3124,-3.3197,-3.3356,-3.3398,-3.3513,-3.3797,-3.4021,-3.4034,-3.3797,-3.4021,-3.416,-3.416,-3.416,-3.4243,-2.5693,0.0,0.0,0.0,0.0,0.0,0.0,0.0,0.0,0.0,0.0,0.0,0.0,0.0,0.0,0.0,0.0,0.0,0.0,0.0,0.0,0.0,0.0,0.0,0.0,0.0,0.0,0.0,-2.6004,-2.6159,-2.6651,-2.6448,-2.6559,-2.7005,-2.7197,-2.7469,-2.7712,-2.8015,-2.8116,-2.7975,-2.8137,-2.8175,-2.807,-2.8219,-2.7729,-2.6774,-2.6294,-2.545,-2.4362,-2.3877,-2.3288,-2.2594,-2.2594,-2.2594,-2.2644,-2.3038,-2.3917,-2.4943,-2.5441,-2.6332,-2.7309,-2.7309,-2.7309,-2.7309,-2.7309,-2.7309,-2.7309,-2.7309,-2.7309,-2.7309,-2.7309,-2.7309,-2.7309,-2.7309,-2.7309,-2.7309,-2.7309,-2.7309,-2.7309,-2.7309,-2.8491,-2.9806,-3.0678,-3.1713,-3.2581,-3.3025,-3.3124,-3.3124,-3.3124,-3.3124,-3.3124,-3.3124,-3.3124,-3.3124,-3.3124,-3.3124,-3.3124,-3.3124,-3.3124,-3.3154,-3.324,-3.324,-3.3283,-3.3356,-3.3683,-3.381,-3.3713,-3.3992,-3.4118,-3.4118,-3.4243,-3.4592,0.0,0.0,0.0,0.0,0.0,0.0,0.0,0.0,0.0,0.0,0.0,0.0,0.0,0.0,0.0,0.0,0.0,0.0,0.0,0.0,0.0,0.0,0.0,0.0,0.0,0.0,0.0,0.0,-2.6052,-2.6159,-2.6496,-2.6448,-2.659,-2.7081,-2.7201,-2.7482,-2.7975,-2.8096,-2.8207,-2.836,-2.8472,-2.8513,-2.8502,-2.8693,-2.8359,-2.7603,-2.7013,-2.6271,-2.5513,-2.4868,-2.4236,-2.3529,-2.3529,-2.3529,-2.3631,-2.4176,-2.4868,-2.5612,-2.6222,-2.6893,-2.7427,-2.7427,-2.7392,-2.7309,-2.7309,-2.7309,-2.7309,-2.7309,-2.7309,-2.7309,-2.7309,-2.7309,-2.7309,-2.7309,-2.7309,-2.7309,-2.7309,-2.7309,-2.7357,-2.7631,-2.8806,-2.9988,-3.0486,-3.1757,-3.281,-3.3081,-3.3124,-3.3124,-3.3124,-3.3124,-3.3124,-3.3124,-3.3124,-3.3124,-3.3124,-3.3124,-3.3124,-3.3124,-3.3124,-3.3124,-3.3124,-3.3124,-3.3124,-3.3124,-3.3398,-3.3556,-3.3641,-3.3894,-3.4034,-3.4118,-3.4243,-3.4716,0.0,0.0,0.0,0.0,0.0,0.0,0.0,0.0,0.0,0.0,0.0,0.0,0.0,0.0,0.0,0.0,0.0,0.0,0.0,0.0,0.0,0.0,0.0,0.0,0.0,0.0,0.0,0.0,-2.5868,-2.5975,-2.6448,-2.6245,-2.6445,-2.7081,-2.7502,-2.7995,-2.8448,-2.886,-2.9335,-2.9869,-2.965,-2.9424,-2.9219,-2.927,-2.9001,-2.8545,-2.8495,-2.7985,-2.7269,-2.7219,-2.6761,-2.6087,-2.6087,-2.6087,-2.6087,-2.6138,-2.6659,-2.7269,-2.732,-2.7551,-2.7883,-2.7883,-2.7603,-2.7309,-2.7309,-2.7309,-2.7309,-2.7309,-2.7309,-2.7309,-2.7309,-2.7309,-2.7309,-2.7309,-2.7309,-2.7309,-2.7309,-2.7309,-2.7584,-2.8445,-2.8724,-2.936,-3.1214,-3.1625,-3.1989,-3.2939,-3.3124,-3.3124,-3.3124,-3.3124,-3.3124,-3.3124,-3.3124,-3.3124,-3.3124,-3.3124,-3.3124,-3.3124,-3.3124,-3.3124,-3.3124,-3.3124,-3.3124,-3.3124,-3.3124,-3.324,-3.3441,-3.3641,-3.3852,-3.4118,-3.4118,-3.4243,0.0,0.0,0.0,0.0,0.0,0.0,0.0,0.0,0.0,0.0,0.0,0.0,0.0,0.0,0.0,0.0,0.0,0.0,0.0,0.0,0.0,0.0,0.0,0.0,0.0,0.0,0.0,0.0,0.0,-2.6251,-2.6448,-2.634,-2.6537,-2.702,-2.7505,-2.7939,-2.8374,-2.8532,-2.8771,-2.9152,-2.9248,-2.9367,-2.9475,-2.9694,-2.9653,-2.9497,-2.9497,-2.8696,-2.7389,-2.7389,-2.6982,-2.6307,-2.6307,-2.6307,-2.6359,-2.682,-2.7186,-2.7491,-2.8006,-2.8255,-2.8369,-2.8369,-2.8255,-2.8069,-2.7779,-2.7686,-2.7624,-2.7382,-2.7309,-2.7309,-2.7309,-2.7309,-2.7309,-2.7309,-2.7309,-2.7309,-2.7309,-2.7309,-2.7404,-2.7715,-2.8315,-2.913,-3.0486,-3.1214,-3.1945,-3.2939,-3.3124,-3.3124,-3.3124,-3.3124,-3.3124,-3.3124,-3.3124,-3.3124,-3.3124,-3.3124,-3.3275,-3.3583,-3.3608,-3.3608,-3.3608,-3.3608,-3.3432,-3.3124,-3.3124,-3.3154,-3.3197,-3.3398,-3.3569,-3.3654,-3.3768,-3.4566,-2.5781,0.0,0.0,0.0,0.0,0.0,0.0,0.0,0.0,0.0,0.0,0.0,0.0,0.0,0.0,0.0,0.0,0.0,0.0,0.0,0.0,0.0,0.0,0.0,0.0,0.0,0.0,0.0,0.0,0.0,-2.6742,-2.6742,-2.6888,-2.7217,-2.7646,-2.8061,-2.8451,-2.8504,-2.8717,-2.8993,-2.9248,-2.9511,-2.9722,-2.9942,-2.9994,-2.9994,-2.9994,-2.9331,-2.8247,-2.8247,-2.799,-2.7567,-2.7567,-2.7567,-2.7619,-2.8093,-2.8247,-2.8359,-2.887,-2.898,-2.8845,-2.8845,-2.8742,-2.8556,-2.8245,-2.8152,-2.809,-2.78,-2.7717,-2.7717,-2.7717,-2.7717,-2.7717,-2.7717,-2.7717,-2.7717,-2.7717,-2.7527,-2.7394,-2.7715,-2.8269,-2.9185,-3.0706,-3.1463,-3.2261,-3.3464,-3.3633,-3.3633,-3.3633,-3.3633,-3.3633,-3.3633,-3.347,-3.3357,-3.3357,-3.3181,-3.3232,-3.3608,-3.3621,-3.3621,-3.3621,-3.3621,-3.3445,-3.3124,-3.3124,-3.3124,-3.3124,-3.3313,-3.3484,-3.3654,-3.4037,-3.5264,0.0,0.0,0.0,0.0,0.0,0.0,0.0,0.0,0.0,0.0,0.0,0.0,0.0,0.0,0.0,0.0,0.0,0.0,0.0,0.0,0.0,0.0,0.0,0.0,0.0,0.0,0.0,0.0,-2.7379,-2.7379,-2.7379,-2.7389,-2.7505,-2.7728,-2.8076,-2.8408,-2.8684,-2.893,-2.9237,-2.9606,-2.9837,-2.9994,-2.9994,-2.9994,-2.9994,-2.9994,-2.9994,-2.9994,-2.9994,-2.9994,-2.9994,-2.9994,-2.9994,-2.9994,-2.9994,-2.9994,-2.9994,-2.9994,-2.9994,-2.9704,-2.9321,-2.9321,-2.9021,-2.8649,-2.8638,-2.8628,-2.8628,-2.8618,-2.8618,-2.8618,-2.8618,-2.8618,-2.8618,-2.8618,-2.8618,-2.8618,-2.8618,-2.7924,-2.7626,-2.8535,-2.8721,-2.9539,-3.1982,-3.2394,-3.2949,-3.4432,-3.47,-3.4688,-3.4675,-3.4675,-3.4675,-3.4675,-3.4198,-3.3872,-3.3872,-3.3382,-3.3124,-3.3106,-3.3106,-3.3106,-3.3106,-3.3106,-3.3136,-3.3124,-3.3124,-3.3124,-3.3124,-3.3313,-3.3611,-3.4076,-3.491,-3.6346,-2.6867,0.0,0.0,0.0,0.0,0.0,0.0,0.0,0.0,0.0,0.0,0.0,0.0,0.0,0.0,0.0,0.0,0.0,0.0,0.0,0.0,0.0,0.0,0.0,0.0,0.0,0.0,0.0,-2.6829,-2.6703,-2.6703,-2.6947,-2.7508,-2.8423,-2.8339,-2.8408,-2.8684,-2.8558,-2.8761,-2.9237,-2.929,-2.9564,-2.9994,-2.9994,-2.9994,-2.9994,-2.9994,-2.9994,-2.9994,-2.9994,-2.9994,-2.9994,-2.9994,-2.9994,-2.9994,-2.9994,-2.9994,-2.9994,-2.9994,-2.9911,-2.9808,-2.9808,-2.9715,-2.9549,-2.9218,-2.9114,-2.9042,-2.8711,-2.8618,-2.8618,-2.8618,-2.8618,-2.8618,-2.8618,-2.8618,-2.8618,-2.8618,-2.8421,-2.8333,-2.8568,-2.9268,-3.0252,-3.1668,-3.2544,-3.3311,-3.4015,-3.4123,-3.3985,-3.3583,-3.3533,-3.3533,-3.3533,-3.3395,-3.3307,-3.3307,-3.3212,-3.3257,-3.3646,-3.3671,-3.3671,-3.3671,-3.3671,-3.3483,-3.3124,-3.3124,-3.3124,-3.3124,-3.3154,-3.324,-3.3411,-3.5156,-3.6265,-2.7321,-2.6466,0.0,0.0,0.0,0.0,-2.5693,-2.5693,0.0,0.0,0.0,0.0,0.0,0.0,0.0,0.0,0.0,0.0,0.0,0.0,0.0,0.0,0.0,0.0,0.0,-2.7155,-2.7155,-2.7155,-2.6929,-2.6842,-2.6842,-2.7017,-2.7442,-2.7963,-2.7816,-2.7957,-2.8301,-2.8239,-2.8486,-2.893,-2.9026,-2.929,-2.9617,-2.9617,-2.9722,-2.9827,-2.9827,-2.9889,-2.9994,-2.9994,-2.9994,-2.9994,-2.9994,-2.9994,-2.9994,-2.9994,-2.9994,-2.9994,-2.9994,-2.9994,-2.9994,-2.9994,-2.9994,-2.9942,-2.9673,-2.9591,-2.9539,-2.927,-2.9187,-2.9187,-2.9187,-2.9052,-2.8897,-2.8897,-2.8752,-2.8618,-2.8618,-2.8906,-2.9342,-2.9823,-3.0376,-3.1281,-3.2723,-3.3477,-3.3942,-3.4197,-3.4248,-3.4123,-3.3809,-3.3759,-3.3759,-3.3759,-3.3558,-3.342,-3.342,-3.3206,-3.3219,-3.3533,-3.3558,-3.3558,-3.3558,-3.3558,-3.3294,-3.2729,-3.2717,-3.2604,-3.2378,-3.2855,-3.3356,-3.391,-3.5395,-3.6283,-2.7605,-2.6552,-2.5693,-2.5693,-2.5693,0.0,-2.5693,-2.5693,-2.5693,0.0,0.0,0.0,0.0,0.0,0.0,0.0,0.0,0.0,0.0,0.0,0.0,0.0,0.0,0.0,-2.717,-2.72,-2.72,-2.72,-2.72,-2.722,-2.7279,-2.7279,-2.7197,-2.7063,-2.7012,-2.7197,-2.764,-2.789,-2.8182,-2.8589,-2.883,-2.8999,-2.9009,-2.9059,-2.9237,-2.9554,-2.9554,-2.9669,-2.9889,-2.9942,-2.9994,-2.9994,-2.9994,-2.9994,-2.9994,-2.9994,-2.9994,-2.9994,-2.9994,-2.9994,-2.9994,-2.9994,-2.9994,-2.9994,-2.9994,-2.9994,-2.9984,-2.9932,-2.9922,-2.9911,-2.986,-2.9539,-2.9228,-2.9228,-2.8918,-2.8618,-2.8767,-2.9451,-3.0458,-3.1638,-3.1875,-3.2442,-3.4202,-3.4623,-3.47,-3.4638,-3.4625,-3.4613,-3.455,-3.4537,-3.4512,-3.4449,-3.401,-3.3696,-3.3621,-3.3169,-3.2893,-3.2893,-3.2893,-3.2893,-3.2893,-3.2893,-3.2654,-3.2127,-3.2127,-3.1917,-3.1549,-3.2445,-3.3542,-3.4767,-3.5418,-3.6207,-2.8448,-2.7067,-2.5693,-2.5693,-2.5693,0.0,-2.5693,-2.5693,-2.5693,0.0,0.0,0.0,0.0,0.0,0.0,0.0,0.0,0.0,0.0,0.0,0.0,0.0,0.0,0.0,-2.6026,-2.6026,-2.6026,-2.6026,-2.6026,-2.6182,-2.6584,-2.6604,-2.6801,-2.7288,-2.7114,-2.7153,-2.7477,-2.7282,-2.7373,-2.7657,-2.8066,-2.8391,-2.8619,-2.8971,-2.9132,-2.9185,-2.9185,-2.9237,-2.929,-2.9564,-2.9827,-2.9994,-2.9994,-2.9994,-2.9994,-2.9994,-2.9994,-2.9994,-2.9994,-2.9994,-2.9994,-2.9994,-2.9994,-2.9994,-2.9994,-2.9994,-2.9922,-2.9539,-2.9435,-2.9352,-2.898,-2.8814,-2.8752,-2.8752,-2.868,-2.8807,-2.9638,-2.9981,-3.0652,-3.2465,-3.2839,-3.2932,-3.3361,-3.4144,-3.4575,-3.4123,-3.406,-3.3897,-3.3458,-3.3395,-3.3219,-3.2754,-3.2604,-3.2365,-3.1913,-3.1788,-3.1712,-3.1712,-3.1712,-3.1712,-3.1712,-3.1712,-3.1662,-3.1549,-3.1549,-3.1813,-3.2368,-3.1927,-3.2237,-3.3263,-3.4245,-3.521,-2.868,-2.721,0.0,-2.5693,-2.5693,0.0,0.0,-2.5693,-2.5693,0.0,0.0,0.0,0.0,0.0,0.0,0.0,0.0,0.0,0.0,0.0,0.0,0.0,0.0,0.0,-2.5693,-2.5693,-2.5693,-2.5693,-2.5693,-2.5781,-2.6055,-2.6064,-2.6202,-2.6556,-2.6417,-2.6525,-2.6891,-2.675,-2.6857,-2.7206,-2.7422,-2.7643,-2.7766,-2.8192,-2.8495,-2.86,-2.883,-2.9089,-2.9343,-2.9554,-2.9774,-2.9994,-2.9994,-2.9994,-2.9994,-2.9994,-2.9994,-2.9994,-2.9994,-2.9994,-2.9994,-2.9994,-2.9994,-2.9953,-2.9715,-2.9487,-2.9259,-2.9032,-2.8959,-2.8907,-2.868,-2.8442,-2.8266,-2.8266,-2.81,-2.8081,-2.8603,-2.889,-2.9366,-3.0354,-3.1099,-3.1914,-3.2906,-3.3575,-3.3621,-3.278,-3.2641,-3.2554,-3.2277,-3.2227,-3.2127,-3.1838,-3.18,-3.1687,-3.1411,-3.1386,-3.1386,-3.1386,-3.1386,-3.1386,-3.1386,-3.1386,-3.1273,-3.1009,-3.1093,-3.1345,-3.1771,-3.1771,-3.2324,-3.3479,-3.4209,-3.481,0.0,0.0,0.0,0.0,0.0,-2.5693,0.0,0.0,0.0,0.0,0.0,0.0,0.0,0.0,0.0,0.0,0.0,0.0,0.0,0.0,0.0,0.0,0.0,0.0,0.0,-2.5781,-2.5781,-2.5781,-2.5781,-2.5781,-2.5781,-2.5781,-2.5732,-2.5693,-2.5693,-2.5859,-2.626,-2.6269,-2.6435,-2.6768,-2.6855,-2.6894,-2.6904,-2.7344,-2.7685,-2.7902,-2.8216,-2.8678,-2.9221,-2.9264,-2.9482,-2.9784,-2.9942,-2.9994,-2.9994,-2.9994,-2.9994,-2.9994,-2.9994,-2.9942,-2.986,-2.986,-2.9798,-2.9663,-2.929,-2.8907,-2.8597,-2.8504,-2.8483,-2.8462,-2.8369,-2.8069,-2.779,-2.779,-2.7448,-2.7222,-2.74,-2.7661,-2.7895,-2.812,-2.9202,-3.0609,-3.2239,-3.2657,-3.2441,-3.1524,-3.1386,-3.1386,-3.1386,-3.1386,-3.1348,-3.1248,-3.1248,-3.1198,-3.1097,-3.1085,-3.1085,-3.1085,-3.1085,-3.1085,-3.1085,-3.1085,-3.0884,-3.047,-3.0612,-3.082,-3.1119,-3.1783,-3.2731,-3.3986,-3.4358,-3.4616,0.0,0.0,0.0,0.0,-2.5693,0.0,0.0,0.0,-2.5693,-2.5693,0.0,0.0,0.0,0.0,0.0,0.0,0.0,0.0,0.0,0.0,0.0,0.0,0.0,0.0,0.0,-2.6052,-2.6052,-2.6052,-2.6052,-2.6052,-2.6052,-2.6052,-2.5965,-2.5684,-2.5693,-2.5713,-2.5762,-2.5762,-2.5791,-2.584,-2.6269,-2.6455,-2.6475,-2.6894,-2.709,-2.7141,-2.719,-2.7486,-2.7944,-2.8185,-2.8528,-2.894,-2.9679,-2.9994,-2.9994,-2.9994,-2.9994,-2.9994,-2.9994,-2.9725,-2.9384,-2.9384,-2.9104,-2.8763,-2.8711,-2.8659,-2.8524,-2.8121,-2.7997,-2.7914,-2.7521,-2.7423,-2.7382,-2.7382,-2.7029,-2.6919,-2.7726,-2.7653,-2.7646,-2.8562,-2.947,-3.0157,-3.0416,-3.1067,-3.1537,-3.1411,-3.1386,-3.1386,-3.1386,-3.1386,-3.1223,-3.0758,-3.0708,-3.0507,-3.0018,-2.998,-2.998,-2.998,-2.998,-2.998,-2.998,-2.998,-2.9942,-2.988,-2.9894,-3.0608,-3.1965,-3.2037,-3.2618,-3.357,-3.3791,-3.437,0.0,0.0,0.0,0.0,0.0,0.0,-2.5693,0.0,-2.5693,0.0,0.0,0.0,0.0,0.0,0.0,0.0,-2.5567,0.0,0.0,0.0,0.0,0.0,0.0,0.0,0.0,0.0,0.0,0.0,-2.5868,-2.5868,-2.5868,-2.5868,-2.583,-2.5693,-2.5693,-2.5693,-2.5693,-2.5693,-2.5693,-2.5693,-2.5918,-2.6006,-2.6025,-2.6455,-2.665,-2.665,-2.665,-2.6849,-2.7189,-2.7182,-2.7382,-2.7723,-2.8489,-2.9023,-2.9394,-2.9549,-2.9425,-2.9197,-2.9197,-2.9063,-2.8897,-2.8897,-2.8587,-2.8214,-2.8214,-2.8028,-2.779,-2.7593,-2.7541,-2.7489,-2.7351,-2.7102,-2.6905,-2.6905,-2.6553,-2.6302,-2.67,-2.6809,-2.6976,-2.7396,-2.8396,-2.9164,-2.9164,-3.0133,-3.0834,-3.052,-3.047,-3.047,-3.047,-3.047,-3.0382,-3.0168,-3.0143,-3.0043,-2.9817,-2.9792,-2.9792,-2.9792,-2.9792,-2.9792,-2.9792,-2.9792,-2.9998,-3.0444,-3.0897,-3.1649,-3.2755,-3.3206,-3.3638,-3.4031,-3.4216,-3.4601,-2.905,0.0,0.0,0.0,0.0,0.0,0.0,0.0,0.0,0.0,0.0,0.0,0.0,0.0,0.0,0.0,0.0,-2.5361,0.0,0.0,0.0,0.0,0.0,0.0,0.0,0.0,0.0,-2.583,-2.5722,-2.5653,-2.5653,-2.5653,-2.5605,-2.5557,-2.5625,-2.5625,-2.5557,-2.5557,-2.5498,-2.5323,-2.5323,-2.5323,-2.5343,-2.5703,-2.585,-2.585,-2.585,-2.6055,-2.6319,-2.6157,-2.628,-2.6602,-2.7275,-2.7746,-2.8116,-2.8828,-2.8897,-2.8618,-2.8618,-2.8535,-2.8411,-2.8276,-2.8007,-2.7738,-2.7738,-2.7427,-2.7123,-2.7123,-2.7029,-2.6926,-2.6926,-2.6677,-2.6428,-2.6428,-2.603,-2.5699,-2.5699,-2.5855,-2.6023,-2.6269,-2.728,-2.8211,-2.8462,-2.9542,-3.0256,-2.9854,-2.9792,-2.9792,-2.9792,-2.9792,-2.9792,-2.9792,-2.9792,-2.9792,-2.9792,-2.9792,-2.9792,-2.9792,-2.9792,-2.9792,-2.9792,-2.9792,-3.0037,-3.0582,-3.1378,-3.2146,-3.2897,-3.3673,-3.423,-3.4481,-3.4631,-3.4783,0.0,0.0,0.0,-2.6197,0.0,0.0,0.0,0.0,-2.5693,0.0,0.0,0.0,0.0,0.0,-2.5411,-2.46,0.0,0.0,0.0,0.0,0.0,0.0,0.0,0.0,0.0,0.0,0.0,-2.61,-2.5714,-2.5523,-2.5523,-2.5523,-2.5382,-2.5135,-2.5508,-2.5527,-2.5145,-2.5135,-2.4873,-2.4453,-2.4453,-2.4453,-2.4453,-2.4473,-2.4482,-2.4482,-2.4482,-2.4717,-2.5155,-2.5145,-2.539,-2.5781,-2.6324,-2.6275,-2.6111,-2.7955,-2.8628,-2.8618,-2.8618,-2.8317,-2.7872,-2.7486,-2.734,-2.733,-2.733,-2.7009,-2.6635,-2.6635,-2.6314,-2.5916,-2.5916,-2.5906,-2.5906,-2.5906,-2.5564,-2.521,-2.521,-2.4892,-2.4796,-2.5642,-2.6535,-2.7435,-2.8331,-2.9221,-2.9817,-2.9792,-2.9792,-2.9792,-2.9792,-2.9792,-2.9792,-2.9792,-2.9792,-2.9792,-2.9792,-2.9792,-2.9792,-2.9792,-2.9792,-2.9792,-2.9792,-2.9792,-2.9792,-2.983,-3.0545,-3.1328,-3.2146,-3.2861,-3.3742,-3.4698,-3.4698,-3.4783,0.0,0.0,-2.7379,-2.6062,0.0,0.0,0.0,0.0,0.0,0.0,0.0,0.0,0.0,0.0,-2.5098,-2.4512,-2.4541,0.0,0.0,0.0,0.0,0.0,0.0,0.0,0.0,0.0,0.0,-2.5426,-2.5024,-2.4778,-2.4778,-2.4778,-2.4732,-2.4639,-2.5068,-2.5225,-2.5116,-2.5116,-2.5037,-2.4844,-2.4551,-2.4414,-2.4414,-2.4414,-2.4414,-2.4404,-2.4121,-2.4082,-2.4245,-2.4096,-2.4202,-2.4506,-2.5169,-2.5416,-2.5542,-2.6822,-2.7065,-2.6806,-2.6806,-2.6703,-2.6548,-2.6392,-2.6387,-2.6387,-2.6387,-2.6283,-2.6159,-2.6159,-2.6044,-2.5875,-2.5875,-2.5668,-2.5451,-2.5451,-2.5065,-2.4735,-2.4735,-2.5508,-2.6299,-2.6607,-2.7851,-2.9,-2.93,-2.9585,-2.9792,-2.9792,-2.9792,-2.9792,-2.9792,-2.9792,-2.9792,-2.9792,-2.9792,-2.9792,-2.9792,-2.9792,-2.9792,-2.9792,-2.9792,-2.9792,-2.9792,-2.9792,-3.0292,-3.1294,-3.1576,-3.2326,-3.3604,-3.3859,-3.4147,-3.4481,-3.4481,-3.4716,-2.951,-2.8495,0.0,-2.6466,-2.5965,0.0,-2.5693,0.0,-2.5693,0.0,0.0,0.0,0.0,0.0,0.0,-2.4287,-2.4199,-2.4043,0.0,-2.3276,0.0,0.0,0.0,0.0,0.0,0.0,-2.4834,-2.4834,-2.4443,-2.4199,0.0,0.0,-2.4199,-2.4199,-2.4609,-2.4834,-2.4834,-2.4834,-2.4766,-2.4609,-2.4326,-2.4111,-2.3919,-2.3919,-2.3919,-2.39,-2.3682,-2.3555,-2.3535,-2.3393,-2.3493,-2.3741,-2.4304,-2.4635,-2.4967,-2.5999,-2.6179,-2.5875,-2.5875,-2.5875,-2.5875,-2.5875,-2.5875,-2.5875,-2.5875,-2.5771,-2.5678,-2.5834,-2.5647,-2.544,-2.5606,-2.5316,-2.4941,-2.4941,-2.4962,-2.4978,-2.4978,-2.6091,-2.7191,-2.7516,-2.8542,-2.9456,-2.9753,-2.9792,-2.9792,-2.9792,-2.9792,-2.9792,-2.9792,-2.9792,-2.9792,-2.9792,-2.9792,-2.9792,-2.9792,-2.9792,-2.9792,-2.9792,-2.9792,-2.9792,-2.9792,-2.9792,-3.0394,-3.1636,-3.1965,-3.2733,-3.3962,-3.4264,-3.4414,-3.4414,-3.4481,-3.4716]}]]